[[{"header":{"parameterUnit":"m.s-1","parameterCategory":1,"la1":30.6,"la2":28.766,"lo1":-90.7593,"lo2":-88.6598,"dy":0.0162,"dx":0.0183,"nx":116,"ny":114,"refTime":"2023-07-16T00:00:00:Z","depth":0,"parameterNumber":2,"parameterNumberName":"U-component_of_WINDS"},"data":[0.0,0.0,0.0,0.0,0.0,0.0,0.0,0.0,0.0,0.0,0.0,0.0,0.0,0.0,0.0,0.0,0.0,0.0,0.0,0.0,0.0,0.0,0.0,0.0,0.0,0.0,0.0,0.0,0.0,0.0,0.0,0.0,0.0,0.0,0.0,0.0,0.0,0.0,0.0,0.0,0.0,0.0,0.0,0.0,0.0,0.0,0.0,0.0,0.0,0.0,0.0,0.0,0.0,0.0,0.0,0.0,0.0,0.0,0.0,0.0,0.0,0.0,0.0,0.0,0.0,0.0,0.0,0.0,0.0,0.0,0.0,0.0,0.0,0.0,0.0,0.0,0.0,0.0,0.0,0.0,0.0,0.0,0.0,0.0,0.0,0.0,0.0,0.0,0.0,0.0,0.0,0.0,0.0,0.0,0.0,0.0,0.0,0.0,0.0,0.0,0.0,0.0,0.0,0.0,0.0,0.0,0.0,0.0,0.0,0.0,0.0,0.0,0.0,0.0,0.0,0.0,0.0,0.0,0.0,0.0,0.0,0.0,0.0,0.0,0.0,0.0,0.0,0.0,0.0,0.0,0.0,0.0,0.0,0.0,0.0,0.0,0.0,0.0,0.0,0.0,0.0,0.0,0.0,0.0,0.0,0.0,0.0,0.0,0.0,0.0,0.0,0.0,0.0,0.0,0.0,0.0,0.0,0.0,0.0,0.0,0.0,0.0,0.0,0.0,0.0,0.0,0.0,0.0,0.0,0.0,0.0,0.0,0.0,0.0,0.0,0.0,0.0,0.0,0.0,0.0,0.0,0.0,0.0,0.0,0.0,0.0,0.0,0.0,0.0,0.0,0.0,0.0,0.0,0.0,0.0,0.0,0.0,0.0,0.0,0.0,0.0,0.0,0.0,0.0,0.0,0.0,0.0,0.0,0.0,0.0,0.0,0.0,0.0,0.0,0.0,0.0,0.0,0.0,0.0,0.0,0.0,0.0,0.0,0.0,0.0,0.0,0.0,0.0,0.0,0.0,0.0,0.0,0.0,0.0,0.0,0.0,0.0,0.0,0.0,0.0,0.0,0.0,0.0,0.0,0.0,0.0,0.0,0.0,0.0,0.0,0.0,0.0,0.0,0.0,0.0,0.0,0.0,0.0,0.0,0.0,0.0,0.0,0.0,0.0,0.0,0.0,0.0,0.0,0.0,0.0,0.0,0.0,0.0,0.0,0.0,0.0,0.0,0.0,0.0,0.0,0.0,0.0,0.0,0.0,0.0,0.0,0.0,0.0,0.0,0.0,0.0,0.0,0.0,0.0,0.0,0.0,0.0,0.0,0.0,0.0,0.0,0.0,0.0,0.0,0.0,0.0,0.0,0.0,0.0,0.0,0.0,0.0,0.0,0.0,0.0,0.0,0.0,0.0,0.0,0.0,0.0,0.0,0.0,0.0,0.0,0.0,0.0,0.0,0.0,0.0,0.0,0.0,0.0,0.0,0.0,0.0,0.0,0.0,0.0,0.0,0.0,0.0,0.0,0.0,0.0,0.0,0.0,0.0,0.0,0.0,0.0,0.0,0.0,0.0,0.0,0.0,0.0,0.0,0.0,0.0,0.0,0.0,0.0,0.0,0.0,0.0,0.0,0.0,0.0,0.0,0.0,0.0,0.0,0.0,0.0,0.0,0.0,0.0,0.0,0.0,0.0,0.0,0.0,0.0,0.0,0.0,0.0,0.0,0.0,0.0,0.0,0.0,0.0,0.0,0.0,0.0,0.0,0.0,0.0,0.0,0.0,0.0,0.0,0.0,0.0,0.0,0.0,0.0,0.0,0.0,0.0,0.0,0.0,0.0,0.0,0.0,0.0,0.0,0.0,0.0,0.0,0.0,0.0,0.0,0.0,0.0,0.0,0.0,0.0,0.0,0.0,0.0,0.0,0.0,0.0,0.0,0.0,0.0,0.0,0.0,0.0,0.0,0.0,0.0,0.0,0.0,0.0,0.0,0.0,0.0,0.0,0.0,0.0,0.0,0.0,0.0,0.0,0.0,0.0,0.0,0.0,0.0,0.0,0.0,0.0,0.0,0.0,0.0,0.0,0.0,0.0,0.0,0.0,0.0,0.0,0.0,0.0,0.0,0.0,0.0,0.0,0.0,0.0,0.0,0.0,0.0,0.0,0.0,0.0,0.0,0.0,0.0,0.0,0.0,0.0,0.0,0.0,0.0,0.0,0.0,0.0,0.0,0.0,0.0,0.0,0.0,0.0,0.0,0.0,0.0,0.0,0.0,0.0,0.0,0.0,0.0,0.0,0.0,0.0,0.0,0.0,0.0,0.0,0.0,0.0,0.0,0.0,0.0,0.0,0.0,0.0,0.0,0.0,0.0,0.0,0.0,0.0,0.0,0.0,0.0,0.0,0.0,0.0,0.0,0.0,0.0,0.0,0.0,0.0,0.0,0.0,0.0,0.0,0.0,0.0,0.0,0.0,0.0,0.0,0.0,0.0,0.0,0.0,0.0,0.0,0.0,0.0,0.0,0.0,0.0,0.0,0.0,0.0,0.0,0.0,0.0,0.0,0.0,0.0,0.0,0.0,0.0,0.0,0.0,0.0,0.0,0.0,0.0,0.0,0.0,0.0,0.0,0.0,0.0,0.0,0.0,0.0,0.0,0.0,0.0,0.0,0.0,0.0,0.0,0.0,0.0,0.0,0.0,0.0,0.0,0.0,0.0,0.0,0.0,0.0,0.0,0.0,0.0,0.0,0.0,0.0,0.0,0.0,0.0,0.0,0.0,0.0,0.0,0.0,0.0,0.0,0.0,0.0,0.0,0.0,0.0,0.0,0.0,0.0,0.0,0.0,0.0,0.0,0.0,0.0,0.0,0.0,0.0,0.0,0.0,0.0,0.0,0.0,0.0,0.0,0.0,0.0,0.0,0.0,0.0,0.0,0.0,0.0,0.0,0.0,0.0,0.0,0.0,0.0,0.0,0.0,0.0,0.0,0.0,0.0,0.0,0.0,0.0,0.0,0.0,0.0,0.0,0.0,0.0,0.0,0.0,0.0,0.0,0.0,0.0,0.0,0.0,0.0,0.0,0.0,0.0,0.0,0.0,0.0,0.0,0.0,0.0,0.0,0.0,0.0,0.0,0.0,0.0,0.0,0.0,0.0,0.0,0.0,0.0,0.0,0.0,0.0,0.0,0.0,0.0,0.0,0.0,0.0,0.0,0.0,0.0,0.0,0.0,0.0,0.0,0.0,0.0,0.0,0.0,0.0,0.0,0.0,0.0,0.0,0.0,0.0,0.0,0.0,0.0,0.0,0.0,0.0,0.0,0.0,0.0,0.0,0.0,0.0,0.0,0.0,0.0,0.0,0.0,0.0,0.0,0.0,0.0,0.0,0.0,0.0,0.0,0.0,0.0,0.0,0.0,0.0,0.0,0.0,0.0,0.0,0.0,0.0,0.0,0.0,0.0,0.0,0.0,0.0,0.0,0.0,0.0,0.0,0.0,0.0,0.0,0.0,0.0,0.0,0.0,0.0,0.0,0.0,0.0,0.0,0.0,0.0,0.0,0.0,0.0,0.0,0.0,0.0,0.0,0.0,0.0,0.0,0.0,0.0,0.0,0.0,0.0,0.0,0.0,0.0,0.0,0.0,0.0,0.0,0.0,0.0,0.0,0.0,0.0,0.0,0.0,0.0,0.0,0.0,0.0,0.0,0.0,0.0,0.0,0.0,0.0,0.0,0.0,0.0,0.0,0.0,0.0,0.0,0.0,0.0,0.0,0.0,0.0,0.0,0.0,0.0,0.0,0.0,0.0,0.0,0.0,0.0,0.0,0.0,0.0,0.0,0.0,0.0,0.0,0.0,0.0,0.0,0.0,0.0,0.0,0.0,0.0,0.0,0.0,0.0,0.0,0.0,0.0,0.0,0.0,0.0,0.0,0.0,0.0,0.0,0.0,0.0,0.0,0.0,0.0,0.0,0.0,0.0,0.0,0.0,0.0,0.0,0.0,0.0,0.0,0.0,0.0,0.0,0.0,0.0,0.0,0.0,0.0,0.0,0.0,0.0,0.0,0.0,0.0,0.0,0.0,0.0,0.0,0.0,0.0,0.0,0.0,0.0,0.0,0.0,0.0,0.0,0.0,0.0,0.0,0.0,0.0,0.0,0.0,0.0,0.0,0.0,0.0,0.0,0.0,0.0,0.0,0.0,0.0,0.0,0.0,0.0,0.0,0.0,0.0,0.0,0.0,0.0,0.0,0.0,0.0,0.0,0.0,0.0,0.0,0.0,0.0,0.0,0.0,0.0,0.0,0.0,0.0,0.0,0.0,0.0,0.0,0.0,0.0,0.0,0.0,0.0,0.0,0.0,0.0,0.0,0.0,0.0,0.0,0.0,0.0,0.0,0.0,0.0,0.0,0.0,0.0,0.0,0.0,0.0,0.0,0.0,0.0,0.0,0.0,0.0,0.0,0.0,0.0,0.0,0.0,0.0,0.0,0.0,0.0,0.0,0.0,0.0,0.0,0.0,0.0,0.0,0.0,0.0,0.0,0.0,0.0,0.0,0.0,0.0,0.0,0.0,0.0,0.0,0.0,0.0,0.0,0.0,0.0,0.0,0.0,0.0,0.0,0.0,0.0,0.0,0.0,0.0,0.0,0.0,0.0,0.0,0.0,0.0,0.0,0.0,0.0,0.0,0.0,0.0,0.0,0.0,0.0,0.0,0.0,0.0,0.0,0.0,0.0,0.0,0.0,0.0,0.0,0.0,0.0,0.0,0.0,0.0,0.0,0.0,0.0,0.0,0.0,0.0,0.0,0.0,0.0,0.0,0.0,0.0,0.0,0.0,0.0,0.0,0.0,0.0,0.0,0.0,0.0,0.0,0.0,0.0,0.0,0.0,0.0,0.0,0.0,0.0,0.0,0.0,0.0,0.0,0.0,0.0,0.0,0.0,0.0,0.0,0.0,0.0,0.0,0.0,0.0,0.0,0.0,0.0,0.0,0.0,0.0,0.0,0.0,0.0,0.0,0.0,0.0,0.0,0.0,0.0,0.0,0.0,0.0,0.0,0.0,0.0,0.0,0.0,0.0,0.0,0.0,0.0,0.0,0.0,0.0,0.0,0.0,0.0,0.0,0.0,0.0,0.0,0.0,0.0,0.0,0.0,0.0,0.0,0.0,0.0,0.0,0.0,0.0,0.0,0.0,0.0,0.0,0.0,0.0,0.0,0.0,0.0,0.0,0.0,0.0,0.0,0.0,0.0,0.0,0.0,0.0,0.0,0.0,0.0,0.0,0.0,0.0,0.0,0.0,0.0,0.0,0.0,0.0,0.0,0.0,0.0,0.0,0.0,0.0,0.0,0.0,0.0,0.0,0.0,0.0,0.0,0.0,0.0,0.0,0.0,0.0,0.0,0.0,0.0,0.0,0.0,0.0,0.0,0.0,0.0,0.0,0.0,0.0,0.0,0.0,0.0,0.0,0.0,0.0,0.0,0.0,0.0,0.0,0.0,0.0,0.0,0.0,0.0,0.0,0.0,0.0,0.0,0.0,0.0,0.0,0.0,0.0,0.0,0.0,0.0,0.0,0.0,0.0,0.0,0.0,0.0,0.0,0.0,0.0,0.0,0.0,0.0,0.0,0.0,0.0,0.0,0.0,0.0,0.0,0.0,0.0,0.0,0.0,0.0,0.0,0.0,0.0,0.0,0.0,0.0,0.0,0.0,0.0,0.0,0.0,0.0,0.0,0.0,0.0,0.0,0.0,0.0,0.0,0.0,0.0,0.0,0.0,0.0,0.0,0.0,0.0,0.0,0.0,0.0,0.0,0.0,0.0,0.0,0.0,0.0,0.0,0.0,0.0,0.0,0.0,0.0,0.0,0.0,0.0,0.0,0.0,0.0,0.0,0.0,0.0,0.0,0.0,0.0,0.0,0.0,0.0,0.0,0.0,0.0,0.0,0.0,0.0,0.0,0.0,0.0,0.0,0.0,0.0,0.0,0.0,0.0,0.0,0.0,0.0,0.0,0.0,0.0,0.0,0.0,0.0,0.0,0.0,0.0,0.0,0.0,0.0,0.0,0.0,0.0,0.0,0.0,0.0,0.0,0.0,0.0,0.0,0.0,0.0,-3.3388,0.0,0.0,0.0,0.0,0.0,0.0,0.0,0.0,0.0,0.0,0.0,0.0,0.0,0.0,0.0,0.0,0.0,0.0,0.0,0.0,0.0,0.0,0.0,0.0,0.0,0.0,0.0,0.0,0.0,0.0,0.0,0.0,0.0,0.0,0.0,0.0,0.0,0.0,0.0,0.0,0.0,0.0,0.0,0.0,0.0,0.0,0.0,0.0,0.0,0.0,0.0,0.0,0.0,0.0,0.0,0.0,0.0,0.0,0.0,0.0,0.0,0.0,0.0,0.0,0.0,0.0,0.0,0.0,0.0,0.0,0.0,0.0,0.0,0.0,0.0,0.0,0.0,0.0,0.0,0.0,0.0,0.0,0.0,0.0,0.0,0.0,0.0,0.0,0.0,0.0,0.0,0.0,0.0,0.0,0.0,0.0,0.0,0.0,0.0,0.0,0.0,0.0,0.0,0.0,0.0,0.0,0.0,0.0,0.0,0.0,0.0,0.0,0.0,0.0,0.0,0.0,-3.4036,0.0,0.0,0.0,0.0,0.0,0.0,0.0,0.0,0.0,0.0,0.0,0.0,0.0,0.0,0.0,0.0,0.0,0.0,0.0,0.0,0.0,0.0,0.0,0.0,0.0,0.0,0.0,0.0,0.0,0.0,0.0,0.0,0.0,0.0,0.0,0.0,0.0,0.0,0.0,0.0,0.0,0.0,0.0,0.0,0.0,0.0,0.0,0.0,0.0,0.0,0.0,0.0,0.0,0.0,0.0,0.0,0.0,0.0,0.0,0.0,0.0,0.0,0.0,0.0,0.0,0.0,0.0,0.0,0.0,0.0,0.0,0.0,0.0,0.0,0.0,0.0,0.0,0.0,0.0,0.0,0.0,0.0,0.0,0.0,0.0,0.0,0.0,0.0,0.0,0.0,0.0,0.0,0.0,0.0,0.0,0.0,0.0,0.0,0.0,0.0,0.0,0.0,0.0,0.0,0.0,0.0,0.0,0.0,-4.2484,-4.2389,-4.2366,-4.2102,-4.1616,-4.0802,-3.8021,-3.6507,-3.5938,-3.4996,0.0,0.0,0.0,0.0,0.0,0.0,0.0,0.0,0.0,0.0,0.0,0.0,0.0,0.0,0.0,0.0,0.0,0.0,0.0,0.0,0.0,0.0,0.0,0.0,0.0,0.0,0.0,0.0,0.0,0.0,0.0,0.0,0.0,0.0,0.0,0.0,0.0,0.0,-3.7281,-3.7532,-3.7296,-3.6648,-3.6137,0.0,0.0,0.0,0.0,0.0,0.0,0.0,0.0,0.0,0.0,0.0,0.0,0.0,0.0,0.0,0.0,0.0,0.0,0.0,0.0,0.0,0.0,0.0,0.0,0.0,0.0,0.0,0.0,0.0,0.0,0.0,0.0,0.0,0.0,0.0,0.0,0.0,0.0,0.0,0.0,0.0,0.0,0.0,-3.4566,-3.5547,0.0,0.0,0.0,0.0,0.0,0.0,0.0,0.0,0.0,0.0,0.0,0.0,0.0,-4.1822,-4.2581,-4.2566,-4.2582,-4.2612,-4.2481,-4.2323,-4.2227,-4.207,-4.1882,-4.1642,-4.1063,0.0,-3.7541,-3.6644,0.0,0.0,0.0,0.0,0.0,0.0,0.0,0.0,0.0,0.0,0.0,0.0,0.0,0.0,0.0,0.0,0.0,0.0,0.0,0.0,0.0,0.0,0.0,0.0,0.0,0.0,0.0,0.0,0.0,0.0,0.0,0.0,0.0,0.0,0.0,0.0,-3.7088,-3.7585,-3.7389,-3.8099,-3.7811,-3.6749,-3.6552,-3.6242,-3.5899,-3.5898,0.0,0.0,0.0,0.0,0.0,0.0,0.0,0.0,0.0,0.0,0.0,0.0,0.0,0.0,0.0,0.0,0.0,0.0,0.0,0.0,0.0,0.0,0.0,0.0,0.0,0.0,0.0,0.0,0.0,0.0,0.0,0.0,0.0,0.0,0.0,0.0,0.0,0.0,0.0,-3.4394,-3.5934,-3.7294,-3.7741,-3.8263,0.0,0.0,0.0,0.0,0.0,0.0,0.0,0.0,0.0,-4.194,-4.2244,-4.2772,-4.3503,-4.3384,-4.3507,-4.3885,-4.3767,-4.3617,-4.3487,-4.3352,-4.323,-4.3096,-4.25,-4.1593,-4.0459,-3.9557,-3.863,-3.7695,0.0,0.0,0.0,0.0,-3.4973,-3.4947,0.0,0.0,0.0,0.0,0.0,0.0,0.0,0.0,0.0,0.0,0.0,0.0,0.0,0.0,0.0,-3.0252,0.0,0.0,0.0,0.0,0.0,0.0,0.0,0.0,0.0,0.0,0.0,0.0,-3.7902,-3.8047,-3.7498,-3.84,-3.8057,-3.6675,-3.6798,-3.6506,-3.5896,-3.5895,-3.5906,0.0,0.0,0.0,0.0,0.0,0.0,0.0,0.0,0.0,0.0,0.0,0.0,0.0,0.0,0.0,0.0,0.0,0.0,0.0,0.0,0.0,0.0,0.0,0.0,0.0,0.0,0.0,0.0,0.0,0.0,0.0,0.0,0.0,0.0,0.0,0.0,0.0,0.0,-3.6171,-3.7557,-3.9056,-3.9387,-3.9833,0.0,0.0,0.0,0.0,0.0,0.0,-4.2414,-4.2902,-4.3239,-4.3335,-4.3269,-4.358,-4.4341,-4.4198,-4.4387,-4.4895,-4.4745,-4.4632,-4.4487,-4.4373,-4.4255,-4.4116,-4.3317,-4.2913,-4.2775,-4.1646,-4.0409,-3.9263,-3.9118,-3.8291,-3.7189,-3.7126,-3.6999,-3.678,0.0,0.0,0.0,0.0,0.0,0.0,0.0,0.0,0.0,0.0,0.0,0.0,0.0,0.0,-2.9287,-2.9184,-2.9849,-3.0582,0.0,0.0,0.0,0.0,0.0,0.0,0.0,0.0,0.0,-3.8487,-3.8868,-3.8779,-3.8244,-3.8518,-3.7871,-3.6514,-3.6722,-3.6484,-3.5899,-3.5901,-3.5897,-3.5896,0.0,0.0,0.0,0.0,0.0,0.0,0.0,0.0,0.0,0.0,0.0,0.0,0.0,0.0,0.0,0.0,0.0,0.0,0.0,0.0,0.0,0.0,0.0,0.0,0.0,0.0,0.0,0.0,0.0,0.0,0.0,0.0,0.0,0.0,0.0,0.0,0.0,0.0,0.0,-4.0873,-4.1693,0.0,0.0,0.0,0.0,-4.3374,-4.3343,-4.3303,-4.3227,-4.3217,-4.3528,-4.4203,-4.4153,-4.448,-4.522,-4.5113,-4.4976,-4.4895,-4.4745,-4.4632,-4.4487,-4.4373,-4.4177,-4.4005,-4.3814,-4.3664,-4.3398,-4.1787,-4.0972,-4.0796,-4.0646,-4.0559,-4.0451,-4.0257,-3.968,-3.8939,0.0,0.0,0.0,0.0,0.0,0.0,0.0,0.0,0.0,0.0,0.0,0.0,0.0,-2.6859,-2.7736,-2.8648,-2.8917,-2.9308,-3.0005,0.0,0.0,0.0,0.0,0.0,0.0,0.0,-3.6143,-3.6789,-3.7085,-3.7248,-3.7275,-3.7521,-3.7179,-3.6381,-3.6539,-3.6291,-3.5776,-3.5856,-3.5894,-3.5903,-3.5864,-3.5632,0.0,0.0,0.0,0.0,0.0,0.0,0.0,0.0,0.0,0.0,0.0,0.0,0.0,0.0,0.0,0.0,0.0,0.0,0.0,0.0,0.0,0.0,0.0,0.0,0.0,0.0,0.0,0.0,0.0,0.0,0.0,0.0,0.0,0.0,0.0,0.0,0.0,-4.1833,-4.2714,0.0,-4.367,-4.363,-4.3575,-4.351,-4.3954,-4.4201,-4.4076,-4.4534,-4.4864,-4.4996,-4.4978,-4.5034,-4.517,-4.5125,-4.4991,-4.477,-4.4719,-4.4578,-4.4373,-4.4314,-4.4165,-4.3929,-4.3818,-4.3686,-4.3477,-4.2736,-4.2118,-4.159,-4.1522,-4.1089,-4.0492,-4.042,-4.0148,-3.9715,0.0,0.0,0.0,0.0,0.0,0.0,0.0,0.0,0.0,0.0,0.0,-2.4478,-2.4838,-2.56,-2.6502,-2.7425,-2.7686,-2.81,-2.8749,0.0,0.0,0.0,0.0,0.0,0.0,-3.4429,-3.522,-3.5588,-3.5897,-3.6093,-3.6136,-3.6397,-3.6249,-3.5761,-3.5921,-3.5864,-3.5649,-3.5779,-3.5861,-3.5898,-3.5901,-3.587,-3.5753,0.0,0.0,0.0,0.0,0.0,0.0,0.0,0.0,0.0,0.0,0.0,0.0,0.0,0.0,0.0,0.0,0.0,0.0,0.0,0.0,0.0,0.0,0.0,0.0,0.0,0.0,0.0,0.0,0.0,0.0,0.0,0.0,0.0,0.0,-4.0262,-4.1971,-4.3144,-4.3793,-4.4259,-4.4509,-4.4474,-4.442,-4.4356,-4.4827,-4.5041,-4.4916,-4.5407,-4.5599,-4.5419,-4.54,-4.5301,-4.5103,-4.508,-4.4943,-4.4712,-4.4659,-4.4524,-4.4285,-4.4226,-4.4085,-4.3851,-4.3786,-4.3652,-4.3463,-4.3286,-4.285,-4.2287,-4.2214,-4.1795,-4.1194,-4.1119,-4.0883,-4.0432,0.0,0.0,0.0,0.0,0.0,0.0,0.0,0.0,0.0,0.0,-2.3691,-2.391,-2.3808,-2.4885,-2.5586,-2.5556,-2.6168,-2.6807,-2.7492,-2.754,0.0,0.0,0.0,0.0,-3.2835,-3.3995,-3.4783,-3.5096,-3.5515,-3.546,-3.4908,-3.5203,-3.5058,-3.4619,-3.4831,-3.5085,-3.543,-3.5562,-3.5717,-3.5854,-3.5898,-3.5893,-3.5883,0.0,0.0,0.0,0.0,0.0,0.0,0.0,0.0,0.0,0.0,0.0,0.0,0.0,0.0,0.0,0.0,0.0,0.0,0.0,0.0,0.0,0.0,0.0,0.0,0.0,0.0,0.0,0.0,0.0,0.0,0.0,0.0,0.0,-4.0972,-4.1892,-4.3118,-4.4804,-4.5011,-4.5347,-4.6114,-4.6144,-4.6063,-4.6007,-4.5941,-4.5835,-4.5715,-4.57,-4.5599,-4.5419,-4.54,-4.5301,-4.5103,-4.5014,-4.4895,-4.4712,-4.4551,-4.443,-4.4285,-4.4097,-4.3929,-4.3804,-4.3667,-4.3532,-4.3376,-4.3251,-4.3087,-4.29,-4.2822,-4.2802,-4.2763,-4.2584,-4.1966,-4.1017,0.0,0.0,0.0,0.0,0.0,0.0,0.0,0.0,0.0,0.0,-2.2893,-2.2948,-2.3245,-2.3502,-2.3846,-2.4314,-2.4962,-2.5355,-2.5497,0.0,0.0,0.0,0.0,0.0,-3.1567,-3.2228,-3.2754,-3.3123,-3.3508,-3.343,-3.2974,-3.323,-3.3123,-3.2683,-3.2921,-3.3225,-3.3557,-3.3693,-3.4173,-3.4935,-3.5636,-3.5895,-3.5896,0.0,0.0,0.0,0.0,0.0,0.0,0.0,0.0,0.0,0.0,0.0,0.0,0.0,0.0,0.0,0.0,0.0,0.0,0.0,0.0,0.0,0.0,0.0,0.0,0.0,0.0,0.0,0.0,0.0,0.0,0.0,-3.893,-4.0747,-4.1057,-4.2942,-4.4464,-4.4941,-4.5559,-4.601,-4.6172,-4.6144,-4.6091,-4.6076,-4.5972,-4.5867,-4.5781,-4.5715,-4.5599,-4.5419,-4.54,-4.5301,-4.5103,-4.5014,-4.4895,-4.4712,-4.4551,-4.443,-4.4285,-4.4097,-4.3929,-4.3804,-4.36,-4.341,-4.3251,-4.316,-4.3012,-4.2822,-4.2822,-4.2724,-4.2584,-4.2503,-4.1568,-4.0221,0.0,0.0,0.0,0.0,0.0,0.0,0.0,0.0,0.0,0.0,-2.2298,-2.2212,-2.233,-2.2536,-2.2769,-2.3078,-2.3643,-2.4123,-2.4337,0.0,0.0,0.0,0.0,-2.9175,-2.985,-3.0285,-3.0673,-3.1046,-3.1419,-3.1542,-3.1456,-3.1738,-3.1831,-3.173,-3.2006,-3.2315,-3.2626,-3.2846,-3.3295,-3.4003,-3.4939,-3.5561,-3.5947,-3.5919,-3.5889,-3.5826,-3.5768,-3.5379,-3.4881,-3.4881,0.0,0.0,0.0,0.0,0.0,0.0,0.0,0.0,0.0,0.0,0.0,0.0,0.0,0.0,0.0,0.0,0.0,0.0,0.0,0.0,0.0,0.0,0.0,0.0,-4.0274,-4.177,-4.2577,-4.402,-4.5141,-4.5507,-4.5994,-4.6273,-4.6201,-4.6164,-4.6127,-4.6105,-4.5994,-4.5899,-4.5815,-4.575,-4.5599,-4.5419,-4.54,-4.5301,-4.5103,-4.501,-4.487,-4.4712,-4.4496,-4.4373,-4.4285,-4.4023,-4.3883,0.0,-4.355,-4.3358,-4.3196,-4.3141,-4.2936,0.0,0.0,0.0,0.0,0.0,-4.1306,-3.9854,0.0,0.0,0.0,0.0,0.0,0.0,0.0,0.0,0.0,0.0,0.0,-2.1601,-2.1277,-2.173,-2.2,-2.1798,-2.2362,-2.3001,0.0,0.0,0.0,-2.627,-2.7106,-2.7729,-2.8079,-2.846,-2.8814,-2.9228,-2.9574,-2.9899,-3.0213,-3.0543,-3.0875,-3.117,-3.1452,-3.1768,-3.2096,-3.2359,-3.2659,-3.3014,-3.386,-3.4874,-3.5859,-3.5908,-3.5919,-3.5894,-3.5827,-3.5764,-3.5708,-3.5698,0.0,0.0,0.0,0.0,0.0,0.0,0.0,0.0,0.0,0.0,0.0,0.0,0.0,0.0,0.0,0.0,0.0,0.0,0.0,0.0,0.0,0.0,0.0,0.0,-4.1791,-4.3069,-4.4669,-4.505,-4.5421,-4.6207,-4.6308,-4.6282,-4.6214,-4.6206,-4.6176,-4.6114,-4.6035,-4.5944,-4.5829,0.0,0.0,0.0,0.0,-4.5301,-4.5103,-4.4967,-4.4821,-4.4712,-4.4458,-4.4314,-4.4285,-4.3947,-4.3804,-4.3771,-4.3481,-4.3305,-4.3196,-4.3123,-4.2899,-4.2609,-4.257,-4.2508,-4.2422,-4.2205,-4.1108,-3.9736,0.0,0.0,0.0,0.0,0.0,0.0,0.0,0.0,0.0,-2.184,-2.1401,-2.1087,-2.0925,-2.0722,-2.0581,-2.0547,-2.1039,-2.1872,0.0,0.0,-2.4817,-2.5559,-2.6036,-2.6684,-2.7542,-2.7994,-2.8417,-2.8831,-2.9228,-2.9229,-2.8942,-2.9355,-2.9368,-2.9082,-2.948,-2.9843,-3.015,-3.0421,-3.1046,-3.1909,-3.2258,-3.3418,-3.5029,-3.5722,-3.5948,-3.5903,-3.589,-3.5846,-3.5779,-3.5776,-3.5771,-3.5726,-3.5572,0.0,0.0,0.0,0.0,0.0,0.0,0.0,0.0,0.0,0.0,0.0,0.0,0.0,0.0,0.0,0.0,0.0,0.0,0.0,0.0,-4.071,-4.2791,-4.4443,-4.4842,-4.5527,-4.6045,-4.6261,-4.6308,-4.6284,-4.628,-4.6231,-4.617,-4.6099,-4.6037,-4.5968,-4.588,-4.5761,-4.5616,-4.5495,-4.5419,-4.5301,-4.5103,-4.5014,-4.4889,-4.4712,0.0,0.0,-4.4285,-4.3947,-4.3804,-4.3771,-4.3393,-4.3214,-4.3214,-4.3013,-4.2786,-4.257,-4.2409,-4.2287,-4.2163,-4.2103,-4.1085,-3.9615,0.0,0.0,0.0,0.0,0.0,0.0,0.0,0.0,0.0,0.0,-2.1007,-2.0648,-2.0326,-2.0085,-1.9909,-1.9818,-2.0332,0.0,0.0,-2.2768,-2.3613,-2.4465,-2.4667,-2.5102,-2.5821,-2.619,-2.6548,-2.6934,-2.7344,-2.7588,-2.7667,-2.8032,-2.824,-2.8264,-2.8652,-2.9023,-2.9416,-2.9715,-3.0251,-3.0943,-3.1564,-3.2426,-3.3501,-3.4834,-3.5605,-3.5947,-3.5946,-3.5919,-3.585,-3.5852,-3.5846,-3.5845,-3.585,-3.5842,-3.5854,0.0,0.0,0.0,0.0,0.0,0.0,0.0,0.0,0.0,0.0,0.0,0.0,0.0,0.0,-3.7589,-3.8474,0.0,-4.1139,-4.2492,-4.3854,-4.4928,-4.5423,-4.5908,-4.622,-4.6295,-4.6307,-4.6307,-4.6309,-4.6245,-4.617,-4.6115,-4.6066,-4.6003,-4.5906,-4.5791,-4.5703,-4.5549,-4.5438,-4.5321,-4.5148,-4.5057,-4.4895,-4.4712,-4.4524,-4.4401,-4.4285,-4.3979,-4.3818,-4.3771,-4.3393,-4.3214,-4.3178,-4.2862,-4.267,-4.257,-4.2369,-4.2246,-4.2121,-4.2037,-4.0978,-3.9552,0.0,0.0,0.0,0.0,0.0,0.0,0.0,0.0,0.0,0.0,0.0,-2.0139,-1.9717,-1.9551,-1.9398,0.0,0.0,0.0,0.0,-2.1478,-2.2232,-2.2977,-2.3035,-2.3263,-2.3697,-2.3912,-2.428,-2.483,-2.5234,-2.5776,-2.6505,-2.6873,-2.7334,-2.7869,-2.8246,-2.8652,-2.9104,-2.9494,-2.9836,-3.0213,-3.1091,-3.1641,-3.2143,-3.3614,-3.4838,-3.5761,-3.5947,-3.5971,-3.5919,-3.5923,-3.5924,-3.5922,-3.5903,-3.5911,-3.5898,-3.5898,-3.5905,0.0,0.0,0.0,0.0,0.0,0.0,0.0,0.0,-3.8228,-3.8229,-3.8159,-3.8412,-3.908,-4.0489,-4.1108,-4.2107,-4.4258,-4.4783,-4.5196,-4.5969,-4.613,-4.6216,-4.628,-4.628,-4.6308,-4.63,-4.6241,-4.6192,-4.613,-4.6113,-4.6046,-4.5932,-4.5838,-4.575,-4.5584,-4.5322,-4.5093,-4.4965,-4.4684,-4.4521,-4.4466,-4.4334,-4.4261,-4.4285,-4.3856,-4.3643,-4.3531,-4.3155,-4.3069,-4.3142,-4.2765,-4.2609,-4.257,-4.2369,-4.2205,-4.2079,-4.203,-4.0912,-3.9447,0.0,0.0,0.0,0.0,0.0,0.0,0.0,0.0,0.0,0.0,0.0,0.0,0.0,0.0,0.0,0.0,0.0,0.0,-1.9308,-2.0091,-2.0585,-2.0756,-2.0982,-2.1233,-2.1547,-2.1854,-2.2513,-2.3522,-2.3916,-2.4687,-2.5832,-2.628,-2.6791,-2.7289,-2.784,-2.829,-2.8718,-2.923,-2.9626,-2.9965,-3.0318,-3.1041,-3.195,-3.2199,-3.336,-3.4954,-3.5722,-3.5992,-3.5987,-3.5994,-3.5981,-3.5974,-3.5923,-3.5895,-3.5904,-3.5904,-3.5904,-3.5909,-3.597,-3.6518,-3.7278,-3.8143,-3.8338,-3.8277,0.0,-3.8691,-3.9133,-3.9077,-4.0238,-4.1351,-4.1607,-4.2874,-4.4055,-4.4515,-4.5214,-4.5751,-4.5966,-4.6075,-4.6146,-4.6209,-4.6264,-4.6307,-4.6307,-4.6293,-4.6264,-4.6183,-4.6127,-4.6076,-4.5991,-4.5874,-4.5742,-4.5596,-4.4762,-4.4288,-4.413,-4.3281,-4.3126,-4.3636,-4.3484,-4.3736,-4.4266,-4.3323,-4.2854,-4.2714,-4.2313,-4.2522,-4.3086,-4.2727,-4.2609,-4.257,-4.2369,-4.2181,-4.2005,-4.2005,-4.087,-3.9305,0.0,0.0,0.0,0.0,0.0,0.0,0.0,0.0,0.0,0.0,0.0,0.0,0.0,0.0,0.0,0.0,0.0,0.0,-1.8484,-1.8838,-1.9209,-1.968,-1.9869,-2.0116,-2.0458,-2.0779,-2.1281,-2.2009,-2.2787,-2.3616,-2.4455,-2.5292,-2.6019,-2.664,-2.7203,-2.7787,-2.835,-2.8883,-2.9338,-2.975,-3.0066,-3.0525,-3.1091,-3.1708,-3.2444,-3.3251,-3.4155,-3.4492,0.0,0.0,-3.5245,-3.5335,-3.5804,-3.5968,-3.5955,-3.5951,-3.5966,-3.6072,-3.6618,-3.7343,-3.817,-3.9037,-3.9512,-3.9752,-3.9669,-3.9807,-3.9903,-3.9806,-4.0765,-4.1798,-4.2295,-4.3421,-4.4504,-4.5089,-4.5529,-4.5827,-4.5937,-4.6005,-4.6065,-4.613,-4.6211,-4.6251,-4.6308,-4.6303,-4.6264,-4.6211,-4.6164,-4.6122,-4.6046,-4.5917,-4.5808,-4.5723,-4.4771,-4.4209,-4.4116,-4.3155,-4.2718,-4.2858,-4.324,-4.3498,-4.3577,-4.3096,-4.2446,-4.1705,-4.1421,-4.1704,-4.2359,-4.2118,-4.2235,-4.257,-4.2468,-4.2264,-4.2055,-4.1987,-4.0828,-3.9305,0.0,0.0,0.0,0.0,0.0,0.0,0.0,0.0,0.0,0.0,0.0,0.0,0.0,0.0,0.0,0.0,0.0,0.0,0.0,-1.7452,-1.772,-1.8299,-1.8401,-1.8623,-1.896,-1.9261,-1.9796,-2.0598,-2.1507,-2.2405,-2.327,-2.4287,-2.5134,-2.5842,-2.6489,-2.7168,-2.789,-2.8677,-2.9333,-2.9831,-3.0416,-3.0652,-3.0752,-3.1535,-3.1736,-3.1741,-3.2937,-3.3387,0.0,0.0,-3.4492,-3.4804,-3.5448,-3.5816,-3.6003,-3.5996,-3.5994,-3.6247,-3.7356,-3.8066,-3.8754,-3.9862,-4.047,-4.0768,-4.0662,-4.0519,-4.0358,-4.0196,-4.0903,-4.1781,-4.2602,-4.3561,-4.4496,-4.5396,-4.5668,-4.5757,-4.5866,-4.5925,-4.5997,-4.6054,-4.6137,-4.6289,-4.6605,-4.6426,-4.628,-4.6238,-4.6201,-4.6169,-4.6104,-4.5986,-4.5905,-4.5827,-4.4639,-4.3951,-4.3884,-4.2642,-4.2041,-4.2117,-4.2824,-4.3024,-4.28,-4.2379,-4.1705,-4.0827,-4.0632,-4.0953,-4.1595,-4.1361,-4.1681,-4.2286,-4.2203,-4.2042,-4.1801,-4.1693,-4.0694,-3.9329,0.0,0.0,0.0,0.0,0.0,0.0,0.0,0.0,0.0,0.0,0.0,0.0,0.0,0.0,0.0,0.0,0.0,0.0,0.0,-1.5856,-1.5957,-1.6081,-1.6081,-1.6244,-1.6607,-1.6795,-1.7721,-1.9329,-1.9825,-2.095,-2.2655,-2.3259,-2.3998,-2.4784,-2.5587,-2.637,-2.7238,-2.8756,-2.9722,-3.0391,-3.1558,-3.1743,-3.1307,-3.1595,-3.1225,-3.0789,-3.2644,0.0,0.0,0.0,-3.4005,-3.4697,-3.4722,-3.531,-3.5996,-3.5995,-3.5993,-3.6363,-3.8085,-3.8532,-3.8902,-4.0544,-4.0882,-4.0738,-4.0549,-4.0457,-4.0325,-4.0138,-4.0783,-4.166,-4.246,-4.3363,-4.4326,-4.5247,-4.5513,-4.5654,-4.5781,-4.5852,-4.5925,-4.5997,-4.6054,-4.6461,-4.7372,-4.6764,-4.6307,-4.6293,-4.6245,-4.6164,-4.6088,-4.6018,-4.5972,-4.5906,-4.4153,-4.32,-4.314,-4.1225,-4.0615,-4.1333,-4.2029,-4.2234,-4.1991,-4.0952,-4.0352,-4.0099,-4.0,-4.0266,-4.081,-4.0635,-4.0871,-4.1402,-4.1378,-4.1199,-4.1037,-4.0878,-4.0282,-3.9365,0.0,0.0,0.0,0.0,0.0,0.0,0.0,0.0,0.0,0.0,0.0,0.0,0.0,0.0,0.0,0.0,0.0,0.0,0.0,-1.4663,-1.4606,-1.4663,-1.4732,-1.4892,-1.5174,-1.5463,-1.6154,-1.7239,-1.8142,-1.9265,-2.0503,-2.1541,-2.2565,-2.3475,-2.4346,-2.5486,-2.69,-2.8056,-2.9249,-3.0495,-3.1265,-3.1667,-3.1858,-3.2142,-3.1788,-3.1249,0.0,0.0,0.0,0.0,-3.3044,-3.3875,-3.4449,-3.5224,-3.5942,-3.5993,-3.5996,-3.6367,-3.8064,-3.8522,-3.8881,-4.0526,-4.082,-4.0674,-4.0431,-4.0248,-4.0081,-3.9892,-4.0552,-4.1275,-4.1518,-4.281,-4.3971,-4.4279,-4.4958,-4.5513,-4.5584,-4.5735,-4.6046,-4.6649,-4.6842,-4.727,-4.8207,-4.7576,-4.734,-4.793,-4.7391,-4.7053,-4.7025,-4.6415,-4.6047,-4.6025,-4.4233,-4.3239,-4.3177,-4.1286,-4.0403,-4.0577,-4.1101,-4.1299,-4.1113,-4.0626,-3.9999,-3.9316,-3.9154,-3.9456,-4.0005,-3.9888,-4.0185,-4.0742,-4.0594,-4.0497,-4.0307,-3.9597,-3.9124,-3.8757,0.0,0.0,0.0,0.0,0.0,0.0,0.0,0.0,0.0,0.0,0.0,0.0,0.0,0.0,0.0,0.0,0.0,0.0,0.0,0.0,-1.3484,-1.3437,-1.3453,-1.3595,-1.3841,-1.4273,-1.4862,-1.5676,-1.6755,-1.7771,-1.8769,-1.9837,-2.0833,-2.1788,-2.2731,-2.4139,-2.5879,-2.7254,-2.8784,-3.0402,-3.1353,-3.1893,-3.2216,-3.2524,-3.2253,0.0,0.0,0.0,0.0,0.0,-3.2686,-3.3783,-3.4361,-3.5137,-3.588,-3.5949,-3.596,-3.6274,-3.7653,-3.8022,-3.8311,-3.9574,-3.9796,-3.9629,-3.9365,-3.9128,-3.902,-3.9114,-3.9599,-4.0207,-4.0741,-4.1898,-4.297,-4.3577,-4.4334,-4.4958,-4.5323,-4.5817,-4.6391,-4.6984,-4.7437,-4.8055,-4.9002,-4.8638,-4.8478,-4.8782,-4.7988,-4.7508,-4.751,-4.6638,-4.6115,-4.6104,-4.4295,-4.3298,-4.3239,-4.1397,-4.0509,-4.0577,-4.0555,-4.0608,-4.0727,-4.0242,-3.9649,-3.895,-3.8822,-3.8964,-3.925,-3.9152,-3.9456,-4.0005,-3.9859,-3.9748,-3.9582,-3.8857,-3.8386,-3.8079,0.0,0.0,0.0,0.0,0.0,0.0,0.0,0.0,0.0,0.0,0.0,0.0,0.0,0.0,0.0,0.0,0.0,0.0,0.0,0.0,0.0,-1.2316,-1.2316,-1.2365,-1.2511,-1.3123,-1.3838,-1.456,-1.5499,-1.6461,-1.7467,-1.8151,-1.8859,-1.9699,-2.0836,-2.237,-2.4194,-2.6251,-2.8184,-3.0046,-3.1686,-3.2325,-3.2319,-3.2754,0.0,0.0,0.0,0.0,-3.2431,-3.191,-3.2926,-3.439,-3.4439,-3.5064,-3.5801,-3.5852,-3.5869,-3.6075,-3.6955,-3.7125,-3.7242,-3.7915,-3.7964,-3.7798,-3.7528,-3.7312,-3.7325,-3.7891,-3.8021,-3.857,-4.0157,-4.0671,-4.1431,-4.3139,-4.363,-4.4097,-4.5065,-4.6108,-4.6857,-4.7036,-4.7878,-4.8831,-4.9763,-4.9923,-4.9656,-4.8919,0.0,-4.7578,-4.7567,-4.6709,-4.6177,-4.6115,-4.4356,-4.338,-4.331,-4.1503,-4.0814,-4.1239,-4.0355,-4.0193,-4.0703,-3.9802,-3.9298,-3.9101,-3.8979,-3.8822,-3.8676,-3.8496,-3.874,-3.926,-3.9085,-3.8977,-3.8832,-3.8625,-3.8033,-3.7321,0.0,0.0,0.0,0.0,0.0,0.0,0.0,0.0,0.0,0.0,0.0,0.0,0.0,0.0,0.0,0.0,0.0,0.0,0.0,0.0,0.0,0.0,0.0,0.0,0.0,0.0,0.0,0.0,0.0,-1.445,-1.5408,-1.5971,-1.6905,-1.7997,-1.8903,-2.0485,-2.2533,-2.3997,-2.6088,-2.8526,0.0,-3.0923,-3.2054,0.0,0.0,0.0,0.0,0.0,-3.2735,-3.2409,-3.3097,-3.4237,-3.4986,-3.5372,-3.559,-3.566,-3.5687,-3.5862,-3.6735,-3.69,-3.6957,-3.7704,-3.7663,-3.7376,-3.7062,-3.6782,-3.6604,-3.6611,-3.7118,-3.7747,-3.8266,-3.9547,-4.0894,-4.2042,-4.3001,-4.3899,-4.4834,-4.59,-4.6875,-4.7664,-4.8617,-4.9618,-5.0593,-5.0765,-5.047,-4.9676,-4.8899,-4.8467,-4.8476,-4.7079,-4.6249,-4.617,-4.4479,-4.349,-4.338,-4.1531,-4.0608,-4.0613,-4.0233,-4.0025,-3.9967,-3.962,-3.935,-3.9101,-3.9073,-3.8939,-3.8707,-3.8627,-3.8611,-3.8531,-3.8411,-3.8274,-3.8115,-3.799,-3.738,-3.6576,0.0,0.0,0.0,0.0,0.0,0.0,0.0,0.0,0.0,0.0,0.0,0.0,0.0,0.0,0.0,0.0,0.0,0.0,0.0,0.0,0.0,0.0,0.0,0.0,0.0,0.0,0.0,0.0,0.0,0.0,0.0,-1.4013,-1.4809,-1.5837,-1.6817,-1.8422,-2.0509,0.0,0.0,0.0,0.0,0.0,0.0,0.0,0.0,0.0,0.0,-3.2866,-3.311,-3.3041,-3.3601,-3.442,-3.5005,-3.522,-3.5283,-3.5361,-3.5387,-3.5483,-3.5978,-3.596,-3.5902,-3.6231,-3.608,-3.5758,-3.5416,-3.5165,-3.507,-3.526,-3.5697,-3.6304,-3.7156,-3.8239,-3.96,-4.1245,-4.2202,-4.3179,-4.4523,-4.5992,-4.7137,-4.7792,-4.9086,-5.0027,-5.0262,-5.0395,-5.0125,-4.9351,-4.895,-4.8595,-4.825,-4.6972,-4.6258,-4.6234,-4.4512,-4.3163,-4.2274,-4.1171,-4.0554,-4.0411,-4.0252,-4.0059,-3.9826,-3.967,-3.9271,-3.8749,0.0,-3.8285,-3.7819,-3.7665,-3.7516,-3.7361,-3.7134,-3.7003,-3.6888,-3.677,-3.6344,-3.5882,0.0,0.0,0.0,0.0,0.0,0.0,0.0,0.0,0.0,0.0,0.0,0.0,0.0,0.0,0.0,0.0,0.0,0.0,0.0,0.0,0.0,0.0,0.0,0.0,0.0,0.0,0.0,0.0,0.0,0.0,0.0,0.0,0.0,0.0,0.0,0.0,0.0,0.0,0.0,0.0,0.0,0.0,0.0,0.0,0.0,0.0,-3.2244,-3.2773,-3.3255,-3.3449,-3.3988,-3.4593,-3.4678,-3.4794,-3.4906,-3.4977,-3.4994,-3.4994,-3.4958,-3.4756,-3.4523,-3.4289,-3.4048,-3.3758,-3.3431,-3.3207,-3.3242,-3.3866,-3.41,-3.4648,-3.6194,-3.6903,-3.7997,-4.0423,-4.1285,-4.2238,-4.4018,-4.5938,-4.7258,-4.7453,-4.9048,-4.989,-4.9278,-4.9346,-4.9092,-4.8361,-4.8428,-4.8217,-4.7541,-4.6672,-4.6113,-4.5961,-4.4421,-4.2707,-4.0828,-4.0757,-4.0626,-4.0422,-4.0341,-4.0215,-4.0017,-3.9712,-3.91,-3.83,-3.794,0.0,-3.6697,-3.6399,-3.624,-3.6182,-3.5884,-3.5729,-3.5666,-3.5475,-3.5339,-3.5198,0.0,0.0,0.0,0.0,0.0,0.0,0.0,0.0,0.0,0.0,0.0,0.0,0.0,0.0,0.0,0.0,0.0,0.0,0.0,0.0,0.0,0.0,0.0,0.0,0.0,0.0,0.0,0.0,0.0,0.0,0.0,0.0,0.0,0.0,0.0,0.0,0.0,0.0,0.0,0.0,0.0,0.0,0.0,0.0,0.0,0.0,-3.1148,-3.1969,-3.2332,-3.2431,-3.3117,-3.3981,-3.4176,-3.4246,-3.4292,-3.4405,-3.4405,-3.4342,-3.4297,-3.403,-3.3725,-3.3551,-3.3205,-3.2862,-3.2645,-3.2468,-3.237,-3.2424,-3.3055,-3.3775,-3.4246,-3.5675,-3.725,-3.8601,-4.0189,-4.1687,-4.2925,-4.4767,-4.6108,-4.6347,-4.7453,-4.8206,-4.824,-4.8373,-4.8111,-4.7332,-4.7384,-4.7456,-4.7495,-4.6663,-4.5562,-4.4186,-4.3797,-4.2747,-4.0971,-4.0839,-4.0706,-4.0559,-4.0425,-4.0308,-4.0138,-3.9273,-3.8685,-3.8334,-3.7582,0.0,-3.6697,-3.6626,-3.6445,-3.6182,-3.6065,-3.5884,-3.5698,-3.554,-3.5047,-3.4393,0.0,0.0,0.0,0.0,0.0,0.0,0.0,0.0,0.0,0.0,0.0,0.0,0.0,0.0,0.0,0.0,0.0,0.0,0.0,0.0,0.0,0.0,0.0,0.0,0.0,-0.8664,-0.8807,-0.9009,0.0,-0.946,-0.9646,-0.9958,-1.0465,-1.1156,-1.2081,0.0,0.0,0.0,0.0,0.0,0.0,0.0,0.0,0.0,0.0,0.0,0.0,-3.0738,-3.1405,-3.1571,-3.2022,-3.2638,-3.3223,-3.3497,-3.3606,-3.3642,-3.3633,-3.3534,-3.346,-3.3169,-3.2852,-3.2652,-3.2311,-3.2004,-3.1771,-3.166,-3.1603,-3.1548,-3.2044,-3.2699,-3.3317,-3.4677,-3.6201,-3.7698,-3.9216,-4.0753,-4.2313,-4.3844,-4.5086,-4.5798,-4.6847,-4.7381,-4.715,-4.6876,-4.6395,-4.5648,-4.5302,-4.5398,-4.606,-4.5333,-4.4327,-4.3064,-4.2982,-4.2334,-4.1006,-4.0896,-4.0798,-4.0707,-4.014,-3.9791,-3.9582,-3.8594,-3.7809,-3.7227,-3.6678,0.0,-3.5595,-3.5454,-3.531,-3.5135,-3.4972,-3.4822,-3.4648,-3.4455,-3.3813,-3.3037,0.0,0.0,0.0,0.0,0.0,0.0,0.0,0.0,-2.3978,-2.2833,-2.1669,-2.0205,-1.8282,-1.6667,0.0,0.0,0.0,0.0,0.0,0.0,0.0,0.0,0.0,0.0,0.0,0.0,0.0,-0.8974,-0.8983,0.0,0.0,0.0,0.0,0.0,-1.1303,-1.2336,-1.3416,0.0,0.0,0.0,0.0,-2.0361,0.0,0.0,0.0,0.0,0.0,-2.9181,-3.0145,-3.0423,-3.0723,-3.1172,-3.1934,-3.2429,-3.2769,-3.2751,-3.2706,-3.261,-3.2477,-3.221,-3.1899,-3.1629,-3.1387,-3.1133,-3.0908,-3.0885,-3.0925,-3.0925,-3.1201,-3.1713,-3.2579,-3.3663,-3.5011,-3.6755,-3.8133,-3.9619,-4.1434,-4.2678,-4.3732,-4.473,-4.5612,-4.5975,-4.5466,-4.5004,-4.4518,-4.3997,-4.3297,-4.3395,-4.4462,-4.3986,-4.3283,-4.2421,-4.2397,-4.196,-4.1031,-4.094,-4.0781,-4.0533,-3.976,-3.9215,-3.8837,-3.7809,-3.6939,-3.6178,-3.5598,0.0,0.0,-3.3915,-3.3724,-3.3653,-3.3405,-3.3293,-3.3186,-3.2972,-3.2401,-3.1773,0.0,0.0,0.0,0.0,0.0,0.0,0.0,0.0,-2.4962,-2.3842,-2.2773,0.0,-2.0445,-1.8448,0.0,0.0,0.0,0.0,0.0,0.0,0.0,0.0,0.0,0.0,0.0,0.0,0.0,-0.9238,-0.9069,0.0,0.0,0.0,0.0,0.0,0.0,-1.1911,-1.2948,-1.4025,0.0,0.0,0.0,0.0,0.0,0.0,0.0,0.0,0.0,-2.729,-2.8227,-2.8533,-2.9211,-2.9886,-3.0084,-3.0847,-3.1664,-3.1702,-3.1593,-3.1425,-3.135,-3.1082,-3.0784,-3.051,-3.0318,-3.0208,-3.014,-3.0215,-3.03,-3.0351,-3.0625,-3.0982,-3.138,-3.2435,-3.3681,-3.5013,-3.6756,-3.8347,-3.9579,-4.0683,-4.1507,-4.1917,-4.2285,-4.2516,-4.2573,-4.2731,-4.2867,-4.2852,-4.2329,-4.2485,-4.3556,-4.3611,-4.3231,-4.2429,-4.2401,-4.1988,-4.1104,-4.1017,-4.0556,-3.9704,-3.9503,-3.893,-3.8075,-3.706,-3.6491,-3.6197,-3.4585,0.0,0.0,-3.2627,-3.22,-3.202,-3.1861,-3.1722,-3.1565,-3.132,-3.1174,-3.1046,0.0,0.0,0.0,0.0,0.0,0.0,0.0,0.0,-2.5304,-2.4853,-2.3842,-2.2743,-2.1744,-2.0243,0.0,0.0,0.0,0.0,0.0,0.0,0.0,0.0,0.0,0.0,0.0,0.0,-0.9421,-0.9728,-0.9588,0.0,0.0,0.0,0.0,0.0,0.0,-1.1926,-1.2658,-1.3752,0.0,0.0,0.0,0.0,0.0,0.0,0.0,0.0,0.0,0.0,-2.6535,-2.6822,-2.7217,-2.763,-2.7734,-2.8094,-2.8714,-3.0161,-3.0484,-3.0278,-3.0168,-2.9688,-2.915,-2.8914,-2.8506,-2.8142,-2.8131,-2.8613,-2.9108,-2.9248,-2.9913,-3.0584,-3.0925,-3.1986,-3.3049,-3.3771,-3.5544,-3.7202,-3.8379,-3.9467,-4.0459,-4.1237,-4.1611,-4.181,-4.1954,-4.1774,-4.1307,-4.0463,-4.0326,-4.0281,-4.0305,-4.1416,-4.1902,-4.162,-4.1611,-4.1191,-4.032,-4.0285,-3.9818,-3.8863,-3.8249,-3.7715,-3.7244,-3.6272,-3.5503,-3.4857,-3.4051,0.0,0.0,-3.2295,-3.2042,-3.1915,-3.1778,-3.1616,-3.1446,-3.1243,-3.0802,-3.0252,0.0,0.0,0.0,0.0,0.0,0.0,0.0,-2.5764,-2.5777,-2.5452,-2.4712,-2.38,-2.2832,-2.1777,-2.0455,-1.8773,0.0,0.0,0.0,0.0,0.0,0.0,0.0,0.0,0.0,0.0,-1.0132,-1.0421,-1.0288,-1.0225,0.0,0.0,-1.0618,-1.1115,0.0,0.0,0.0,0.0,0.0,0.0,0.0,0.0,0.0,0.0,0.0,0.0,0.0,0.0,0.0,0.0,0.0,-2.5757,-2.591,-2.5956,-2.6306,-2.8227,-2.869,-2.8558,-2.8455,-2.7973,-2.7462,-2.733,-2.6972,-2.6642,-2.6614,-2.7397,-2.8167,-2.8355,-2.9308,-3.0225,-3.0601,-3.1483,-3.2359,-3.2986,-3.4353,-3.5793,-3.722,-3.8128,-3.9052,-4.0217,-4.056,-4.0799,-4.0971,-4.0516,-3.9728,-3.8537,-3.8637,-3.858,-3.817,-3.9432,-4.021,-4.0296,-4.032,-4.0034,-3.9412,-3.9415,-3.8946,-3.8046,-3.735,-3.6833,-3.6443,-3.5489,-3.4688,-3.398,-3.3315,0.0,0.0,-3.16,-3.1391,-3.1293,-3.1163,-3.0987,-3.0825,-3.0638,-3.0122,-2.9497,0.0,0.0,0.0,0.0,0.0,0.0,0.0,0.0,-2.6443,-2.5501,-2.5403,-2.4955,-2.3803,-2.2907,-2.2011,-2.1028,0.0,0.0,0.0,0.0,0.0,0.0,0.0,0.0,0.0,0.0,0.0,-1.1483,-1.1365,-1.1178,-1.0982,-1.1178,-1.149,-1.1802,0.0,0.0,0.0,0.0,0.0,0.0,0.0,0.0,0.0,0.0,0.0,0.0,0.0,0.0,0.0,0.0,0.0,0.0,0.0,-2.4936,-2.5066,-2.5956,-2.6137,-2.6031,-2.6031,-2.5971,-2.5925,-2.5832,-2.5925,-2.6016,-2.6016,-2.6826,-2.7642,-2.7884,-2.8857,-2.9842,-3.0225,-3.0716,-3.145,-3.271,-3.3221,-3.411,-3.6025,-3.6505,-3.7052,-3.8201,-3.8515,-3.8743,-3.9007,-3.8665,-3.8146,-3.7468,-3.7584,0.0,-3.8003,-3.8138,-3.8277,-3.8416,-3.8483,-3.8525,-3.8511,-3.8515,-3.809,-3.7214,-3.7144,-3.662,-3.5679,-3.4743,-3.4225,-3.3993,0.0,0.0,0.0,-3.0272,-2.9846,-2.9702,-2.951,-2.9368,-2.9299,-2.9017,-2.8876,-2.8779,0.0,0.0,0.0,0.0,0.0,0.0,0.0,0.0,-2.5923,-2.6311,-2.5797,-2.5252,-2.4907,-2.3937,-2.3069,-2.2289,0.0,0.0,0.0,0.0,0.0,0.0,0.0,0.0,0.0,0.0,0.0,-1.2642,-1.252,-1.2282,-1.1864,-1.205,-1.2228,-1.2466,-1.2666,-1.3164,0.0,0.0,0.0,0.0,0.0,0.0,0.0,0.0,0.0,0.0,0.0,0.0,0.0,0.0,0.0,0.0,0.0,0.0,0.0,-2.3003,-2.4018,-2.5099,-2.5129,-2.4772,-2.4464,-2.4604,-2.431,-2.4104,-2.4327,-2.5121,-2.6043,-2.6936,-2.8037,-2.9173,-3.0074,-3.0551,-3.1002,-3.1679,-3.2504,-3.338,-3.427,-3.5031,-3.572,-3.6309,-3.6692,-3.6993,-3.7258,-3.731,-3.7028,-3.6365,-3.648,-3.6194,-3.5251,-3.5372,-3.6342,-3.826,-3.839,-3.817,-3.7621,-3.7655,-3.7221,-3.6297,-3.569,-3.521,-3.4844,-3.3916,-3.3114,0.0,0.0,0.0,0.0,-2.9466,-2.9011,-2.8798,-2.8091,-2.7735,-2.7577,-2.7451,-2.7299,-2.7128,0.0,0.0,0.0,0.0,0.0,0.0,0.0,0.0,-2.5745,-2.6164,-2.6064,-2.5794,-2.5458,-2.4878,-2.4199,-2.3417,0.0,0.0,0.0,0.0,0.0,0.0,0.0,0.0,0.0,0.0,0.0,0.0,0.0,-1.351,-1.3285,-1.3293,-1.3484,-1.3797,-1.3732,-1.4048,0.0,0.0,0.0,0.0,0.0,0.0,-1.8104,0.0,0.0,0.0,0.0,0.0,0.0,0.0,0.0,0.0,0.0,0.0,0.0,0.0,-2.2193,-2.328,-2.3518,-2.3393,-2.3187,-2.3389,-2.3254,-2.3083,-2.3334,-2.4177,-2.5211,-2.6313,-2.7441,-2.8594,-2.9756,-3.0274,-3.0651,-3.1021,-3.1764,-3.2541,-3.319,-3.388,-3.4606,-3.5285,-3.5693,-3.5889,-3.5864,-3.6028,-3.5771,-3.4801,-3.4932,-3.4548,-3.3394,-3.3527,-3.4443,-3.6212,-3.6375,-3.6201,-3.5724,-3.579,-3.5547,-3.4947,-3.441,-3.4099,-3.4012,-3.3081,-3.2309,0.0,0.0,0.0,0.0,-2.8635,-2.8171,-2.802,-2.7358,-2.6991,-2.6839,-2.6737,-2.6573,-2.6385,0.0,0.0,0.0,0.0,0.0,0.0,0.0,0.0,0.0,0.0,0.0,-2.641,-2.5682,-2.5664,0.0,0.0,0.0,0.0,0.0,0.0,0.0,0.0,0.0,0.0,0.0,0.0,0.0,-1.5255,-1.4991,-1.4911,-1.4994,0.0,-1.5043,-1.5542,-1.5178,-1.5244,0.0,0.0,0.0,0.0,0.0,0.0,0.0,0.0,0.0,0.0,0.0,0.0,0.0,0.0,0.0,0.0,0.0,0.0,0.0,0.0,0.0,0.0,0.0,-2.1949,-2.2184,-2.237,-2.2632,-2.2934,-2.3038,-2.3881,0.0,-2.5925,-2.6947,-2.8041,-2.9173,-2.9853,-3.0274,-3.0609,-3.0998,-3.1611,-3.2641,-3.2988,-3.358,-3.485,-3.5223,-3.5173,-3.4652,-3.4789,-3.436,-3.3003,-3.3082,-3.2917,-3.2313,-3.248,-3.2594,-3.2609,-3.2803,-3.3038,-3.3278,-3.3363,-3.3392,-3.3397,-3.3341,-3.3262,-3.3168,-3.219,-3.1651,0.0,0.0,0.0,0.0,-2.7804,-2.738,-2.7289,-2.7035,-2.6859,-2.6711,-2.6591,-2.6408,-2.622,0.0,0.0,0.0,0.0,0.0,0.0,0.0,0.0,0.0,0.0,0.0,0.0,0.0,0.0,0.0,0.0,0.0,0.0,0.0,0.0,0.0,0.0,0.0,0.0,0.0,0.0,0.0,-1.689,-1.6358,-1.6016,-1.5965,-1.5802,0.0,0.0,0.0,-1.6234,-1.6397,0.0,0.0,0.0,0.0,0.0,0.0,0.0,0.0,0.0,-1.784,-1.7884,0.0,0.0,0.0,0.0,0.0,0.0,0.0,0.0,-2.0422,-2.0709,-2.0944,0.0,-2.1793,-2.2184,-2.2463,-2.2737,0.0,-2.3393,-2.4059,-2.5075,-2.6087,-2.717,-2.8367,-2.9267,-2.993,-3.0309,-3.0675,-3.1026,-3.1611,-3.2061,-3.2493,-3.2931,-3.3219,-3.3158,-3.2642,-3.2819,-3.2637,-3.1857,-3.202,-3.1885,-3.1204,-3.137,-3.0934,-2.9808,-2.9925,-3.1023,-3.3193,-3.3298,-3.3347,-3.3394,-3.2714,-3.238,-3.2255,-3.071,-2.9928,0.0,0.0,0.0,-2.7898,-2.7026,-2.6564,-2.634,-2.5565,-2.5174,-2.5038,-2.4912,-2.4799,-2.4701,0.0,0.0,0.0,0.0,0.0,0.0,0.0,0.0,0.0,0.0,0.0,0.0,0.0,0.0,0.0,0.0,0.0,0.0,0.0,0.0,0.0,0.0,0.0,0.0,0.0,0.0,0.0,0.0,0.0,-1.7334,0.0,0.0,0.0,0.0,-1.7561,-1.7257,-1.7113,-1.7056,-1.7134,-1.7357,-1.7634,0.0,0.0,0.0,0.0,0.0,-1.7308,-1.7216,0.0,-1.7975,-1.8307,-1.8594,0.0,0.0,0.0,0.0,-2.0169,-2.0472,-2.0759,-2.1202,-2.1664,-2.1949,-2.2324,-2.2646,-2.2754,-2.3127,-2.3688,-2.4671,-2.5635,-2.6669,-2.779,-2.8844,-2.9621,-2.9957,-3.0274,-3.0593,-3.1004,-3.1196,-3.1373,-3.1516,-3.1424,-3.1317,-3.1183,-3.1355,-3.1247,-3.0644,-3.0864,-3.0557,-2.9522,-2.9664,-2.9261,-2.8154,-2.8248,-2.9102,-3.0754,-3.0879,-3.0949,-3.1016,-3.0546,-3.0286,-3.0221,-2.9279,-2.8819,0.0,0.0,0.0,-2.6499,-2.5191,-2.4556,-2.435,-2.3804,-2.3521,-2.338,-2.3264,-2.3142,-2.3107,0.0,0.0,0.0,0.0,0.0,0.0,0.0,0.0,0.0,0.0,0.0,0.0,0.0,0.0,0.0,0.0,0.0,0.0,0.0,0.0,0.0,0.0,0.0,0.0,-2.0549,-2.0358,0.0,0.0,0.0,0.0,0.0,0.0,-1.9054,0.0,-1.8927,-1.8349,-1.8054,-1.7767,-1.77,-1.7877,-1.8096,0.0,0.0,0.0,0.0,0.0,0.0,0.0,0.0,-1.7517,-1.787,-1.8193,-1.8806,0.0,0.0,0.0,0.0,0.0,-2.0709,-2.1153,-2.1616,-2.1746,-2.2184,-2.2629,-2.2793,-2.3139,-2.3703,-2.4597,-2.5591,-2.6551,-2.7411,-2.8465,-2.9305,-2.9592,-2.993,-3.0267,-3.0533,-3.0408,-3.0321,-3.0312,-2.9989,-2.9804,-3.0,-3.0041,-2.9826,-2.9296,-2.9403,-2.8929,-2.773,-2.7863,-2.7698,-2.7078,-2.7191,-2.7344,-2.747,-2.7869,-2.8129,-2.8181,-2.8195,-2.8202,-2.8196,-2.7916,-2.7776,-2.7625,0.0,0.0,-2.4793,-2.3244,-2.2544,-2.24,-2.2337,-2.222,-2.2092,-2.1962,-2.1849,-2.1859,0.0,0.0,0.0,0.0,0.0,0.0,0.0,0.0,0.0,0.0,0.0,0.0,0.0,0.0,0.0,0.0,0.0,0.0,0.0,0.0,0.0,0.0,0.0,-2.3098,-2.2505,-2.181,-2.1183,-2.0733,-1.9927,0.0,-1.9495,-1.9576,-1.9867,-2.0398,-1.9605,-1.9242,-1.9107,-1.8462,-1.829,-1.8452,-1.8625,0.0,0.0,0.0,0.0,0.0,0.0,0.0,0.0,-1.6991,-1.7373,-1.7712,-1.8686,0.0,0.0,0.0,0.0,0.0,-2.0709,-2.1104,-2.1471,-2.1746,-2.2184,-2.2744,-2.3273,-2.3685,-2.4214,-2.5129,-2.5974,-2.6723,-2.7318,-2.8093,-2.8764,-2.9289,-2.9842,-3.0061,-2.96,-2.9755,-2.9703,-2.9124,-2.9244,-2.9214,-2.8821,-2.8347,-2.7853,-2.738,-2.6896,-2.6602,-2.6567,-2.6786,-2.6635,-2.5984,-2.6132,-2.5987,-2.5461,-2.7142,-2.8041,-2.8116,-2.8176,-2.8202,-2.8154,-2.6666,-2.5994,-2.5879,0.0,-2.3257,-2.3155,-2.2825,-2.2609,-2.2471,-2.2357,-2.2252,-2.2173,-2.2024,-2.198,-2.2043,0.0,0.0,0.0,0.0,0.0,0.0,0.0,0.0,0.0,0.0,0.0,0.0,0.0,0.0,0.0,0.0,0.0,0.0,0.0,0.0,0.0,0.0,-2.4216,-2.3685,-2.311,-2.244,-2.1977,-2.1799,-2.1051,-2.0642,-2.0536,-2.086,-2.1057,-2.1193,-2.0559,-2.0274,-2.0203,-1.9269,-1.8987,-1.9146,0.0,0.0,0.0,0.0,0.0,0.0,0.0,0.0,0.0,0.0,-1.7171,-1.7642,-1.844,0.0,0.0,0.0,0.0,0.0,-2.0759,-2.1153,-2.1568,-2.1746,-2.2376,-2.3046,-2.3331,-2.3961,-2.4582,-2.5003,-2.5849,-2.6602,-2.6892,-2.7712,-2.8542,-2.9121,-2.9576,-2.9626,-2.9023,-2.8885,-2.8611,-2.7961,-2.7464,-2.708,-2.6952,-2.645,-2.6069,-2.5928,-2.5791,-2.5604,-2.5344,-2.5556,-2.5408,-2.48,-2.4964,-2.5011,-2.4888,-2.5918,-2.6522,-2.6707,-2.6763,-2.6571,-2.6112,-2.5315,-2.4697,-2.4175,0.0,-2.2204,-2.2118,-2.1617,-2.1311,-2.1195,-2.11,-2.1015,-2.0935,-2.0807,-2.0986,-2.1337,0.0,0.0,0.0,0.0,0.0,0.0,0.0,0.0,0.0,0.0,0.0,0.0,0.0,0.0,0.0,0.0,0.0,0.0,0.0,0.0,-2.5262,-2.4711,-2.4394,-2.3918,-2.3365,-2.2751,-2.2512,-2.2628,-2.1953,-2.1622,-2.1588,-2.1856,-2.1958,-2.1898,-2.1294,-2.1058,-2.0996,-2.0026,-1.9668,-1.9811,0.0,0.0,0.0,0.0,0.0,0.0,0.0,0.0,0.0,0.0,0.0,0.0,0.0,0.0,0.0,-1.9901,-2.0258,-2.066,-2.0858,-2.1215,-2.1616,-2.1698,-2.2538,-2.3334,-2.349,-2.4247,-2.5011,-2.5141,-2.5892,-2.6544,-2.6728,-2.7527,-2.8317,-2.8873,-2.9152,-2.9077,-2.8372,-2.8029,-2.7548,-2.6765,-2.5787,-2.523,-2.5428,-2.487,-2.4533,-2.4689,-2.4791,-2.4629,-2.4155,-2.4337,-2.419,-2.3666,-2.3823,-2.4033,-2.4181,-2.436,-2.4697,-2.5163,-2.526,-2.4876,-2.4081,-2.3881,-2.3427,-2.273,-2.1818,-2.139,-2.1293,-2.0618,-2.025,-2.015,-2.0069,-1.999,-1.9896,-1.9788,-2.0052,-2.0478,0.0,0.0,0.0,0.0,0.0,0.0,0.0,0.0,0.0,0.0,0.0,0.0,0.0,0.0,0.0,0.0,0.0,0.0,0.0,0.0,-2.5631,-2.473,-2.438,-2.3973,-2.35,-2.2889,-2.2716,-2.3046,-2.2399,-2.2183,-2.241,-2.2129,-2.2115,-2.2294,-2.1521,-2.117,-2.1131,-2.0579,-2.0321,-2.0372,-2.0459,0.0,0.0,0.0,0.0,0.0,0.0,0.0,0.0,0.0,0.0,0.0,0.0,0.0,-2.0029,-2.0271,-2.0459,-2.066,-2.1082,-2.1277,-2.1471,-2.1568,-2.2442,-2.3447,-2.412,-2.4832,-2.5549,-2.6265,-2.6596,-2.6864,-2.7108,-2.7645,-2.8155,-2.8479,-2.8669,-2.8403,-2.7418,-2.7348,-2.6887,-2.5657,-2.5114,-2.4888,-2.4942,-2.3912,-2.3308,-2.3515,-2.3072,-2.2876,-2.3014,-2.327,-2.3155,-2.2623,-2.2809,-2.2718,-2.2301,-2.2495,-2.3127,-2.4204,-2.4325,-2.3975,-2.3173,-2.2363,-2.1944,-2.1832,-2.0974,-2.0574,-2.0579,-2.0443,-2.0347,-2.028,-2.0214,-2.0069,-1.9896,-1.9877,-1.9832,-1.9862,0.0,0.0,0.0,0.0,0.0,0.0,0.0,0.0,0.0,0.0,0.0,0.0,0.0,0.0,0.0,0.0,0.0,0.0,0.0,0.0,-2.489,-2.4395,-2.4107,-2.3833,-2.3554,-2.3137,-2.3027,-2.3206,-2.279,-2.2477,-2.2257,-2.2729,-2.2908,-2.2779,-2.2359,-2.2177,-2.2076,-2.152,-2.1251,-2.1264,-2.1313,-2.1035,0.0,0.0,0.0,0.0,0.0,0.0,0.0,0.0,-1.773,-1.83,0.0,-1.9403,-2.008,-2.0505,-2.0858,-2.1118,-2.1277,-2.1471,-2.1664,-2.1712,-2.2637,-2.3579,-2.3817,-2.4773,-2.5666,-2.5946,-2.6218,-2.65,-2.7011,-2.7321,-2.766,-2.8091,-2.8253,-2.7873,-2.6787,-2.6804,-2.6414,-2.5068,-2.4217,-2.3764,-2.3783,-2.272,-2.2134,-2.2332,-2.224,-2.2067,-2.1859,-2.2054,-2.1972,-2.153,-2.174,-2.1881,-2.1911,-2.2192,-2.2327,-2.2373,-2.3121,-2.3077,-2.2272,-2.1952,-2.1522,-2.1024,-2.0662,-2.0494,-2.0503,-2.048,-2.0424,-2.0349,-2.0241,-2.0122,-2.0022,-2.002,-1.9947,-1.9929,0.0,0.0,0.0,0.0,0.0,0.0,0.0,0.0,0.0,0.0,0.0,0.0,0.0,0.0,0.0,0.0,0.0,0.0,0.0,0.0,-2.454,-2.4373,-2.4118,-2.3926,-2.3803,-2.3249,-2.3102,-2.3406,-2.3195,-2.2948,-2.2697,-2.32,-2.3373,-2.3267,-2.3032,-2.2918,-2.2836,-2.2353,-2.217,-2.2156,-2.1853,-2.1485,0.0,0.0,0.0,0.0,0.0,0.0,0.0,0.0,-1.8028,0.0,0.0,0.0,0.0,-2.0615,-2.0981,-2.1227,-2.1465,-2.1616,-2.1746,-2.1746,-2.2569,-2.3409,-2.3409,-2.4583,-2.5633,-2.5633,-2.5798,-2.6165,-2.6683,-2.6841,-2.71,-2.766,-2.7775,-2.7357,-2.6291,-2.6334,-2.5957,-2.4581,-2.3512,-2.2916,-2.2952,-2.1712,-2.0969,-2.1152,-2.1101,-2.0938,-2.0709,-2.0901,-2.0791,-2.0394,-2.0634,-2.0842,-2.0906,-2.125,-2.1249,-2.09,-2.1717,-2.1867,-2.1384,-2.14,-2.1113,-2.0604,-2.054,-2.0518,-2.0498,-2.0506,-2.0461,-2.0422,-2.0313,-2.0229,-2.0188,-2.0159,-2.0269,-2.0478,0.0,0.0,0.0,0.0,0.0,0.0,0.0,0.0,0.0,0.0,0.0,0.0,0.0,0.0,0.0,0.0,0.0,0.0,0.0,-2.4974,-2.485,-2.4712,-2.4519,-2.4351,-2.421,-2.3216,-2.299,-2.3567,-2.3551,-2.3619,-2.3872,-2.3499,-2.3513,-2.3864,-2.342,-2.3201,-2.3201,-2.2995,-2.2875,-2.2817,-2.2003,-2.17,-2.1557,0.0,0.0,0.0,0.0,0.0,0.0,0.0,-1.8575,-1.8877,0.0,0.0,0.0,-2.0489,-2.0712,-2.0849,-2.158,-2.1698,-2.1616,-2.1616,-2.2282,-2.2977,-2.2977,-2.4286,-2.5494,-2.5494,-2.5592,-2.5825,-2.6244,-2.6283,-2.651,-2.7063,-2.7181,-2.6876,-2.5903,-2.5847,-2.5455,-2.4231,-2.3071,-2.2421,-2.258,-2.0899,-1.9845,-1.9999,-1.9486,-1.9306,-1.9557,-1.977,-1.9672,-1.9207,-1.9524,-1.9461,-1.8998,-1.9328,-1.967,-2.0001,-2.0137,-2.0307,-2.05,-2.0572,-2.0601,-2.0605,-2.0605,-2.0566,-2.0508,-2.0506,-2.0492,-2.0497,-2.0437,-2.0405,-2.0388,-2.0347,-2.0819,-2.1493,0.0,0.0,0.0,0.0,0.0,0.0,0.0,0.0,0.0,0.0,0.0,0.0,0.0,0.0,0.0,0.0,0.0,0.0,0.0,-2.5186,-2.5057,-2.4986,-2.4883,-2.4771,-2.4625,-2.3537,-2.2783,-2.2401,-2.3181,-2.3486,-2.3357,-2.3414,-2.3363,-2.3183,-2.284,-2.2677,-2.255,-2.239,-2.2335,-2.232,-2.2019,-2.1595,-2.1093,0.0,0.0,0.0,0.0,0.0,0.0,0.0,0.0,0.0,0.0,0.0,0.0,-2.0255,-2.0698,-2.1119,-2.13,-2.1569,-2.1746,-2.1746,-2.2383,-2.2977,-2.2977,-2.3944,-2.4905,-2.4962,-2.5061,-2.516,-2.5577,-2.5673,-2.5851,-2.6326,-2.6525,-2.6182,-2.5107,-2.5125,-2.465,-2.3003,-2.2239,-2.1728,-2.1491,-2.0162,-1.9401,-1.9625,-1.9134,-1.8735,-1.8486,-1.8667,-1.8577,-1.8155,-1.8414,-1.8641,-1.8789,-1.9125,-1.9462,-1.979,-2.0021,-2.0263,-2.0499,-2.0528,-2.0525,-2.0536,-2.0536,-2.0516,-2.0494,-2.0504,-2.0508,-2.0503,-2.0471,-2.047,-2.0535,-2.1074,-2.1449,-2.1804,0.0,0.0,0.0,0.0,0.0,0.0,0.0,0.0,0.0,0.0,0.0,0.0,0.0,0.0,0.0,0.0,0.0,0.0,0.0,0.0,-2.5293,-2.5215,-2.5149,-2.4739,-2.3891,-2.3468,-2.2659,-2.1472,-2.2547,-2.305,-2.2977,-2.3368,-2.3489,-2.3385,-2.3125,-2.2929,-2.2817,-2.2656,-2.2582,-2.2551,-2.2154,-2.1724,-2.1286,0.0,0.0,0.0,0.0,0.0,0.0,0.0,0.0,0.0,0.0,0.0,-1.9495,-2.0003,-2.0585,-2.108,-2.1245,-2.1569,-2.1841,-2.1793,-2.2383,-2.2991,-2.3307,-2.393,-2.4492,-2.4549,-2.4549,-2.465,-2.4964,-2.5063,-2.5189,-2.566,-2.5614,-2.5254,-2.4404,-2.4261,-2.3692,-2.2164,-2.1547,-2.1104,-2.0661,-1.9311,-1.8531,-1.8774,-1.8068,-1.7543,-1.7341,-1.7524,-1.7582,-1.7479,-1.7766,-1.8128,-1.8489,-1.8859,-1.9216,-1.9548,-1.9801,-2.0065,-2.0301,-2.0413,-2.0451,-2.0464,-2.0458,-2.0455,-2.0455,-2.0453,-2.0469,-2.046,-2.0487,-2.0507,-2.0596,-2.1427,-2.1954,-2.245,0.0,0.0,0.0,0.0,0.0,0.0,0.0,0.0,0.0,0.0,0.0,0.0,0.0,0.0,0.0,0.0,0.0,0.0,0.0,0.0,-2.5478,-2.5412,-2.5351,-2.4465,-2.2672,-2.3158,-2.258,-2.0844,-2.177,-2.2447,-2.2783,-2.3265,-2.3687,-2.4068,-2.3751,-2.3556,-2.3473,-2.3271,-2.3187,-2.3139,-2.2308,-2.1984,-2.1871,-2.1084,0.0,0.0,0.0,0.0,0.0,0.0,0.0,0.0,-1.9523,-1.9398,-1.9338,-1.9734,-2.0316,-2.0838,-2.1224,-2.1636,-2.188,-2.1827,-2.2241,-2.2869,-2.3534,-2.3871,-2.4032,-2.3981,-2.3942,-2.3974,-2.4249,-2.4249,-2.442,-2.4885,-2.4559,-2.4092,-2.3668,-2.3195,-2.2502,-2.1462,-2.0927,-2.0421,-1.9904,-1.8337,-1.739,-1.7575,-1.6578,-1.6052,-1.6246,-1.6463,-1.668,-1.6954,-1.7339,-1.7686,-1.7959,-1.8426,-1.8819,-1.9169,-1.9505,-1.9775,-1.9974,-2.0244,-2.0391,-2.0376,-2.0376,-2.0371,-2.0386,-2.0376,-2.0394,-2.0398,-2.045,-2.0488,-2.0596,-2.1462,-2.2285,-2.3099,0.0,0.0,0.0,0.0,0.0,0.0,0.0,0.0,0.0,0.0,0.0,0.0,0.0,0.0,0.0,0.0,0.0,0.0,0.0,0.0,-2.5561,-2.557,-2.5441,-2.483,-2.3707,-2.3108,-2.2236,-2.1121,-2.1586,-2.2096,-2.2638,-2.2553,-2.2768,-2.3259,-2.2966,-2.2773,-2.2649,-2.2434,-2.2345,-2.2345,-2.2046,-2.1906,-2.1749,-2.0891,-2.0464,0.0,0.0,0.0,0.0,0.0,0.0,0.0,-2.003,-1.9904,-1.9807,-1.9701,-1.9962,-2.0407,-2.0811,-2.1107,-2.1379,-2.1744,-2.1866,-2.1983,-2.2129,-2.2115,-2.2242,-2.2815,-2.2559,-2.2364,-2.2519,-2.2519,-2.263,-2.2946,-2.3003,-2.2764,-2.223,-2.1793,-2.1165,-2.0106,-1.9567,-1.8934,-1.8205,-1.737,-1.678,-1.6617,-1.5994,-1.5726,-1.597,-1.6194,-1.6202,-1.6006,-1.6287,-1.6348,-1.6155,-1.7072,-1.7702,0.0,-1.8967,-1.9484,-1.9698,-2.0065,-2.0236,-2.023,-2.0248,-2.0241,-2.0248,-2.0243,-2.0276,-2.0313,-2.0346,-2.0381,-2.0535,-2.1396,-2.1845,-2.2209,0.0,0.0,0.0,0.0,0.0,0.0,0.0,0.0,0.0,0.0,0.0,0.0,0.0,0.0,0.0,0.0,0.0,0.0,0.0,0.0,0.0,0.0,-2.5493,-2.5027,-2.4124,-2.3582,-2.2642,-2.1306,-2.1411,-2.1535,-2.1696,-2.1802,-2.1956,-2.2131,-2.1926,-2.1736,-2.1581,-2.1438,-2.1353,-2.1335,-2.1187,-2.1107,-2.1036,-2.0515,-2.0445,-2.0631,-2.0545,0.0,0.0,0.0,0.0,0.0,0.0,0.0,-2.015,-1.9848,-2.0109,-2.0519,-2.0843,-2.1155,-2.1465,-2.1821,-2.1773,-2.1603,-2.1674,-2.1267,-2.0958,-2.1188,-2.135,-2.1518,-2.1648,-2.1648,-2.1759,-2.1979,-2.1856,-2.1535,-2.1017,-2.0471,-1.9834,-1.8919,-1.8595,-1.811,-1.7246,-1.6674,-1.6243,-1.5929,-1.5478,-1.5329,-1.561,-1.5527,-1.5496,-1.5462,-1.5415,-1.5364,-1.5308,-1.6035,-1.6722,-1.7383,-1.8085,-1.8773,-1.9374,-1.9812,-2.0012,-2.0012,-2.0022,-2.0031,-2.0069,-2.005,-2.0095,-2.0164,-2.0158,-2.021,-2.0354,-2.1229,-2.1549,-2.1731,0.0,0.0,0.0,0.0,0.0,0.0,0.0,0.0,0.0,0.0,0.0,0.0,0.0,0.0,0.0,0.0,0.0,0.0,0.0,0.0,0.0,0.0,-2.5551,-2.5169,-2.4464,0.0,0.0,-2.1637,-2.1384,-2.101,-2.0563,-2.1106,-2.1316,-2.1269,-2.1146,-2.098,-2.0807,-2.0705,-2.065,-2.0576,-2.0448,-2.0463,-2.056,-2.0294,-2.0552,-2.108,-2.1009,-2.1188,-2.1469,-2.1401,0.0,0.0,0.0,0.0,-2.041,-2.0166,-2.0328,-2.0639,-2.087,-2.1225,-2.1583,-2.1884,-2.165,-2.1368,-2.1352,-2.0665,-1.9976,-1.9703,-2.0176,-2.0716,-2.0847,-2.0847,-2.0933,-2.1011,-2.0611,-2.0122,-1.9724,-1.9144,-1.8497,-1.7811,-1.7661,-1.73,-1.648,-1.5995,-1.5586,-1.5263,-1.4966,-1.4935,-1.5178,-1.4832,-1.4695,-1.4908,-1.4522,-1.4403,-1.4534,-1.4981,-1.5716,-1.6706,-1.7325,-1.8092,-1.8959,-1.9379,-1.9607,-1.9698,-1.9712,-1.9762,-1.9804,-1.9809,-1.9855,-1.9901,-1.9924,-1.9964,-2.0107,-2.0842,-2.1116,-2.1227,0.0,0.0,0.0,0.0,0.0,0.0,0.0,0.0,0.0,0.0,0.0,0.0,0.0,0.0,0.0,0.0,0.0,0.0,-2.6969,0.0,0.0,-2.5683,-2.5613,-2.5532,-2.5413,0.0,0.0,-2.2615,-2.177,-2.0899,-2.0021,-2.0564,-2.1097,-2.1625,-2.1497,-2.1344,-2.1205,-2.1102,-2.098,-2.0915,-2.0785,-2.112,-2.1598,-2.0842,-2.0901,-2.1422,-2.1292,-2.113,-2.1078,-2.1582,-2.157,0.0,0.0,0.0,-2.0679,-2.041,-2.0227,-2.0135,-2.0365,-2.0783,-2.1195,-2.1286,-2.104,-2.0602,-2.0167,-1.9661,-1.9243,-1.9,-1.9018,-1.912,-1.9108,-1.9108,-1.9018,-1.8694,-1.8561,-1.8382,-1.7885,-1.7398,-1.6995,-1.6941,-1.625,-1.5599,-1.5261,-1.4909,-1.4572,-1.4226,-1.4378,-1.4543,-1.4777,-1.4456,-1.4092,-1.3723,-1.3392,-1.3049,-1.2747,-1.361,-1.4529,-1.5543,-1.7274,-1.8171,-1.8323,-1.8516,-1.8839,-1.9287,-1.9335,-1.9382,-1.9382,-1.9509,-1.9564,-1.958,-1.9632,-1.9663,-1.9681,-1.9861,-1.9922,-2.0047,0.0,0.0,0.0,0.0,0.0,0.0,0.0,0.0,0.0,0.0,0.0,0.0,0.0,0.0,0.0,-3.0094,-2.889,-2.7585,-2.6266,-2.5886,-2.5702,-2.5702,-2.567,-2.5645,-2.5601,-2.5206,-2.4529,-2.3584,-2.3122,-2.2181,-2.0747,-2.0937,-2.0843,-2.0465,-2.0372,-2.0275,-2.0173,-2.0065,-2.0263,-2.0583,-2.0448,-2.0868,-2.1519,-2.0996,-2.119,-2.1711,-2.1574,-2.1643,-2.182,-2.1927,-2.1853,-2.1661,-2.1481,0.0,0.0,0.0,-2.0478,-2.0309,-2.0676,-2.1011,-2.129,-2.1322,-2.097,-2.0459,-1.9901,-1.9448,-1.8955,-1.8353,-1.8043,-1.7938,-1.8072,-1.7838,-1.7568,-1.7396,-1.7349,-1.7173,-1.6692,-1.6374,-1.6067,-1.5623,-1.5234,-1.4788,-1.4261,-1.415,-1.3989,-1.3754,-1.3927,-1.4157,-1.4356,-1.372,-1.3332,-1.3289,-1.255,-1.2155,-1.2179,-1.2706,-1.3661,-1.508,-1.6397,-1.7271,-1.7687,-1.7793,-1.8183,-1.8824,-1.8841,-1.8893,-1.8977,-1.9028,-1.9093,-1.917,-1.9201,-1.9231,-1.9261,-1.931,-1.931,-1.9346,0.0,0.0,0.0,0.0,0.0,0.0,0.0,0.0,0.0,0.0,0.0,0.0,0.0,0.0,0.0,0.0,-2.9085,-2.7679,-2.6041,-2.5762,-2.5687,-2.5699,-2.5703,-2.5676,-2.5625,-2.5632,-2.5162,-2.4236,-2.4166,-2.3319,-2.1756,-2.1474,-2.0861,-1.995,-1.9643,-1.9442,-1.936,-1.9531,-1.9906,-2.0388,-2.0481,-2.0987,-2.167,-2.147,-2.1781,-2.2312,-2.2324,-2.2574,-2.2832,-2.279,-2.2668,-2.2462,-2.2115,-2.182,0.0,0.0,0.0,-2.043,-2.0809,-2.1067,-2.1217,-2.1233,-2.0948,-2.051,-1.9952,-1.9285,-1.8674,-1.7918,-1.7289,-1.686,-1.703,-1.6823,-1.6566,-1.644,-1.6367,-1.6147,-1.5645,-1.5462,-1.5154,-1.4485,-1.4301,-1.3999,-1.3502,-1.3447,-1.3421,-1.3348,-1.3573,-1.3762,-1.3934,-1.3236,-1.2829,-1.2898,-1.2046,-1.168,-1.182,-1.2249,-1.3157,-1.4491,-1.5466,-1.6256,-1.6849,-1.7093,-1.7499,-1.8059,-1.8238,-1.8378,-1.8476,-1.8514,-1.8608,-1.8699,-1.8538,-1.8484,-1.8519,-1.8338,-1.8266,-1.8266,0.0,0.0,0.0,0.0,0.0,0.0,0.0,0.0,0.0,0.0,0.0,0.0,-3.0218,-3.0273,-3.0002,-2.925,-2.9158,-2.8496,-2.692,-2.6052,-2.5636,-2.5701,-2.5699,0.0,-2.5683,-2.5689,-2.5236,-2.4284,-2.4238,-2.3683,-2.2713,-2.1878,-2.1387,-2.1155,-2.0224,-1.9681,-1.9541,-2.0377,-2.0674,-2.0659,-2.1415,-2.2118,-2.27,-2.2562,-2.2883,-2.3476,-2.3897,-2.3981,-2.3922,-2.4464,-2.4496,-2.4132,-2.3365,-2.2886,-2.2457,0.0,0.0,0.0,-2.0444,-2.0607,-2.0642,-2.0694,-2.0737,-2.061,-1.9952,-1.9092,-1.8319,-1.7899,-1.6723,-1.5717,-1.5609,-1.6018,-1.6165,-1.5643,-1.5467,-1.5193,-1.4727,-1.4238,-1.3905,-1.3861,-1.3215,-1.2876,-1.3012,-1.2743,-1.2686,-1.2896,-1.3254,-1.3459,-1.3514,-1.3237,-1.2857,-1.2354,-1.2032,-1.1703,-1.133,-1.2426,-1.3068,-1.331,-1.4821,-1.5555,-1.5618,-1.6307,-1.6712,-1.6834,-1.7539,-1.7832,-1.7859,-1.8052,-1.8153,-1.8162,-1.753,-1.7288,-1.7219,-1.6519,-1.6255,-1.6238,0.0,0.0,0.0,0.0,0.0,0.0,0.0,0.0,0.0,0.0,0.0,0.0,0.0,-3.0213,-3.0132,-2.9889,-2.9462,-2.8753,-2.7683,-2.7356,-2.7223,-2.7303,-2.6776,-2.6464,-2.6474,-2.5957,-2.5542,-2.5199,-2.5132,-2.4642,-2.3731,-2.2837,-2.2079,-2.1443,-2.0412,-1.9862,-1.9806,-2.0646,-2.1236,-2.1678,-2.2458,-2.3191,-2.3805,-2.3635,-2.3946,-2.4455,-2.4468,-2.4696,-2.505,-2.5066,-2.4925,-2.4714,-2.4351,-2.3658,-2.2803,-2.1645,-2.0877,-2.0481,-2.0706,-2.0828,-2.0939,-2.0924,-2.0975,-2.0766,-1.9759,-1.9046,-1.8251,-1.7231,-1.6407,-1.5667,-1.5197,-1.5099,-1.4975,-1.4693,-1.4624,-1.4414,-1.3855,-1.3583,-1.3292,-1.2759,-1.2498,-1.2363,-1.2301,-1.2253,-1.2401,-1.2733,0.0,-1.3082,-1.3232,-1.2955,-1.2563,-1.2108,-1.175,-1.1507,-1.1307,-1.1792,-1.2321,-1.2894,-1.348,-1.4231,-1.506,-1.5369,-1.5749,-1.6191,-1.6565,-1.6944,-1.7358,-1.7469,-1.7602,-1.7625,-1.6948,-1.6703,-1.6601,-1.5911,-1.5641,-1.5641,0.0,0.0,0.0,0.0,0.0,0.0,0.0,0.0,0.0,0.0,0.0,0.0,0.0,0.0,-3.103,-3.1109,-3.0163,-2.9349,-2.8849,-2.8313,-2.807,-2.8171,-2.7609,-2.7307,-2.7332,-2.6525,-2.6091,-2.6094,-2.5793,-2.5322,-2.4705,-2.3523,-2.2643,-2.201,-2.0708,-2.0068,-2.0038,-2.1134,-2.1859,-2.2354,-2.3397,-2.411,-2.45,-2.4598,-2.4849,-2.5215,-2.5515,-2.5864,-2.6205,-2.6169,-2.6033,-2.5796,-2.5436,-2.4381,-2.3096,-2.211,-2.1344,-2.0791,-2.0762,-2.0858,-2.0933,-2.0656,-2.0698,-2.0577,-1.9564,-1.8808,-1.8039,-1.6983,-1.6277,-1.5672,-1.512,-1.4789,-1.4501,-1.4316,-1.4046,-1.375,-1.335,-1.2987,-1.2595,-1.2098,-1.1962,-1.1927,-1.1881,-1.1968,-1.2186,-1.2556,0.0,0.0,-1.299,-1.2881,-1.2564,-1.2033,-1.1428,-1.1112,-1.1169,-1.1347,-1.1724,-1.2287,-1.2579,-1.3168,-1.4046,-1.4519,-1.4994,-1.5399,-1.5722,-1.6215,-1.685,-1.6901,-1.6897,-1.675,-1.6069,-1.5687,-1.5418,-1.4734,-1.449,-1.449,0.0,0.0,0.0,0.0,0.0,0.0,0.0,0.0,0.0,-3.2083,0.0,0.0,0.0,0.0,0.0,-3.2679,-3.1268,-3.0394,-3.0475,-2.8917,-2.8076,-2.8191,-2.817,-2.8152,-2.8223,-2.7383,-2.6925,0.0,0.0,0.0,-2.5564,-2.3915,-2.3092,-2.2935,-2.1206,-2.0326,-2.0216,-2.1905,-2.2528,-2.2557,-2.4244,-2.4846,-2.482,-2.5476,-2.5653,-2.5761,-2.7112,-2.7447,-2.7327,-2.7843,-2.7847,-2.7477,-2.6667,-2.5062,-2.341,-2.3045,-2.2161,-2.1183,0.0,0.0,0.0,-2.002,-2.0005,-1.9984,-1.9324,-1.8516,-1.7701,-1.7197,-1.6418,-1.5712,-1.539,-1.5108,-1.4812,-1.4444,-1.3788,-1.3297,-1.3265,-1.2383,-1.1752,-1.1871,-1.1615,-1.1496,-1.1782,-1.1859,-1.2029,0.0,-1.2591,-1.2709,-1.2803,-1.3022,-1.2779,-1.1991,-1.1018,-1.0621,-1.0897,-1.1155,-1.1353,-1.1504,-1.2156,-1.2472,-1.2546,-1.3785,-1.4368,-1.4427,-1.5096,-1.5725,-1.6274,-1.6355,-1.6093,-1.5607,-1.4876,-1.4221,-1.3608,-1.2938,-1.2684,-1.2703,0.0,0.0,0.0,0.0,0.0,0.0,0.0,0.0,0.0,0.0,0.0,0.0,-3.2317,-3.239,-3.2476,-3.2556,-3.2203,-3.1996,-3.2141,-3.1117,-3.0564,-3.0703,-2.9535,-2.8922,-2.8992,-2.819,-2.7488,0.0,0.0,0.0,0.0,0.0,0.0,-2.3018,-2.1903,-2.1033,-2.0497,-2.2122,-2.2775,-2.2834,-2.4454,-2.54,-2.5863,-2.5891,-2.6555,-2.7493,-2.7717,-2.8072,-2.8433,-2.8435,-2.8291,-2.7911,-2.6823,-2.6022,-2.5308,-2.4411,-2.3692,-2.3129,-2.2781,0.0,0.0,0.0,0.0,0.0,-1.9489,-1.8847,-1.8206,-1.7329,-1.6696,-1.6151,-1.5756,-1.5501,-1.5116,-1.4361,-1.3895,-1.3259,-1.2424,-1.2012,-1.1765,-1.1572,-1.1459,-1.1496,-1.1782,-1.1819,-1.1979,0.0,-1.2449,-1.2556,-1.2709,-1.2193,-1.1701,-1.1281,-1.0703,-1.0523,-1.0753,-1.0968,-1.1155,-1.1353,-1.1549,-1.1889,-1.2375,-1.3068,-1.3642,-1.4127,-1.471,-1.5118,-1.5389,-1.5754,-1.564,-1.5191,-1.451,-1.3899,-1.333,-1.2659,-1.2483,-1.2558,0.0,0.0,0.0,0.0,0.0,0.0,0.0,0.0,0.0,0.0,0.0,0.0,-3.4372,-3.4413,-3.4472,-3.4491,-3.3919,-3.3589,-3.3704,-3.2641,-3.2043,-3.2148,-3.0887,-3.0239,-3.0298,-2.9175,-2.8365,0.0,0.0,0.0,0.0,0.0,0.0,0.0,-2.2722,-2.2064,-2.1675,-2.2945,-2.3243,-2.2981,-2.4601,-2.5688,-2.6409,-2.6588,-2.7387,-2.8424,-2.8557,-2.8823,-2.9093,-2.8887,-2.8644,-2.8272,-2.7475,-2.688,-2.6359,-2.5599,-2.4863,-2.4255,-2.3869,-2.3365,-2.2774,-2.2034,0.0,0.0,-1.9686,-1.9072,-1.8562,-1.7815,-1.7269,-1.6765,-1.6312,-1.5825,-1.5222,-1.4278,-1.3754,-1.3125,-1.2167,-1.1851,-1.1636,-1.1454,-1.1459,-1.1571,-1.1819,-1.1881,-1.2052,-1.2377,-1.2437,-1.246,-1.2452,-1.1819,-1.1299,-1.0996,-1.0612,-1.0523,-1.0729,-1.0897,-1.1085,-1.1262,-1.1262,-1.147,-1.188,-1.2585,-1.3136,-1.353,-1.434,-1.4749,-1.4876,-1.495,-1.4739,-1.4378,-1.3803,-1.3214,-1.2697,-1.2375,-1.2318,-1.2394,0.0,0.0,0.0,0.0,0.0,0.0,0.0,0.0,0.0,0.0,-3.6558,-3.7249,-3.7385,-3.7408,-3.7411,-3.7416,-3.6041,-3.5192,-3.5248,-3.3794,-3.2959,-3.3034,-3.2198,-3.1756,-3.1815,-3.0337,0.0,0.0,0.0,0.0,0.0,0.0,0.0,0.0,0.0,-2.3199,-2.3148,-2.3965,-2.3884,-2.3339,-2.4855,-2.5948,-2.6749,-2.7491,-2.8222,-2.8935,-2.9452,-2.9551,-2.9412,-2.9181,-2.8892,-2.8626,-2.8344,-2.7674,-2.6943,-2.6683,-2.5906,-2.5017,-2.4568,-2.4149,-2.3554,-2.2419,-2.1768,0.0,-1.9995,-1.9361,-1.8916,-1.8401,-1.7879,-1.7342,-1.6796,-1.603,-1.5191,-1.4225,-1.3563,-1.2939,-1.2291,-1.1785,-1.1496,-1.156,-1.156,-1.166,-1.1918,-1.2041,-1.2186,-1.2413,-1.2413,-1.2325,-1.207,-1.1641,-1.1257,-1.0935,-1.0586,-1.0523,-1.0801,-1.092,-1.1062,-1.1215,-1.1192,-1.1192,-1.1235,-1.2285,-1.2789,-1.283,-1.3976,-1.4529,-1.4596,-1.4004,-1.3656,-1.3421,-1.2936,-1.2411,-1.1912,-1.2091,-1.2153,-1.221,-3.0409,0.0,0.0,0.0,0.0,0.0,0.0,0.0,-3.5395,-3.6337,-3.7317,-3.7904,-3.7929,-3.8046,-3.8117,-3.8099,-3.7329,-3.6831,-3.6837,-3.5363,-3.4508,-3.4558,-3.3226,-3.2527,-3.2583,-3.1696,-3.0914,0.0,0.0,0.0,0.0,0.0,0.0,0.0,0.0,-2.3769,-2.3162,-2.4028,-2.4645,-2.5158,-2.6112,-2.6983,-2.7788,-2.853,-2.9264,-2.9899,-2.9915,-2.9805,-2.9589,-2.9353,-2.9144,-2.8971,-2.8742,-2.8481,-2.8214,-2.7915,-2.755,-2.7157,-2.6774,-2.5953,-2.4958,-2.3868,-2.2867,0.0,-2.0756,-2.0158,-1.9581,-1.8584,-1.7947,-1.7249,-1.6184,-1.5684,-1.512,-1.4188,-1.3778,-1.325,-1.2272,-1.2036,-1.1968,-1.1968,-1.1968,-1.2004,-1.2138,-1.2174,-1.2246,-1.2473,-1.2231,-1.1948,-1.1616,-1.1128,-1.0716,-1.0456,-1.0402,-1.0523,-1.0801,-1.0873,-1.1015,-1.1215,-1.1155,-1.1108,-1.1165,-1.2234,-1.265,-1.2605,-1.3771,-1.4287,-1.4301,-1.331,-1.3052,-1.3202,-1.2681,-1.2205,-1.1826,-1.1869,-1.1991,-1.2133,-3.0723,0.0,0.0,0.0,0.0,0.0,0.0,0.0,-3.6465,-3.7561,-3.8934,-3.9862,-3.989,-3.9997,-4.005,-4.005,-3.9427,-3.8865,-3.8437,-3.736,-3.6573,-3.6217,-3.4693,-3.3898,-3.3991,-3.2845,-3.1845,0.0,0.0,0.0,0.0,0.0,0.0,0.0,0.0,-2.546,-2.5076,-2.5506,-2.5924,-2.6328,-2.6693,-2.7566,-2.8692,-2.9022,-2.964,-3.0286,-3.0147,-2.9969,-2.9769,-2.9607,-2.9475,-2.9336,-2.9148,-2.9012,-2.885,-2.8572,-2.8324,-2.8075,-2.7776,-2.7173,-2.6285,-2.4819,-2.3936,0.0,0.0,-2.0862,-2.0211,-1.9131,-1.8456,-1.7741,-1.6577,-1.5864,-1.5225,-1.4556,-1.4024,-1.3486,-1.2885,-1.2496,-1.2294,-1.2294,-1.2294,-1.233,-1.2437,-1.2473,-1.2544,-1.2685,-1.235,-1.1962,-1.1515,-1.1109,-1.0713,-1.0376,-1.0449,-1.0597,-1.0801,-1.0825,-1.092,-1.1038,-1.1015,-1.1158,-1.1479,-1.2238,-1.2714,-1.2982,-1.3767,-1.4111,-1.4076,-1.3353,-1.301,-1.2882,-1.2226,-1.1834,-1.1652,-1.174,-1.1826,-1.1912,-3.0642,-3.1083,0.0,0.0,0.0,0.0,0.0,0.0,-3.7867,-3.9208,-4.0923,-4.2117,-4.2326,-4.2385,-4.2369,-4.2248,-4.1594,-4.0851,-4.0014,-3.9204,-3.8471,-3.7837,-3.6311,-3.5454,-3.5408,-3.3991,-3.287,-3.2102,0.0,0.0,0.0,0.0,0.0,0.0,-2.7589,-2.724,-2.7255,-2.7245,-2.7341,-2.7485,-2.7433,-2.8164,-2.9326,-2.9427,-2.9873,-3.0419,-3.0292,-3.0133,-2.9984,-2.9883,-2.9784,-2.9662,-2.9532,-2.9414,-2.9233,-2.9001,-2.8795,-2.8578,-2.8324,-2.8075,-2.7412,-2.5551,-2.4856,-2.4185,0.0,0.0,0.0,-1.9625,-1.8869,-1.8092,-1.6947,-1.6051,-1.5352,-1.4992,-1.4319,-1.3802,0.0,-1.316,0.0,-1.2673,-1.265,-1.2685,-1.278,-1.2838,-1.2908,-1.3,-1.2485,-1.2021,-1.1605,-1.1107,-1.073,-1.0437,-1.0548,-1.0656,-1.0801,-1.0801,-1.0825,-1.0897,-1.0997,-1.1314,-1.1784,-1.2388,-1.2898,-1.3341,-1.3792,-1.3967,-1.396,-1.3512,-1.3149,-1.2746,-1.1907,-1.156,-1.1489,-1.1608,-1.1637,-1.1681,-3.0251,-3.0788,-3.1538,0.0,0.0,0.0,0.0,0.0,-3.894,-4.1556,-4.2857,-4.3837,-4.4543,-4.4698,-4.4448,-4.3819,-4.3092,-4.2342,-4.1577,-4.0176,-3.9376,-3.9282,-3.7888,-3.6843,-3.6177,-3.535,-3.46,-3.3897,0.0,0.0,0.0,0.0,0.0,0.0,-2.8418,-2.8099,-2.8147,-2.8159,-2.8593,-2.9293,-2.9235,-2.9269,-2.9479,-3.0161,-3.0507,-3.0568,-3.0425,-3.0355,-3.0299,0.0,-3.0022,-2.9931,-2.9872,-2.9698,-2.9533,-2.9456,-2.9277,-2.9082,-2.8865,-2.8609,-2.7972,-2.6139,-2.5508,-2.4811,-2.2926,0.0,-2.0633,-1.9602,0.0,-1.7465,-1.63,0.0,0.0,-1.5051,-1.4669,-1.4356,-1.4222,-1.4032,-1.3756,-1.3344,-1.3185,-1.3129,-1.3129,-1.3163,-1.3198,-1.3323,-1.2348,-1.1789,-1.186,-1.0937,-1.0415,-1.0498,-1.0572,-1.0656,-1.0801,-1.0801,-1.0825,-1.091,-1.1376,-1.1625,-1.1655,-1.2651,-1.3098,-1.3068,-1.3644,-1.3908,-1.3868,-1.3405,-1.326,-1.3217,-1.2313,-1.1722,-1.1399,-1.1421,-1.1466,-1.1534,-3.0833,-3.1266,-3.1996,-3.3225,0.0,0.0,0.0,0.0,-4.1361,-4.2647,-4.4121,-4.5164,-4.5478,-4.5637,-4.5611,-4.5293,-4.5041,-4.4345,-4.3155,-4.2509,-4.18,-4.0978,-3.9443,-3.855,-3.84,-3.671,-3.5482,-3.4772,-3.3692,0.0,0.0,0.0,0.0,0.0,-2.9269,-2.8929,-2.9,-2.9045,-2.9272,-2.9648,-3.0075,-3.0233,-3.0236,-3.0535,-3.063,-3.0591,-3.054,-3.0491,-3.0441,0.0,-3.0292,0.0,0.0,-3.0022,-2.988,-2.9815,-2.9678,-2.9514,-2.9358,-2.8759,-2.7875,-2.654,-2.5672,-2.4801,-2.3406,0.0,-2.1139,-2.0145,0.0,0.0,0.0,0.0,0.0,0.0,-1.5315,-1.5075,-1.4845,-1.469,-1.4374,-1.3802,0.0,0.0,-1.3607,0.0,0.0,0.0,-1.2473,-1.1844,-1.189,-1.0925,-1.0399,-1.0498,-1.0597,-1.0681,-1.0729,-1.1082,-1.1246,-1.1259,-1.1831,-1.2221,-1.2486,-1.2873,-1.319,-1.3487,-1.3591,-1.3695,-1.3715,-1.3598,-1.3422,-1.3216,-1.2922,-1.2358,-1.165,-1.1343,-1.1239,-1.127,-3.1542,-3.1979,-3.2639,-3.3826,0.0,0.0,0.0,0.0,-4.3136,-4.3996,-4.544,-4.6522,-4.678,-4.6911,-4.6948,-4.68,-4.6631,-4.587,-4.4374,-4.4153,-4.3524,-4.2277,-4.0708,-3.9838,-3.9823,-3.7943,-3.6482,-3.5539,0.0,0.0,0.0,0.0,0.0,0.0,-3.0128,-2.9775,-2.9825,-2.9907,-2.9925,-2.9975,-3.0586,-3.0816,-3.078,-3.075,-3.0697,-3.0658,-3.0637,-3.0607,-3.0554,-3.0539,-3.0501,0.0,-3.0386,-3.0278,-3.0171,-3.0122,-3.0003,-2.9842,-2.95,0.0,0.0,0.0,0.0,0.0,0.0,0.0,0.0,0.0,-1.9264,0.0,0.0,0.0,-1.6564,-1.5991,0.0,-1.5454,-1.5197,-1.4994,-1.4722,-1.4264,0.0,0.0,0.0,0.0,0.0,-1.3749,-1.2847,-1.2255,-1.2255,-1.1413,-1.0977,-1.1028,-1.1131,-1.1181,-1.1181,-1.1601,-1.1791,-1.175,-1.2298,-1.2734,-1.3072,-1.3082,-1.3318,-1.3741,-1.356,-1.3514,-1.3581,-1.3741,-1.3592,-1.3298,-1.3306,-1.2862,-1.2169,-1.1704,-1.1493,-1.1468,-3.2348,-3.273,-3.3282,-3.4627,-3.5866,0.0,0.0,-4.2418,-4.3516,-4.6047,-4.7166,-4.8088,-4.9013,-4.9086,-4.8857,-4.8286,-4.7535,-4.647,-4.506,-4.4341,-4.3652,-4.2797,-4.1482,-4.0409,-3.9631,-3.895,-3.7868,-3.6363,-3.5553,0.0,0.0,0.0,0.0,0.0,-3.0998,-3.0665,-3.0672,-3.0728,-3.0768,-3.0765,-3.0858,-3.0857,-3.0808,0.0,-3.0789,-3.0794,-3.0725,0.0,0.0,-3.0678,-3.0661,0.0,0.0,0.0,0.0,0.0,0.0,0.0,0.0,0.0,0.0,-2.645,0.0,0.0,0.0,0.0,-2.1206,0.0,0.0,0.0,-1.7928,-1.7614,-1.7049,-1.6055,-1.5629,0.0,0.0,-1.489,-1.4799,-1.4786,-1.4556,0.0,0.0,-1.4268,-1.4203,-1.417,-1.3543,-1.3178,-1.3178,-1.2635,-1.2343,-1.2343,-1.2399,-1.244,-1.244,-1.2411,-1.2354,-1.2367,-1.2781,-1.2997,-1.3024,-1.3396,-1.3602,-1.3615,-1.3514,-1.348,-1.3527,-1.3708,-1.3808,-1.3729,-1.3266,-1.3107,-1.3031,-1.2672,-1.2483,-1.2372,-3.3782,-3.4413,-3.4949,-3.5761,-3.6495,-3.8122,-4.146,-4.3137,-4.4671,-4.6611,-4.7825,-4.8871,-4.9688,-4.9458,-4.9145,-4.8912,-4.8145,-4.7329,-4.6452,-4.5696,-4.5004,-4.4432,-4.2925,-4.1847,-4.1191,-3.9943,-3.8572,-3.7052,-3.6328,0.0,0.0,0.0,0.0,0.0,0.0,-3.0656,-3.0704,-3.0774,-3.081,-3.081,-3.0874,-3.0898,-3.0859,0.0,-3.0807,-3.0804,-3.0778,-3.0771,0.0,-3.0769,-3.036,-2.9872,-2.9849,-2.9389,-2.8888,-2.8877,-2.8808,0.0,0.0,0.0,-2.7056,-2.6416,0.0,0.0,0.0,0.0,0.0,0.0,0.0,0.0,-1.8459,-1.7765,-1.7048,-1.6572,-1.5803,-1.5159,0.0,-1.4596,-1.452,-1.4841,-1.483,-1.4811,0.0,0.0,-1.4479,-1.442,-1.3823,-1.3418,-1.3266,-1.2763,-1.2454,-1.2397,-1.2453,-1.2494,-1.2494,-1.2828,-1.2957,-1.2884,-1.3359,-1.3572,-1.352,-1.3537,-1.3514,-1.3514,-1.3357,-1.3357,-1.3459,-1.356,-1.3628,-1.3682,-1.3651,-1.3559,-1.3343,-1.2568,-1.2239,-1.2197,-3.4604,-3.5294,-3.5904,-3.6651,-3.7691,-3.9364,-4.2033,-4.3819,-4.549,-4.7267,-4.8407,-4.9397,-5.0299,-4.9782,-4.9422,-4.9525,-4.8525,-4.7624,-4.7016,-4.6305,-4.5625,-4.5053,-4.359,-4.2497,-4.1875,-4.0659,-3.9133,-3.7305,-3.6938,-3.5947,0.0,0.0,0.0,0.0,-3.1091,-3.0629,-3.0676,-3.0736,-3.0779,-3.079,-3.0845,-3.0853,0.0,0.0,-3.0797,-3.0753,0.0,-3.0359,-3.0296,-3.0018,-2.9523,-2.9045,-2.9035,-2.8614,-2.8149,-2.815,-2.8098,-2.799,-2.7634,-2.7086,0.0,-2.6178,-2.5379,0.0,-2.3477,0.0,-2.1537,0.0,0.0,0.0,0.0,-1.8056,-1.7205,-1.6722,-1.5731,-1.4891,0.0,-1.4447,-1.4543,-1.5031,-1.4944,-1.4949,-1.518,-1.5011,-1.4825,-1.469,-1.4293,-1.3976,0.0,0.0,-1.3238,-1.312,-1.3147,-1.316,-1.3131,-1.3404,-1.3516,-1.3409,-1.3723,-1.3854,-1.3788,-1.3594,-1.348,-1.348,-1.3301,-1.3301,-1.3425,-1.3459,-1.3547,-1.3615,-1.3808,-1.3775,-1.3524,-1.2925,-1.2651,-1.2558,-3.4767,-3.5514,-3.633,-3.7369,-3.9452,-4.1618,-4.3458,-4.4493,-4.5852,-4.7939,-4.8889,-4.9752,-5.076,-5.0178,-4.9784,-5.0009,-4.858,-4.7438,-4.6822,-4.623,-4.5535,-4.4745,-4.3486,-4.2451,-4.1616,-4.1108,-3.9614,-3.7111,-3.7305,0.0,0.0,0.0,0.0,0.0,-3.1283,-3.0597,-3.061,-3.0671,-3.0742,-3.0804,-3.0801,-3.0794,-3.0799,-3.074,-3.0733,-3.0644,-2.9863,-2.9531,-2.9315,-2.8553,-2.8219,-2.8139,-2.8135,-2.8114,-2.8073,-2.8079,-2.8086,-2.7901,-2.7071,-2.6797,-2.6534,-2.5653,0.0,0.0,0.0,0.0,-2.1052,0.0,0.0,0.0,0.0,0.0,-1.7424,-1.6494,-1.541,-1.4504,-1.4038,-1.4346,-1.4833,-1.5308,-1.4932,-1.4854,-1.5448,-1.5344,-1.5163,-1.5043,-1.498,-1.4856,0.0,0.0,-1.462,-1.4429,-1.4429,-1.4365,-1.43,-1.4111,-1.4,-1.4,-1.3874,-1.3788,-1.3788,-1.3594,-1.348,-1.348,-1.3301,-1.3301,-1.3425,-1.3493,-1.3547,-1.3615,-1.3741,-1.3695,-1.3581,-1.3708,-1.3607,-1.3391,-3.5,-3.6986,-3.8821,-4.0051,-4.1353,-4.2671,-4.3971,-4.4715,-4.5919,-4.8179,-4.8901,-4.9524,-5.0521,-4.999,-4.9385,-4.8974,-4.8001,-4.7168,-4.6622,-4.5863,-4.5219,-4.471,-4.3821,-4.2788,-4.1635,-4.1463,-3.9981,-3.7099,-3.7197,-3.6457,-3.4907,0.0,0.0,0.0,-3.1218,-3.055,-3.0606,-3.0668,-3.0749,-3.0789,-3.0808,-3.0798,-3.0724,0.0,-2.9838,-2.9809,-2.9591,-2.9109,-2.8506,-2.8307,-2.778,-2.7235,-2.7238,-2.6811,-2.6345,-2.6347,-2.6347,-2.6285,-2.607,-2.6002,-2.5765,-2.4895,-2.4451,-2.3844,0.0,0.0,0.0,0.0,0.0,0.0,0.0,0.0,-1.633,-1.5947,-1.4884,-1.4003,-1.3684,-1.3645,-1.4021,-1.4988,-1.4852,-1.4999,-1.5805,-1.5696,-1.5536,-1.5389,-1.5299,-1.5179,0.0,0.0,0.0,-1.4651,-1.4493,-1.4397,-1.4365,-1.4222,-1.4111,-1.4,-1.3894,-1.3854,-1.3788,-1.3594,-1.348,-1.348,-1.3391,-1.3357,-1.3425,-1.3514,-1.3581,-1.3615,-1.3661,-1.3493,-1.3301,-1.3335,-1.3267,-1.3163,-3.5811,-3.8259,-4.0421,-4.1318,-4.2439,-4.3393,-4.3974,-4.4749,-4.592,-4.7836,-4.8232,-4.8732,-4.9728,-4.9203,-4.8639,-4.8378,-4.7286,-4.6575,-4.6374,-4.5377,-4.4683,-4.4455,-4.3849,-4.2846,-4.1403,-4.1538,-4.0067,-3.6926,-3.708,-3.6368,-3.4831,0.0,0.0,0.0,-3.1148,-3.0499,-3.0559,-3.0653,-3.0711,-3.0755,-3.0759,-3.0759,0.0,-2.9785,-2.9221,-2.8846,-2.8452,-2.8026,-2.7573,-2.7195,-2.6743,-2.6334,-2.6337,-2.6029,-2.5662,-2.5654,-2.5664,-2.5576,-2.523,-2.5136,-2.4921,-2.4057,-2.3517,-2.2954,-2.1971,-2.1414,-2.0842,0.0,0.0,0.0,0.0,0.0,0.0,-1.5325,-1.4605,-1.4011,-1.3724,-1.3556,-1.3904,-1.5077,-1.507,-1.5356,-1.637,-1.616,-1.5924,-1.5811,-1.5711,0.0,0.0,0.0,0.0,-1.4842,-1.4669,-1.4543,-1.4433,-1.4319,-1.4144,-1.4,-1.3927,-1.3854,-1.3788,-1.3628,-1.3547,-1.3547,-1.3459,-1.3459,-1.348,-1.3581,-1.3615,-1.3581,-1.3547,-1.3391,-1.3198,-1.3094,-1.3025,-1.2955,-3.6814,-3.92,-4.1148,-4.1756,-4.2884,-4.3714,-4.3786,-4.4677,-4.5823,-4.7122,-4.7296,-4.7711,-4.87,-4.8169,-4.7771,-4.7843,-4.656,-4.5775,-4.5857,-4.4674,-4.4002,-4.3951,-4.3506,-4.2601,-4.1148,-4.1286,-3.9843,-3.6697,-3.6932,-3.6276,0.0,0.0,0.0,-3.2615,-3.1053,-3.0414,-3.0519,-3.0629,-3.0683,-3.069,-3.0698,-3.062,-3.0432,-2.9557,-2.8677,-2.7815,-2.6934,-2.6669,-2.6583,-2.5717,-2.542,-2.5401,-2.5284,-2.5245,-2.525,-2.5254,-2.5262,-2.5114,-2.4408,-2.422,-2.4011,-2.3142,-2.2363,-2.1777,-2.1659,-2.0968,-2.0092,-1.9289,-1.8944,-1.8523,0.0,0.0,0.0,-1.481,-1.4519,-1.4332,-1.4011,-1.3859,-1.4206,-1.5433,-1.5446,0.0,-1.7076,-1.6722,-1.634,-1.6258,0.0,0.0,0.0,0.0,0.0,-1.5074,-1.4904,0.0,-1.4533,0.0,-1.4241,-1.4032,-1.396,-1.3874,-1.3821,-1.3661,-1.3615,-1.3615,-1.3547,-1.3547,-1.3581,-1.3615,-1.3581,-1.3547,-1.3425,-1.3288,-1.3129,-1.2943,-1.2826,-1.2768,-3.7337,-3.9122,-4.0558,-4.1821,-4.2707,-4.335,-4.3764,-4.4546,-4.5468,-4.6565,-4.6829,-4.7074,-4.7623,-4.7518,-4.7086,-4.6052,-4.5744,-4.5107,-4.4067,-4.3751,-4.345,-4.3118,-4.2413,-4.1739,-4.1097,-4.0515,-3.9065,-3.6697,-3.6795,-3.6082,0.0,0.0,0.0,-3.2483,-3.092,-3.0328,-3.051,-3.0588,0.0,-3.0618,-3.0626,-3.0219,-2.954,-2.8594,-2.7733,-2.6912,-2.5975,-2.5696,-2.5609,-2.4742,-2.4444,-2.4328,-2.3599,-2.3379,-2.3372,-2.3434,-2.3456,-2.3417,-2.3279,-2.3283,-2.3124,-2.2249,-2.1913,-2.1611,-2.0891,-2.0057,-1.9375,-1.9215,-1.809,-1.7048,-1.6829,0.0,0.0,0.0,0.0,0.0,-1.4344,-1.4211,-1.4591,-1.5854,-1.5831,-1.624,-1.7642,-1.7224,-1.6789,-1.6554,0.0,0.0,0.0,0.0,0.0,0.0,-1.5074,0.0,0.0,0.0,-1.4388,-1.4254,-1.4078,-1.396,-1.3888,-1.3695,-1.3615,-1.3615,-1.3581,-1.3547,-1.3514,-1.3581,-1.3459,-1.3267,-1.3232,-1.3094,-1.2873,-1.2838,-1.2697,-1.2544,-3.7541,-3.9226,-4.0716,-4.1525,-4.2302,-4.2929,0.0,-4.3614,-4.4215,-4.5586,-4.5958,-4.6152,-4.6463,-4.6164,-4.5789,-4.5311,-4.4565,-4.3862,-4.3347,-4.303,-4.2624,-4.1998,-4.1811,-4.1216,-4.0172,-3.9987,-3.875,-3.6427,-3.666,-3.5981,-3.4458,0.0,0.0,-3.2381,-3.0877,-3.0292,-3.0447,0.0,0.0,-3.0549,-3.0548,-3.0044,-2.9203,-2.8335,-2.7467,-2.6522,-2.5194,-2.4722,-2.4662,-2.4284,-2.386,-2.3408,-2.2972,-2.2844,-2.2852,-2.2893,-2.292,-2.2849,-2.2402,-2.2313,-2.2163,-2.1288,-2.108,-2.0844,-2.0029,-1.95,-1.895,-1.8081,-1.7266,-1.6557,-1.6072,-1.5551,0.0,0.0,0.0,0.0,0.0,-1.4444,-1.4699,-1.5633,-1.5601,-1.5889,-1.6868,-1.6631,-1.6414,-1.6386,-1.6271,0.0,0.0,0.0,0.0,0.0,0.0,0.0,0.0,0.0,0.0,-1.4401,-1.4241,-1.4124,-1.404,-1.3841,-1.3775,-1.3762,-1.3648,-1.3581,-1.3547,-1.3459,-1.3323,-1.3198,-1.306,-1.2885,-1.2745,-1.2662,-1.2544,-1.2437,-3.718,-3.8894,-4.0349,-4.0751,-4.1405,-4.1993,-4.2472,-4.2341,-4.2822,-4.4473,-4.4692,-4.4801,-4.501,-4.4644,-4.4425,-4.4463,-4.3407,-4.2685,-4.2538,-4.2168,-4.1599,-4.0895,-4.1009,-4.051,-3.9333,-3.9422,-3.8444,-3.6211,-3.65,0.0,0.0,0.0,0.0,0.0,0.0,0.0,0.0,0.0,-3.0469,-3.0462,-3.0289,-2.9699,-2.883,-2.801,-2.7133,-2.6131,-2.4601,-2.3899,-2.3678,-2.3544,-2.3053,-2.2476,-2.2284,-2.2226,-2.2226,-2.2233,-2.2277,-2.2184,-2.1499,-2.1346,-2.1249,-2.0539,-2.0374,-2.0167,-1.9352,-1.9056,-1.8501,-1.6995,-1.6548,-1.6211,-1.5529,-1.5351,0.0,0.0,0.0,0.0,0.0,-1.4651,-1.4818,-1.541,-1.5368,-1.5528,-1.6131,0.0,-1.5772,0.0,0.0,0.0,-1.5638,0.0,0.0,0.0,0.0,-1.5492,-1.5268,0.0,-1.4856,0.0,-1.4433,-1.4319,-1.4235,-1.4007,-1.3908,-1.3888,-1.3695,-1.3581,-1.348,-1.3254,-1.3129,-1.306,-1.2838,-1.2734,-1.277,-1.265,-1.2542,-1.2469,-3.5937,-3.7278,-3.8478,-3.9134,0.0,-4.0206,-4.0691,-4.1098,-4.1886,-4.3365,-4.2983,-4.2771,-4.3186,-4.332,-4.3141,-4.2493,-4.2556,-4.2076,-4.0752,-4.0697,-4.0536,-4.0131,-3.9435,-3.9138,-3.9315,-3.8624,-3.759,-3.6211,0.0,-3.5666,0.0,0.0,0.0,0.0,0.0,0.0,0.0,-3.0292,-3.0352,-3.0351,-2.9619,-2.879,-2.7933,-2.7055,-2.6197,-2.5292,-2.4272,-2.3407,-2.2611,-2.1826,-2.156,-2.1388,-2.0594,-2.0356,-2.0346,-2.0354,-2.0399,-2.0444,-2.0353,-2.0385,-2.0415,-2.0337,-2.0308,-2.0089,-1.93,-1.8547,-1.7756,-1.6809,-1.6023,-1.5504,-1.5429,-1.5392,-1.5374,0.0,0.0,0.0,0.0,0.0,-1.5085,-1.569,-1.5642,-1.5791,-1.6389,-1.5695,0.0,0.0,-1.5843,0.0,0.0,0.0,0.0,-1.6274,0.0,-1.5797,-1.5492,-1.5328,-1.5163,-1.4937,-1.4627,-1.4465,-1.4365,-1.4111,-1.396,-1.3888,-1.3695,-1.3459,-1.3232,-1.3012,-1.2873,-1.2745,-1.2579,-1.2696,-1.298,-1.2942,-1.2816,-1.2662,0.0,0.0,0.0,0.0,0.0,0.0,0.0,-4.0108,-4.0451,-4.1311,-4.1917,-4.2356,-4.2567,-4.2381,-4.2171,-4.2106,-4.1336,-4.0676,-4.0246,-3.9947,-3.9517,-3.8903,-3.8836,-3.865,-3.8313,-3.7729,-3.6935,0.0,0.0,0.0,0.0,0.0,0.0,0.0,0.0,-3.0369,-3.0138,-3.0207,-3.026,-3.0203,-2.9402,-2.8587,-2.7742,-2.6875,-2.5672,-2.4337,-2.3433,-2.252,-2.1627,-2.0798,-2.0543,-2.0506,-2.0144,-2.0029,-2.0048,-2.003,-2.006,-2.0088,-2.0135,-2.0162,-2.0188,-2.0188,-1.9819,-1.9261,-1.8441,-1.7632,-1.6807,-1.5937,-1.5534,-1.5348,-1.5387,-1.541,-1.5397,0.0,0.0,0.0,0.0,0.0,-1.5085,-1.5235,-1.515,-1.5115,-1.528,-1.4887,0.0,0.0,0.0,0.0,0.0,0.0,0.0,-1.6554,0.0,-1.6108,-1.5797,-1.5624,-1.5448,-1.5225,-1.4904,-1.4686,-1.4588,-1.4254,-1.396,-1.3661,-1.3527,-1.331,-1.3012,-1.2838,-1.2854,-1.2922,-1.2675,-1.2796,-1.3105,-1.2973,-1.2851,-1.2677,-3.4091,0.0,-3.635,0.0,-3.752,-3.8091,-3.8663,-3.8462,-3.8472,-3.8919,-3.9964,-4.0875,-4.1488,-4.1121,-4.0929,-4.1077,-4.0036,-3.9375,-3.9346,-3.9023,-3.8544,-3.7812,-3.786,0.0,-3.7255,-3.6766,-3.6121,-3.5372,-3.5064,0.0,0.0,0.0,0.0,0.0,-3.0729,-3.0151,-3.0041,-3.0113,-3.0004,-2.9707,-2.8919,-2.8109,-2.7285,-2.6419,-2.5172,-2.3763,-2.2879,-2.1977,-2.1066,-2.0248,-1.9971,-1.9934,-1.9955,-1.9963,-1.9971,-1.9974,-1.9958,-1.999,-2.0038,-2.0068,-2.0012,-1.9745,-1.9286,-1.8595,-1.7524,-1.6854,-1.6226,-1.538,-1.5252,-1.5313,-1.5368,-1.5385,-1.539,-1.5394,0.0,0.0,0.0,-1.5163,-1.5087,-1.4976,-1.484,-1.4718,-1.4566,-1.4647,0.0,0.0,0.0,0.0,0.0,0.0,0.0,0.0,0.0,0.0,0.0,-1.5896,-1.5667,-1.5463,-1.5133,-1.4902,-1.4714,-1.43,-1.3874,-1.3459,-1.3357,-1.3116,-1.2768,-1.2758,-1.2787,-1.2858,-1.267,-1.2836,-1.3096,-1.2968,-1.2797,-1.2624,-3.188,-3.297,-3.3977,-3.4613,-3.5048,-3.5491,-3.6119,-3.5894,-3.5822,-3.6287,-3.6587,-3.7546,-3.9492,-3.9312,-3.9022,-3.9022,-3.8785,-3.8301,-3.756,-3.7731,-3.7574,0.0,0.0,-3.6017,-3.6417,-3.5702,-3.5083,-3.4624,0.0,0.0,-3.3788,0.0,-3.2331,-3.0922,-3.0979,-3.0579,-2.9912,-2.9975,-2.9544,-2.8751,-2.794,-2.7147,-2.6327,-2.5456,-2.4574,-2.3681,-2.2804,-2.1938,-2.1066,-2.0183,-1.9868,-1.982,-1.9873,-1.9896,-1.9896,-1.9896,-1.9908,-1.99,-1.99,-1.9941,-1.9785,-1.8923,-1.8754,-1.8355,-1.6707,-1.6361,-1.6163,-1.5364,-1.5255,-1.5299,-1.531,-1.5368,-1.5406,-1.5391,0.0,0.0,0.0,-1.524,0.0,-1.5106,-1.4989,-1.4837,-1.4708,-1.5314,0.0,0.0,0.0,0.0,0.0,0.0,0.0,-1.7126,-1.685,0.0,-1.6301,-1.6108,-1.5854,-1.558,-1.5328,-1.5056,-1.4777,-1.417,-1.3708,-1.3391,-1.3198,-1.2885,-1.2508,-1.273,-1.2614,-1.2327,-1.2611,-1.2774,-1.2917,-1.2917,-1.2746,-1.2483,-3.1096,-3.1928,-3.2774,-3.3395,-3.3953,-3.4409,-3.496,-3.5222,-3.5459,-3.579,-3.6185,-3.6682,-3.7472,-3.7719,-3.7967,0.0,-3.7657,-3.7342,0.0,-3.6999,-3.6544,-3.5981,-3.5875,-3.5641,-3.5332,-3.4762,-3.4413,-3.4261,0.0,0.0,0.0,-3.1848,-3.1098,-3.0684,-3.0225,-2.9607,-2.889,-2.8992,-2.8585,-2.7778,-2.6954,-2.6493,-2.6113,-2.4682,-2.3607,-2.2729,-2.1871,-2.0991,-2.0188,-1.9919,-1.9795,-1.9744,-1.9751,-1.9763,-1.9763,-1.977,-1.9763,-1.9763,-1.9825,-1.9856,-1.9661,-1.8776,-1.8197,-1.7557,-1.6431,-1.5825,-1.5438,-1.5171,-1.518,-1.5251,-1.5288,-1.5313,-1.5346,-1.5387,-1.539,0.0,-1.5375,0.0,-1.524,-1.518,-1.5088,-1.4973,-1.484,-1.5436,0.0,0.0,0.0,0.0,0.0,0.0,0.0,0.0,-1.785,0.0,-1.8061,-1.7829,-1.7286,-1.6473,-1.617,-1.5456,-1.4397,-1.3927,-1.3493,-1.3163,-1.292,-1.2794,-1.2681,-1.2524,-1.2582,-1.2764,-1.2614,-1.2614,-1.2665,-1.2541,-1.231,-1.2069,-2.9953,-3.0741,-3.1547,-3.2217,-3.2776,-3.3276,-3.3783,-3.4017,-3.4281,-3.4627,-3.4968,-3.5287,-3.5548,-3.5891,0.0,-3.7129,-3.6645,-3.639,-3.6631,-3.6131,-3.5663,-3.5416,-3.5021,-3.4668,-3.434,-3.3791,0.0,-3.3651,-3.319,-3.252,-3.1627,-3.0783,-3.0294,-3.0071,-2.9358,-2.8783,-2.8297,-2.8122,-2.7587,-2.6824,-2.6325,-2.5769,-2.5106,-2.4071,-2.2924,-2.1834,-2.1268,-2.0521,-1.9795,-1.9738,-1.9686,-1.9665,-1.9633,-1.962,-1.962,-1.9668,-1.9662,-1.9668,-1.9699,-1.9507,-1.907,-1.8221,-1.7449,-1.6665,-1.5838,-1.534,-1.5076,-1.5094,-1.5127,-1.518,-1.5245,-1.5276,-1.5318,-1.5392,-1.5406,-1.539,-1.5398,0.0,-1.5316,0.0,0.0,0.0,0.0,-1.5838,-1.6548,0.0,0.0,0.0,0.0,0.0,0.0,-1.8708,-1.8442,0.0,-1.9017,-1.8679,-1.8129,-1.7303,-1.6457,-1.5497,-1.4393,-1.3739,-1.3242,-1.2838,-1.2556,-1.2401,-1.2418,-1.2195,-1.2244,-1.2427,-1.2336,-1.2119,-1.1931,-1.176,-1.156,-1.125,-2.839,-2.9357,-3.0325,0.0,-3.1562,0.0,-3.2526,-3.246,-3.2508,-3.2989,-3.3203,-3.3503,-3.4,-3.4052,-3.4495,-3.5679,0.0,0.0,0.0,-3.5181,-3.5005,-3.5042,-3.3856,-3.3242,-3.3406,-3.2876,-3.2654,-3.2813,-3.2259,-3.1338,-3.0088,-3.0106,-2.9789,-2.9151,-2.8417,-2.8068,-2.7978,-2.7288,-2.6572,-2.5906,-2.5901,-2.4972,-2.3568,-2.3512,-2.2488,-2.1061,-2.096,-2.0433,-1.977,-1.9641,-1.9592,-1.9569,-1.9504,-1.9493,-1.9497,-1.9574,-1.9592,-1.9602,-1.9602,-1.9003,-1.8179,-1.7386,-1.6534,-1.5729,-1.5038,-1.4938,-1.5014,-1.5076,-1.5094,-1.5114,-1.5182,-1.5259,-1.5326,-1.5382,-1.5392,-1.5408,-1.5409,0.0,-1.5373,0.0,0.0,0.0,0.0,-1.6394,-1.7221,0.0,0.0,0.0,0.0,0.0,-1.8444,-1.8968,-1.8735,-1.8835,-1.9374,-1.8954,-1.8501,-1.7985,-1.627,-1.5216,-1.4717,-1.3654,-1.2871,-1.2437,-1.2018,-1.179,-1.1734,-1.1729,-1.1583,-1.1433,-1.1657,-1.1309,-1.0702,-1.0643,-1.0431,-1.0064,0.0,0.0,-2.8893,-2.995,-3.0467,-3.0906,-3.1515,-3.1772,-3.2007,-3.2508,-3.292,-3.3256,-3.345,-3.3365,-3.3389,-3.3665,-3.4556,-3.4977,-3.4749,-3.4677,-3.4277,-3.349,-3.3132,-3.2815,-3.2494,-3.2476,-3.2325,-3.1974,-3.0794,-3.0107,-2.9849,-2.9424,-2.8828,-2.8147,-2.8052,-2.7377,-2.6284,-2.6116,-2.561,-2.493,-2.4928,-2.4345,-2.3386,-2.2716,-2.1836,-2.0862,-2.0231,-1.9841,-1.9638,-1.9611,-1.9569,-1.9497,-1.9435,-1.9387,-1.9368,-1.9479,-1.9512,-1.9512,-1.9512,-1.8902,-1.8051,-1.7256,-1.6026,-1.4976,-1.485,-1.4868,-1.4938,-1.5014,-1.5064,-1.5127,-1.5183,-1.5201,-1.5259,-1.5313,-1.5365,-1.5392,-1.5408,-1.5409,0.0,0.0,-1.5311,-1.5226,-1.5082,-1.6472,-1.7298,0.0,0.0,0.0,0.0,-1.8678,-1.8958,-1.9942,-1.9756,-2.011,-2.1092,-2.0651,-1.9636,-1.8042,-1.6165,-1.4935,-1.4313,-1.3176,-1.2342,-1.1799,-1.1383,-1.1165,-1.1,-1.0873,-1.073,-1.0598,-1.0489,-1.0167,-0.9695,-0.9392,-0.9138,-0.8928,-2.614,-2.6836,-2.7503,-2.8385,-2.9153,-2.9719,-2.9973,-3.0639,-3.1125,-3.1195,-3.1597,-3.1967,-3.2226,-3.2233,-3.2289,-3.253,-3.3362,-3.3844,-3.3694,-3.3575,-3.3243,-3.2706,-3.25,-3.2308,-3.2161,-3.1951,-3.1447,-3.0654,-2.9912,-2.944,-2.9246,-2.8912,-2.8396,-2.7743,-2.7485,-2.6702,-2.5579,-2.5208,-2.4872,-2.4512,-2.412,-2.3502,-2.2712,-2.1872,-2.1036,-2.0257,-1.9814,-1.9625,-1.9536,-1.9475,-1.945,-1.9405,-1.9329,-1.9261,-1.9172,-1.8889,-1.8809,-1.8809,-1.8809,-1.7927,-1.6825,-1.6042,-1.5235,-1.4674,-1.4746,-1.4813,-1.4867,-1.4947,-1.5019,-1.5059,-1.514,-1.5182,-1.5222,-1.5295,-1.5666,-1.5955,-1.5984,-1.6347,0.0,-1.6596,-1.6535,-1.6294,-1.5782,-1.6781,-1.7349,-1.7158,-1.8194,0.0,-1.9033,-1.8843,-1.9094,-1.9849,-2.003,-2.048,-2.1271,-2.0527,-1.9431,-1.7978,-1.5979,-1.4607,-1.3852,-1.265,-1.1715,-1.1035,-1.0494,-1.0191,-0.9989,-0.9709,-0.951,-0.9328,-0.9204,-0.8862,-0.8389,-0.8125,-0.7865,-0.7545,-2.5027,-2.5667,-2.6262,-2.6917,-2.7931,-2.8635,-2.8469,-2.9358,-2.9956,-2.9786,-3.0068,-3.0485,-3.0876,-3.0982,-3.1213,-3.1707,-3.2056,-3.2354,-3.2514,-3.2337,-3.2222,-3.2224,-3.1798,-3.17,-3.1863,-3.1199,-3.037,-2.9358,-2.9319,-2.9044,-2.8562,-2.846,-2.8088,-2.7451,-2.6735,-2.5991,-2.526,-2.4579,-2.4358,-2.4389,-2.3535,-2.275,-2.1977,-2.1175,-2.0322,-1.9587,-1.9583,-1.9536,-1.9456,-1.9335,-1.9289,-1.9277,-1.92,-1.9152,-1.8954,-1.819,-1.7879,-1.7785,-1.78,-1.6725,-1.5408,-1.4678,-1.4545,-1.4603,-1.4677,-1.4747,-1.4813,-1.4876,-1.4952,-1.5015,-1.5073,-1.5146,-1.5248,-1.5449,-1.6103,-1.6671,-1.6843,0.0,-1.8008,-1.7997,-1.7942,-1.7532,-1.6584,-1.7128,-1.7386,-1.7055,-1.782,-1.8485,0.0,-1.891,-1.9019,-1.9268,-1.9803,-2.0213,-2.0539,-1.9468,-1.8478,-1.7641,-1.5643,-1.4203,-1.3271,-1.1964,-1.095,-1.0138,-0.9464,-0.9013,-0.8716,-0.8328,-0.8016,-0.7835,-0.7739,-0.7439,-0.6961,-0.6789,-0.6406,-0.6027,-2.4265,-2.4713,-2.5332,-2.6459,-2.7152,-2.7656,-2.8039,-2.8583,-2.9063,-2.9416,-2.9711,-3.0068,-3.0469,-3.0292,-3.0242,-3.0482,-3.0354,-3.0658,-3.1692,-3.1815,-3.1733,-3.1393,-3.0895,-3.0724,-3.0887,-2.9839,-2.9215,-2.9148,-2.8653,-2.8371,-2.8335,-2.7807,-2.7164,-2.6413,-2.5789,-2.5106,-2.4393,-2.4265,-2.4266,-2.4265,-2.3451,-2.2637,-2.184,-2.1044,-2.023,-1.9512,-1.953,-1.9435,-1.932,-1.9305,-1.9261,-1.92,-1.9137,-1.9104,-1.8924,-1.8081,-1.7343,-1.6833,-1.6892,-1.6264,-1.5431,-1.469,-1.4506,-1.4533,-1.4603,-1.4668,-1.4719,-1.4804,-1.4921,-1.4995,-1.5015,-1.5075,-1.5376,-1.6185,-1.6474,-1.686,-1.7608,0.0,-1.8006,-1.8001,-1.794,-1.7531,-1.6595,-1.7164,-1.7216,-1.6338,-1.7527,-1.8264,-1.8173,-1.8619,-1.886,-1.872,-1.9191,-1.9384,-1.9273,-1.8501,-1.7578,-1.6536,-1.4941,-1.3619,-1.2446,-1.1072,-0.9904,-0.9013,-0.835,-0.7675,-0.7052,-0.6812,-0.646,-0.6095,-0.5933,-0.576,-0.555,-0.4992,-0.471,-0.4436,-2.3219,-2.3697,-2.427,-2.5084,-2.5913,-2.6466,-2.6595,-2.73,-2.7862,-2.7964,-2.8292,-2.8643,-2.8951,-2.8768,-2.8701,-2.895,-2.8573,-2.8694,-2.9459,-3.0129,-3.0482,-3.0387,-2.9926,-2.9604,-2.9455,-2.9074,-2.8715,-2.8364,-2.8202,-2.795,-2.7584,-2.7356,-2.6628,-2.5534,-2.5259,-2.4743,-2.4094,-2.4134,-2.4172,-2.4137,-2.2901,-2.2199,-2.1771,-2.0483,-1.9752,-1.9387,-1.9375,-1.9329,-1.923,-1.9196,-1.9166,-1.9137,-1.907,-1.9019,-1.8823,-1.798,-1.69,-1.5868,-1.5464,-1.5126,-1.4808,-1.4477,-1.4417,-1.4481,-1.4571,-1.4645,-1.4726,-1.4785,-1.4877,-1.4957,-1.4995,-1.5407,-1.5892,-1.6375,-1.7296,0.0,0.0,-1.9022,-1.9345,-1.9355,-1.8909,-1.8228,-1.7282,-1.706,-1.6724,-1.613,-1.6661,-1.7298,-1.795,-1.8167,-1.8324,-1.8529,-1.8788,-1.8918,-1.8837,-1.7685,-1.65,-1.5356,-1.3686,-1.2196,-1.0989,-0.9716,-0.8609,-0.7563,-0.6855,-0.6132,-0.5437,-0.5151,-0.478,-0.442,-0.4324,-0.4223,-0.4058,-0.3619,-0.3282,-0.2947,-2.231,-2.2836,-2.339,-2.3878,-2.4747,-2.5347,-2.5313,-2.6106,-2.6661,-2.6477,-2.6806,-2.7089,-2.724,-2.7111,-2.718,-2.7514,-2.7265,-2.7222,-2.7541,-2.829,-2.8946,-2.9404,-2.8945,-2.8526,-2.8144,-2.8366,-2.8154,-2.7438,-2.7646,-2.7396,-2.6702,-2.6601,-2.5967,-2.4919,-2.4765,-2.4436,-2.3976,-2.4034,-2.3984,-2.3749,-2.2335,-2.1671,-2.1392,-1.9908,-1.9326,-1.9277,-1.9248,-1.9219,-1.917,-1.9101,-1.9067,-1.9035,-1.9002,-1.8932,-1.8717,-1.7895,-1.6693,-1.5469,-1.4675,-1.436,-1.4273,-1.4293,-1.435,-1.4428,-1.4556,-1.464,-1.4703,-1.4765,-1.4823,-1.4943,-1.522,-1.5809,-1.6426,-1.6896,0.0,0.0,0.0,-2.0075,-2.0506,-2.0507,-1.9739,-1.8849,-1.7913,-1.6974,-1.6268,-1.5874,-1.5878,-1.643,-1.7658,-1.7718,-1.7879,-1.8263,-1.8262,-1.8202,-1.8069,-1.6623,-1.5282,-1.4011,-1.2245,-1.0678,-0.9388,-0.8262,-0.7162,-0.6089,-0.532,-0.4587,-0.3869,-0.3534,-0.3205,-0.2878,-0.2821,-0.273,-0.2563,-0.2232,-0.1785,-0.1282,-2.1794,-2.2322,-2.2896,-2.3497,-2.4054,-2.4518,-2.4948,-2.5494,-2.5739,-2.5502,-2.5763,-2.5883,-2.5777,-2.5845,-2.6077,-2.6456,-2.6748,-2.6993,-2.7137,-2.6921,-2.7326,-2.8461,-2.8098,-2.7692,-2.7284,-2.7299,-2.7122,-2.6683,-2.6683,-2.6408,-2.579,-2.5162,-2.4825,-2.4706,-2.4154,-2.3865,-2.3816,-2.3896,-2.352,-2.283,-2.1954,-2.1169,-2.042,-1.9563,-1.92,-1.92,-1.915,-1.9101,-1.9087,-1.9036,-1.8966,-1.8913,-1.8914,-1.8861,-1.8627,-1.7772,-1.6955,-1.6154,-1.5428,-1.4715,-1.4211,-1.4281,-1.4356,-1.4411,-1.4488,-1.4567,-1.4624,-1.4693,-1.4755,-1.5067,-1.5866,-1.6119,-1.6747,-1.845,0.0,0.0,-2.0194,-2.0413,-2.0509,-2.0503,-1.9726,-1.8851,-1.7982,-1.7035,-1.6093,-1.5144,-1.5601,-1.6183,-1.6858,-1.7397,-1.7662,-1.7592,-1.7392,-1.6949,-1.6225,-1.4972,-1.3684,-1.2366,-1.0835,-0.9382,-0.8011,-0.6678,-0.5599,-0.4678,-0.3756,-0.3011,-0.2415,-0.2043,-0.1758,-0.1518,-0.136,-0.1174,-0.1005,-0.0559,0.0,0.0614,-2.1023,-2.1675,-2.2384,-2.3017,-2.3556,-2.4015,-2.4465,-2.4623,-2.475,-2.4927,-2.4989,-2.5026,-2.5154,-2.5086,-2.5168,-2.5393,-2.5346,-2.5368,-2.555,-2.5584,-2.6025,-2.6978,-2.7038,-2.7012,-2.6891,-2.6639,-2.6446,-2.6306,-2.5963,-2.5444,-2.4769,-2.4597,-2.4282,-2.3827,-2.3642,-2.3325,-2.2926,-2.2989,-2.2616,-2.1878,-2.1116,-2.0607,-2.0244,-1.9394,-1.9087,-1.9069,-1.8999,-1.8965,-1.8966,-1.8949,-1.8896,-1.8825,-1.8788,-1.8733,-1.8606,-1.8269,-1.7666,-1.7026,-1.6739,-1.6194,-1.5566,-1.5112,-1.5062,-1.5019,-1.4544,-1.4504,-1.4571,-1.4672,-1.5123,-1.5615,-1.6016,-1.696,-1.7937,-1.8659,0.0,-1.9877,-2.0289,-2.0404,-2.0453,-2.0506,-1.9294,-1.8317,-1.7947,-1.656,-1.5503,-1.5038,-1.5104,-1.5621,-1.6688,-1.7436,-1.762,-1.7197,-1.6517,-1.5829,-1.5198,-1.3992,-1.256,-1.0952,-0.9424,-0.7876,-0.6289,-0.5024,-0.3872,-0.2923,-0.2129,-0.1444,-0.0838,-0.0541,-0.0204,0.0104,0.0219,0.0447,0.067,0.1059,0.1561,0.2171,-2.0327,-2.1175,-2.1951,-2.2604,-2.294,-2.3288,-2.3799,-2.3763,-2.3703,-2.3961,-2.4011,-2.4034,-2.4158,-2.4112,-2.4164,-2.4387,-2.4225,-2.4168,-2.4213,-2.4273,-2.4756,-2.5678,-2.5762,-2.5832,-2.5932,-2.5729,-2.5506,-2.5296,-2.4982,-2.4433,-2.3728,-2.3613,-2.3327,-2.2823,-2.267,-2.2358,-2.195,-2.1992,-2.1644,-2.0949,-2.0445,-2.0083,-1.9812,-1.92,-1.8967,-1.8932,-1.8861,-1.8843,-1.8825,-1.8807,-1.8769,-1.8714,-1.8677,-1.862,-1.8545,-1.8545,-1.8195,-1.7807,-1.7844,-1.7575,-1.7048,-1.6022,-1.5673,-1.5436,-1.4891,-1.4641,-1.4589,-1.4962,-1.5496,-1.609,-1.6712,-1.7772,-1.8677,-1.9027,-1.9688,-2.0197,-2.0258,-2.0347,-2.043,-2.0497,-1.9243,-1.8359,-1.8301,-1.6926,-1.5953,-1.5821,-1.5611,-1.5887,-1.6841,-1.7468,-1.7489,-1.6795,-1.5758,-1.4767,-1.3851,-1.2799,-1.1347,-0.957,-0.7901,-0.6276,-0.4728,-0.339,-0.2302,-0.1378,-0.0587,0.0092,0.0573,0.0953,0.1298,0.1595,0.1763,0.1955,0.2289,0.2617,0.3113,0.3776,-1.9817,-2.0728,-2.1565,-2.2273,-2.2211,-2.2309,-2.2884,-2.2782,-2.2565,-2.2474,-2.274,-2.281,-2.2626,-2.2768,-2.3083,-2.3466,-2.3668,-2.3637,-2.3293,-2.3036,-2.3435,-2.4626,-2.4247,-2.4098,-2.429,-2.4413,-2.4211,-2.3608,-2.3648,-2.3354,-2.2694,-2.2062,-2.1788,-2.1753,-2.109,-2.0872,-2.1001,-2.1001,-2.0639,-2.0098,-2.0098,-1.9595,-1.8896,-1.8896,-1.886,-1.8788,-1.8715,-1.8697,-1.8697,-1.8604,-1.8601,-1.8596,-1.8596,-1.852,-1.8385,-1.8385,-1.8445,-1.8505,-1.8584,-1.8696,-1.8449,-1.6974,-1.606,-1.5519,-1.5582,-1.5044,-1.4756,-1.5619,-1.5868,-1.6421,-1.8093,-1.8471,-1.8809,-1.976,-2.0019,-2.0126,-2.0195,-2.0306,-2.0416,-2.05,-1.9729,-1.9194,-1.9195,-1.8358,-1.7747,-1.7617,-1.735,-1.7235,-1.7312,-1.7479,-1.7214,-1.6343,-1.5169,-1.3754,-1.2,-1.1198,-0.9935,-0.8158,-0.627,-0.4685,-0.3322,-0.1868,-0.0802,-0.0134,0.0885,0.1518,0.1864,0.247,0.281,0.2929,0.3192,0.3456,0.368,0.4226,0.4824,0.5425,-1.8322,-1.9208,-2.0007,-2.0558,-2.0969,-2.1391,-2.1763,-2.1748,-2.176,-2.1925,-2.1988,-2.2048,-2.2152,-2.2509,-2.2768,-2.3038,-2.2891,-2.2652,-2.2415,-2.2044,-2.2055,-2.2489,-2.3302,-2.3802,-2.3968,-2.366,-2.3429,-2.327,-2.2355,-2.1827,-2.1615,-2.1044,-2.0756,-2.0739,-2.068,-2.0393,-1.9952,-1.9995,-1.9638,-1.9048,-1.9048,-1.8906,-1.8675,-1.8675,-1.8656,-1.86,-1.8563,-1.8563,-1.8563,-1.8485,-1.8445,-1.8385,-1.8339,-1.8301,-1.8266,-1.8266,-1.8368,-1.8505,-1.8524,-1.8584,-1.8466,-1.759,-1.7273,-1.7044,-1.6494,-1.6242,-1.62,-1.6505,-1.704,-1.7628,-1.822,-1.8838,-1.9382,-1.9707,-1.9873,-2.001,-2.0107,-2.0203,-2.0308,-2.0429,-1.9694,-1.9197,-1.9199,-1.8393,-1.7831,-1.7746,-1.785,-1.778,-1.7453,-1.7542,-1.719,-1.6273,-1.4962,-1.3408,-1.1665,-1.0562,-0.8985,-0.6907,-0.5275,-0.3658,-0.2091,-0.0688,0.0372,0.1166,0.2184,0.2856,0.3332,0.377,0.4234,0.4606,0.4652,0.4999,0.5492,0.5806,0.6342,0.694,-1.7509,-1.8359,-1.9157,-1.9643,-1.9993,-2.0306,-2.0699,-2.069,-2.0745,-2.1056,-2.1183,-2.141,-2.165,-2.182,-2.2033,-2.2275,-2.1841,-2.1495,-2.1368,-2.1042,-2.087,-2.0941,-2.1874,-2.2472,-2.2736,-2.2582,-2.2372,-2.2073,-2.1334,-2.0874,-2.0642,-1.9967,-1.9685,-1.9692,-1.9567,-1.9302,-1.891,-1.8996,-1.8801,-1.8483,-1.8483,-1.8483,-1.8483,-1.8483,-1.8443,-1.8383,-1.8383,-1.8363,-1.8342,-1.8301,-1.8205,-1.8142,-1.807,-1.8053,-1.81,-1.81,-1.8243,-1.8383,-1.8426,-1.8467,-1.8439,-1.8128,-1.793,-1.7671,-1.723,-1.6947,-1.686,-1.7227,-1.7727,-1.8225,-1.8605,-1.9152,-1.9555,-1.9649,-1.9775,-1.9892,-2.0,-2.0106,-2.0215,-2.0347,-1.9944,-1.9681,-1.9702,-1.9232,-1.8877,-1.8712,-1.8749,-1.8564,-1.807,-1.7827,-1.7392,-1.6659,-1.5246,-1.3698,-1.2036,-1.0404,-0.8401,-0.5922,-0.424,-0.2585,-0.1007,0.0333,0.1407,0.2336,0.3382,0.4097,0.4591,0.5181,0.5704,0.614,0.6298,0.6681,0.7111,0.7522,0.8,0.8534,-1.7092,-1.7905,-1.8687,-1.9233,-1.9126,-1.9142,-1.9775,-1.9674,-1.9668,-2.008,-2.0471,-2.0792,-2.1051,-2.0893,-2.0889,-2.1234,-2.0715,-2.0318,-2.0259,-2.007,-1.9904,-1.9879,-2.0196,-2.0503,-2.0815,-2.1227,-2.1133,-2.0463,-2.0459,-2.0185,-1.9644,-1.8902,-1.86,-1.8632,-1.8099,-1.79,-1.7961,-1.8048,-1.8159,-1.827,-1.827,-1.827,-1.827,-1.827,-1.8222,-1.8151,-1.8168,-1.813,-1.8053,-1.8053,-1.7966,-1.7839,-1.7789,-1.7794,-1.7883,-1.7944,-1.8065,-1.8172,-1.8246,-1.8328,-1.8385,-1.854,-1.8108,-1.77,-1.7853,-1.7377,-1.7101,-1.7835,-1.8094,-1.8407,-1.9146,-1.9335,-1.9442,-1.9555,-1.9699,-1.9813,-1.9873,-2.0021,-2.0142,-2.0272,-2.0349,-2.0414,-2.049,-2.0507,-2.039,-2.015,-1.9817,-1.9473,-1.9077,-1.842,-1.7883,-1.7508,-1.6053,-1.4521,-1.2907,-1.0636,-0.8083,-0.5275,-0.3333,-0.1614,-0.0096,0.124,0.2323,0.3338,0.4496,0.5297,0.5878,0.6706,0.7267,0.7629,0.8119,0.8383,0.8639,0.9318,0.9732,1.0033,-1.6131,-1.6675,-1.722,-1.7698,-1.7879,-1.8134,-1.8616,-1.8952,-1.9251,-1.9512,-1.9648,-1.9824,-2.0079,-1.9821,-1.9853,-2.0367,-2.0101,-1.9699,-1.9181,-1.9413,-1.9286,-1.8787,-1.9103,-1.9127,-1.8701,-1.9703,-2.0204,-2.012,-1.9107,-1.8567,-1.8536,-1.7864,-1.7568,-1.7632,-1.7656,-1.7681,-1.7681,-1.7811,-1.7922,-1.7992,-1.7992,-1.7992,-1.7992,-1.7992,-1.7944,-1.7878,-1.7816,-1.7794,-1.7755,-1.7664,-1.7618,-1.7572,-1.7502,-1.7526,-1.7595,-1.7658,-1.7789,-1.79,-1.8031,-1.8095,-1.818,-1.8266,-1.8226,-1.8204,-1.8449,-1.8414,-1.8413,-1.8642,-1.8712,-1.8817,-1.9095,-1.9198,-1.9295,-1.9435,-1.9499,-1.9623,-1.9801,-1.9945,-2.0069,-2.0205,-2.0288,-2.0371,-2.0494,-2.0507,-2.0431,-2.0272,-2.0035,-2.0026,-2.0294,-1.9721,-1.9286,-1.9024,-1.7501,-1.5696,-1.3682,-1.0932,-0.821,-0.5443,-0.3374,-0.1431,0.0397,0.2058,0.3393,0.4488,0.5924,0.6913,0.7652,0.8502,0.9148,0.9607,0.9813,1.0128,1.045,1.0704,1.0956,1.1308,-1.5584,-1.5989,-1.64,-1.6864,-1.7145,-1.7423,-1.7963,-1.8135,-1.8353,-1.8614,-1.8647,-1.875,-1.899,-1.8754,-1.861,-1.8847,-1.8975,-1.8894,-1.8556,-1.8625,-1.8528,-1.8179,-1.8204,-1.8092,-1.7779,-1.8129,-1.8484,-1.8831,-1.8127,-1.7695,-1.7474,-1.7154,-1.7043,-1.7117,-1.7288,-1.7384,-1.7425,-1.7502,-1.7618,-1.771,-1.771,-1.771,-1.771,-1.7664,-1.7618,-1.7549,-1.7479,-1.7415,-1.7361,-1.7199,-1.7175,-1.7175,-1.715,-1.7199,-1.7272,-1.7344,-1.7479,-1.7635,-1.7681,-1.7794,-1.7927,-1.7992,-1.8057,-1.8187,-1.8487,-1.8639,-1.8715,-1.8752,-1.8771,-1.8843,-1.893,-1.8999,-1.9101,-1.9282,-1.9353,-1.9467,-1.9623,-1.98,-1.9947,-2.0089,-2.0192,-2.0302,-2.0441,-2.0455,-2.0427,-2.0347,-2.0619,-2.0831,-2.0978,-2.091,-2.0771,-2.0553,-1.9018,-1.7175,-1.5076,-1.1856,-0.8495,-0.509,-0.2759,-0.0511,0.1592,0.3445,0.4937,0.6206,0.7594,0.8652,0.943,1.0265,1.0923,1.1373,1.1612,1.1828,1.2092,1.2297,1.2453,1.2764,-1.5177,-1.5584,-1.5931,-1.64,-1.6637,-1.6899,-1.7379,-1.7337,-1.7347,-1.7513,-1.7592,-1.7698,-1.7875,-1.7675,-1.7462,-1.7391,-1.7774,-1.7988,-1.7972,-1.7819,-1.7683,-1.7505,-1.7253,-1.7086,-1.7049,-1.66,-1.6668,-1.7397,-1.7358,-1.7066,-1.6617,-1.667,-1.6738,-1.6825,-1.6935,-1.7027,-1.7093,-1.7175,-1.7272,-1.7368,-1.7368,-1.7368,-1.7368,-1.7313,-1.7264,-1.7199,-1.7117,-1.7018,-1.6866,-1.6763,-1.6712,-1.6712,-1.6773,-1.6825,-1.6917,-1.7002,-1.7126,-1.7264,-1.7313,-1.7455,-1.7595,-1.7658,-1.7749,-1.7883,-1.8163,-1.8385,-1.8505,-1.8506,-1.8584,-1.866,-1.8717,-1.8807,-1.8913,-1.9084,-1.9198,-1.9305,-1.9452,-1.963,-1.9811,-1.9955,-2.0088,-2.0234,-2.0351,-2.0383,-2.0371,-2.0371,-2.1138,-2.1582,-2.1533,-2.2029,-2.2248,-2.2149,-2.0679,-1.8794,-1.6507,-1.2658,-0.856,-0.4204,-0.1153,0.1309,0.3276,0.519,0.686,0.8287,0.9541,1.0572,1.1329,1.2173,1.2773,1.3175,1.346,1.3564,1.3632,1.3852,1.3967,1.4093,-1.4765,-1.5177,-1.5584,-1.5931,-1.6239,-1.6409,-1.6319,-1.6644,-1.6774,-1.6531,-1.6522,-1.6527,-1.6609,-1.6638,-1.6739,-1.696,-1.7199,-1.7194,-1.6914,-1.7038,-1.6743,-1.5847,-1.5881,-1.573,-1.525,-1.5215,-1.5814,-1.697,-1.6423,-1.6187,-1.6285,-1.6285,-1.634,-1.6463,-1.6554,-1.6633,-1.6701,-1.6747,-1.6825,-1.6892,-1.6892,-1.6892,-1.6892,-1.6892,-1.6825,-1.6773,-1.6712,-1.6554,-1.6394,-1.6367,-1.6382,-1.6367,-1.6367,-1.6436,-1.6517,-1.6633,-1.6701,-1.6738,-1.6926,-1.7027,-1.7101,-1.7175,-1.732,-1.7479,-1.7526,-1.7861,-1.818,-1.817,-1.8273,-1.8391,-1.8524,-1.8603,-1.8679,-1.8825,-1.9,-1.9168,-1.9305,-1.9513,-1.9675,-1.9811,-2.0012,-2.0145,-2.0219,-2.0276,-2.0308,-2.0317,-2.1118,-2.1872,-2.2481,-2.313,-2.362,-2.3948,-2.2524,-2.0274,-1.7284,-1.251,-0.7516,-0.2316,0.2474,0.4904,0.5284,0.7512,0.9344,1.0772,1.1983,1.2969,1.3672,1.4394,1.4936,1.5283,1.5327,1.5351,1.5342,1.5152,1.5073,1.5085,-1.4469,-1.4765,-1.501,-1.543,-1.5521,-1.5517,-1.5571,-1.5553,-1.5509,-1.5432,-1.5418,-1.5441,-1.5556,-1.59,-1.6151,-1.6281,-1.6595,-1.6619,-1.6163,-1.61,-1.5734,-1.5023,-1.4782,-1.4615,-1.4465,-1.4452,-1.4766,-1.5441,-1.5445,-1.5566,-1.5754,-1.5782,-1.5868,-1.5953,-1.6022,-1.6133,-1.6274,-1.6285,-1.6367,-1.6474,-1.6474,-1.6474,-1.6474,-1.6421,-1.6382,-1.634,-1.616,-1.6022,-1.5909,-1.5811,-1.5811,-1.5854,-1.5854,-1.5896,-1.5966,-1.6077,-1.6176,-1.6285,-1.6367,-1.6528,-1.6659,-1.6712,-1.685,-1.7002,-1.7002,-1.7224,-1.7509,-1.7827,-1.7954,-1.8078,-1.8243,-1.829,-1.8393,-1.8585,-1.8734,-1.8878,-1.9049,-1.9261,-1.9442,-1.9662,-1.9797,-1.9901,-1.9973,-2.0031,-2.0255,-2.0716,-2.1557,-2.2377,-2.311,-2.3857,-2.4473,-2.4966,-2.413,-2.1387,-1.6608,-1.1743,-0.5744,0.1383,0.6801,0.9129,0.8648,1.074,1.2457,1.3837,1.4739,1.5452,1.6031,1.6456,1.677,1.6974,1.6889,1.6676,1.6416,1.6182,1.5964,1.5876]},{"header":{"parameterUnit":"m.s-1","parameterCategory":1,"la1":30.6,"la2":28.766,"lo1":-90.7593,"lo2":-88.6598,"dy":0.0162,"dx":0.0183,"nx":116,"ny":114,"refTime":"2023-07-16T00:00:00:Z","depth":0,"parameterNumber":3,"parameterNumberName":"V-component_of_WINDS"},"data":[0.0,0.0,0.0,0.0,0.0,0.0,0.0,0.0,0.0,0.0,0.0,0.0,0.0,0.0,0.0,0.0,0.0,0.0,0.0,0.0,0.0,0.0,0.0,0.0,0.0,0.0,0.0,0.0,0.0,0.0,0.0,0.0,0.0,0.0,0.0,0.0,0.0,0.0,0.0,0.0,0.0,0.0,0.0,0.0,0.0,0.0,0.0,0.0,0.0,0.0,0.0,0.0,0.0,0.0,0.0,0.0,0.0,0.0,0.0,0.0,0.0,0.0,0.0,0.0,0.0,0.0,0.0,0.0,0.0,0.0,0.0,0.0,0.0,0.0,0.0,0.0,0.0,0.0,0.0,0.0,0.0,0.0,0.0,0.0,0.0,0.0,0.0,0.0,0.0,0.0,0.0,0.0,0.0,0.0,0.0,0.0,0.0,0.0,0.0,0.0,0.0,0.0,0.0,0.0,0.0,0.0,0.0,0.0,0.0,0.0,0.0,0.0,0.0,0.0,0.0,0.0,0.0,0.0,0.0,0.0,0.0,0.0,0.0,0.0,0.0,0.0,0.0,0.0,0.0,0.0,0.0,0.0,0.0,0.0,0.0,0.0,0.0,0.0,0.0,0.0,0.0,0.0,0.0,0.0,0.0,0.0,0.0,0.0,0.0,0.0,0.0,0.0,0.0,0.0,0.0,0.0,0.0,0.0,0.0,0.0,0.0,0.0,0.0,0.0,0.0,0.0,0.0,0.0,0.0,0.0,0.0,0.0,0.0,0.0,0.0,0.0,0.0,0.0,0.0,0.0,0.0,0.0,0.0,0.0,0.0,0.0,0.0,0.0,0.0,0.0,0.0,0.0,0.0,0.0,0.0,0.0,0.0,0.0,0.0,0.0,0.0,0.0,0.0,0.0,0.0,0.0,0.0,0.0,0.0,0.0,0.0,0.0,0.0,0.0,0.0,0.0,0.0,0.0,0.0,0.0,0.0,0.0,0.0,0.0,0.0,0.0,0.0,0.0,0.0,0.0,0.0,0.0,0.0,0.0,0.0,0.0,0.0,0.0,0.0,0.0,0.0,0.0,0.0,0.0,0.0,0.0,0.0,0.0,0.0,0.0,0.0,0.0,0.0,0.0,0.0,0.0,0.0,0.0,0.0,0.0,0.0,0.0,0.0,0.0,0.0,0.0,0.0,0.0,0.0,0.0,0.0,0.0,0.0,0.0,0.0,0.0,0.0,0.0,0.0,0.0,0.0,0.0,0.0,0.0,0.0,0.0,0.0,0.0,0.0,0.0,0.0,0.0,0.0,0.0,0.0,0.0,0.0,0.0,0.0,0.0,0.0,0.0,0.0,0.0,0.0,0.0,0.0,0.0,0.0,0.0,0.0,0.0,0.0,0.0,0.0,0.0,0.0,0.0,0.0,0.0,0.0,0.0,0.0,0.0,0.0,0.0,0.0,0.0,0.0,0.0,0.0,0.0,0.0,0.0,0.0,0.0,0.0,0.0,0.0,0.0,0.0,0.0,0.0,0.0,0.0,0.0,0.0,0.0,0.0,0.0,0.0,0.0,0.0,0.0,0.0,0.0,0.0,0.0,0.0,0.0,0.0,0.0,0.0,0.0,0.0,0.0,0.0,0.0,0.0,0.0,0.0,0.0,0.0,0.0,0.0,0.0,0.0,0.0,0.0,0.0,0.0,0.0,0.0,0.0,0.0,0.0,0.0,0.0,0.0,0.0,0.0,0.0,0.0,0.0,0.0,0.0,0.0,0.0,0.0,0.0,0.0,0.0,0.0,0.0,0.0,0.0,0.0,0.0,0.0,0.0,0.0,0.0,0.0,0.0,0.0,0.0,0.0,0.0,0.0,0.0,0.0,0.0,0.0,0.0,0.0,0.0,0.0,0.0,0.0,0.0,0.0,0.0,0.0,0.0,0.0,0.0,0.0,0.0,0.0,0.0,0.0,0.0,0.0,0.0,0.0,0.0,0.0,0.0,0.0,0.0,0.0,0.0,0.0,0.0,0.0,0.0,0.0,0.0,0.0,0.0,0.0,0.0,0.0,0.0,0.0,0.0,0.0,0.0,0.0,0.0,0.0,0.0,0.0,0.0,0.0,0.0,0.0,0.0,0.0,0.0,0.0,0.0,0.0,0.0,0.0,0.0,0.0,0.0,0.0,0.0,0.0,0.0,0.0,0.0,0.0,0.0,0.0,0.0,0.0,0.0,0.0,0.0,0.0,0.0,0.0,0.0,0.0,0.0,0.0,0.0,0.0,0.0,0.0,0.0,0.0,0.0,0.0,0.0,0.0,0.0,0.0,0.0,0.0,0.0,0.0,0.0,0.0,0.0,0.0,0.0,0.0,0.0,0.0,0.0,0.0,0.0,0.0,0.0,0.0,0.0,0.0,0.0,0.0,0.0,0.0,0.0,0.0,0.0,0.0,0.0,0.0,0.0,0.0,0.0,0.0,0.0,0.0,0.0,0.0,0.0,0.0,0.0,0.0,0.0,0.0,0.0,0.0,0.0,0.0,0.0,0.0,0.0,0.0,0.0,0.0,0.0,0.0,0.0,0.0,0.0,0.0,0.0,0.0,0.0,0.0,0.0,0.0,0.0,0.0,0.0,0.0,0.0,0.0,0.0,0.0,0.0,0.0,0.0,0.0,0.0,0.0,0.0,0.0,0.0,0.0,0.0,0.0,0.0,0.0,0.0,0.0,0.0,0.0,0.0,0.0,0.0,0.0,0.0,0.0,0.0,0.0,0.0,0.0,0.0,0.0,0.0,0.0,0.0,0.0,0.0,0.0,0.0,0.0,0.0,0.0,0.0,0.0,0.0,0.0,0.0,0.0,0.0,0.0,0.0,0.0,0.0,0.0,0.0,0.0,0.0,0.0,0.0,0.0,0.0,0.0,0.0,0.0,0.0,0.0,0.0,0.0,0.0,0.0,0.0,0.0,0.0,0.0,0.0,0.0,0.0,0.0,0.0,0.0,0.0,0.0,0.0,0.0,0.0,0.0,0.0,0.0,0.0,0.0,0.0,0.0,0.0,0.0,0.0,0.0,0.0,0.0,0.0,0.0,0.0,0.0,0.0,0.0,0.0,0.0,0.0,0.0,0.0,0.0,0.0,0.0,0.0,0.0,0.0,0.0,0.0,0.0,0.0,0.0,0.0,0.0,0.0,0.0,0.0,0.0,0.0,0.0,0.0,0.0,0.0,0.0,0.0,0.0,0.0,0.0,0.0,0.0,0.0,0.0,0.0,0.0,0.0,0.0,0.0,0.0,0.0,0.0,0.0,0.0,0.0,0.0,0.0,0.0,0.0,0.0,0.0,0.0,0.0,0.0,0.0,0.0,0.0,0.0,0.0,0.0,0.0,0.0,0.0,0.0,0.0,0.0,0.0,0.0,0.0,0.0,0.0,0.0,0.0,0.0,0.0,0.0,0.0,0.0,0.0,0.0,0.0,0.0,0.0,0.0,0.0,0.0,0.0,0.0,0.0,0.0,0.0,0.0,0.0,0.0,0.0,0.0,0.0,0.0,0.0,0.0,0.0,0.0,0.0,0.0,0.0,0.0,0.0,0.0,0.0,0.0,0.0,0.0,0.0,0.0,0.0,0.0,0.0,0.0,0.0,0.0,0.0,0.0,0.0,0.0,0.0,0.0,0.0,0.0,0.0,0.0,0.0,0.0,0.0,0.0,0.0,0.0,0.0,0.0,0.0,0.0,0.0,0.0,0.0,0.0,0.0,0.0,0.0,0.0,0.0,0.0,0.0,0.0,0.0,0.0,0.0,0.0,0.0,0.0,0.0,0.0,0.0,0.0,0.0,0.0,0.0,0.0,0.0,0.0,0.0,0.0,0.0,0.0,0.0,0.0,0.0,0.0,0.0,0.0,0.0,0.0,0.0,0.0,0.0,0.0,0.0,0.0,0.0,0.0,0.0,0.0,0.0,0.0,0.0,0.0,0.0,0.0,0.0,0.0,0.0,0.0,0.0,0.0,0.0,0.0,0.0,0.0,0.0,0.0,0.0,0.0,0.0,0.0,0.0,0.0,0.0,0.0,0.0,0.0,0.0,0.0,0.0,0.0,0.0,0.0,0.0,0.0,0.0,0.0,0.0,0.0,0.0,0.0,0.0,0.0,0.0,0.0,0.0,0.0,0.0,0.0,0.0,0.0,0.0,0.0,0.0,0.0,0.0,0.0,0.0,0.0,0.0,0.0,0.0,0.0,0.0,0.0,0.0,0.0,0.0,0.0,0.0,0.0,0.0,0.0,0.0,0.0,0.0,0.0,0.0,0.0,0.0,0.0,0.0,0.0,0.0,0.0,0.0,0.0,0.0,0.0,0.0,0.0,0.0,0.0,0.0,0.0,0.0,0.0,0.0,0.0,0.0,0.0,0.0,0.0,0.0,0.0,0.0,0.0,0.0,0.0,0.0,0.0,0.0,0.0,0.0,0.0,0.0,0.0,0.0,0.0,0.0,0.0,0.0,0.0,0.0,0.0,0.0,0.0,0.0,0.0,0.0,0.0,0.0,0.0,0.0,0.0,0.0,0.0,0.0,0.0,0.0,0.0,0.0,0.0,0.0,0.0,0.0,0.0,0.0,0.0,0.0,0.0,0.0,0.0,0.0,0.0,0.0,0.0,0.0,0.0,0.0,0.0,0.0,0.0,0.0,0.0,0.0,0.0,0.0,0.0,0.0,0.0,0.0,0.0,0.0,0.0,0.0,0.0,0.0,0.0,0.0,0.0,0.0,0.0,0.0,0.0,0.0,0.0,0.0,0.0,0.0,0.0,0.0,0.0,0.0,0.0,0.0,0.0,0.0,0.0,0.0,0.0,0.0,0.0,0.0,0.0,0.0,0.0,0.0,0.0,0.0,0.0,0.0,0.0,0.0,0.0,0.0,0.0,0.0,0.0,0.0,0.0,0.0,0.0,0.0,0.0,0.0,0.0,0.0,0.0,0.0,0.0,0.0,0.0,0.0,0.0,0.0,0.0,0.0,0.0,0.0,0.0,0.0,0.0,0.0,0.0,0.0,0.0,0.0,0.0,0.0,0.0,0.0,0.0,0.0,0.0,0.0,0.0,0.0,0.0,0.0,0.0,0.0,0.0,0.0,0.0,0.0,0.0,0.0,0.0,0.0,0.0,0.0,0.0,0.0,0.0,0.0,0.0,0.0,0.0,0.0,0.0,0.0,0.0,0.0,0.0,0.0,0.0,0.0,0.0,0.0,0.0,0.0,0.0,0.0,0.0,0.0,0.0,0.0,0.0,0.0,0.0,0.0,0.0,0.0,0.0,0.0,0.0,0.0,0.0,0.0,0.0,0.0,0.0,0.0,0.0,0.0,0.0,0.0,0.0,0.0,0.0,0.0,0.0,0.0,0.0,0.0,0.0,0.0,0.0,0.0,0.0,0.0,0.0,0.0,0.0,0.0,0.0,0.0,0.0,0.0,0.0,0.0,0.0,0.0,0.0,0.0,0.0,0.0,0.0,0.0,0.0,0.0,0.0,0.0,0.0,0.0,0.0,0.0,0.0,0.0,0.0,0.0,0.0,0.0,0.0,0.0,0.0,0.0,0.0,0.0,0.0,0.0,0.0,0.0,0.0,0.0,0.0,0.0,0.0,0.0,0.0,0.0,0.0,0.0,0.0,0.0,0.0,0.0,0.0,0.0,0.0,0.0,0.0,0.0,0.0,0.0,0.0,0.0,0.0,0.0,0.0,0.0,0.0,0.0,0.0,0.0,0.0,0.0,0.0,0.0,0.0,0.0,0.0,0.0,0.0,0.0,0.0,0.0,0.0,0.0,0.0,0.0,0.0,0.0,0.0,0.0,0.0,0.0,0.0,0.0,0.0,0.0,0.0,0.0,0.0,0.0,0.0,0.0,0.0,0.0,0.0,0.0,0.0,0.0,0.0,0.0,0.0,0.0,0.0,0.0,0.0,0.0,0.0,0.0,0.0,0.0,0.0,0.0,0.0,0.0,0.0,0.0,0.0,0.0,0.0,0.0,0.0,0.0,0.0,0.0,0.0,0.0,0.0,0.0,0.0,0.0,0.0,0.0,0.0,0.0,0.0,0.0,0.0,0.0,0.0,0.0,0.0,0.0,0.0,0.0,-0.9259,0.0,0.0,0.0,0.0,0.0,0.0,0.0,0.0,0.0,0.0,0.0,0.0,0.0,0.0,0.0,0.0,0.0,0.0,0.0,0.0,0.0,0.0,0.0,0.0,0.0,0.0,0.0,0.0,0.0,0.0,0.0,0.0,0.0,0.0,0.0,0.0,0.0,0.0,0.0,0.0,0.0,0.0,0.0,0.0,0.0,0.0,0.0,0.0,0.0,0.0,0.0,0.0,0.0,0.0,0.0,0.0,0.0,0.0,0.0,0.0,0.0,0.0,0.0,0.0,0.0,0.0,0.0,0.0,0.0,0.0,0.0,0.0,0.0,0.0,0.0,0.0,0.0,0.0,0.0,0.0,0.0,0.0,0.0,0.0,0.0,0.0,0.0,0.0,0.0,0.0,0.0,0.0,0.0,0.0,0.0,0.0,0.0,0.0,0.0,0.0,0.0,0.0,0.0,0.0,0.0,0.0,0.0,0.0,0.0,0.0,0.0,0.0,0.0,0.0,0.0,0.0,-0.984,0.0,0.0,0.0,0.0,0.0,0.0,0.0,0.0,0.0,0.0,0.0,0.0,0.0,0.0,0.0,0.0,0.0,0.0,0.0,0.0,0.0,0.0,0.0,0.0,0.0,0.0,0.0,0.0,0.0,0.0,0.0,0.0,0.0,0.0,0.0,0.0,0.0,0.0,0.0,0.0,0.0,0.0,0.0,0.0,0.0,0.0,0.0,0.0,0.0,0.0,0.0,0.0,0.0,0.0,0.0,0.0,0.0,0.0,0.0,0.0,0.0,0.0,0.0,0.0,0.0,0.0,0.0,0.0,0.0,0.0,0.0,0.0,0.0,0.0,0.0,0.0,0.0,0.0,0.0,0.0,0.0,0.0,0.0,0.0,0.0,0.0,0.0,0.0,0.0,0.0,0.0,0.0,0.0,0.0,0.0,0.0,0.0,0.0,0.0,0.0,0.0,0.0,0.0,0.0,0.0,0.0,0.0,0.0,-1.02,-1.0667,-1.076,-1.1676,-1.2031,-1.1893,-1.1172,-1.0987,-1.1245,-1.1371,0.0,0.0,0.0,0.0,0.0,0.0,0.0,0.0,0.0,0.0,0.0,0.0,0.0,0.0,0.0,0.0,0.0,0.0,0.0,0.0,0.0,0.0,0.0,0.0,0.0,0.0,0.0,0.0,0.0,0.0,0.0,0.0,0.0,0.0,0.0,0.0,0.0,0.0,0.8521,0.7636,0.6576,0.5314,0.3321,0.0,0.0,0.0,0.0,0.0,0.0,0.0,0.0,0.0,0.0,0.0,0.0,0.0,0.0,0.0,0.0,0.0,0.0,0.0,0.0,0.0,0.0,0.0,0.0,0.0,0.0,0.0,0.0,0.0,0.0,0.0,0.0,0.0,0.0,0.0,0.0,0.0,0.0,0.0,0.0,0.0,0.0,0.0,-0.0528,-0.1164,0.0,0.0,0.0,0.0,0.0,0.0,0.0,0.0,0.0,0.0,0.0,0.0,0.0,-0.7563,-0.818,-0.8757,-0.9245,-0.974,-1.0297,-1.0847,-1.1216,-1.1865,-1.2307,-1.2632,-1.3046,0.0,-1.2198,-1.2172,0.0,0.0,0.0,0.0,0.0,0.0,0.0,0.0,0.0,0.0,0.0,0.0,0.0,0.0,0.0,0.0,0.0,0.0,0.0,0.0,0.0,0.0,0.0,0.0,0.0,0.0,0.0,0.0,0.0,0.0,0.0,0.0,0.0,0.0,0.0,0.0,1.1427,1.0423,0.9409,0.8534,0.7435,0.6067,0.4407,0.2773,0.1175,-0.0157,0.0,0.0,0.0,0.0,0.0,0.0,0.0,0.0,0.0,0.0,0.0,0.0,0.0,0.0,0.0,0.0,0.0,0.0,0.0,0.0,0.0,0.0,0.0,0.0,0.0,0.0,0.0,0.0,0.0,0.0,0.0,0.0,0.0,0.0,0.0,0.0,0.0,0.0,0.0,0.0225,-0.047,-0.0895,-0.1565,-0.2089,0.0,0.0,0.0,0.0,0.0,0.0,0.0,0.0,0.0,-0.7112,-0.7639,-0.8217,-0.895,-0.942,-0.9944,-1.0637,-1.1115,-1.1687,-1.2162,-1.2636,-1.3114,-1.3485,-1.3809,-1.3816,-1.3636,-1.362,-1.349,-1.3441,0.0,0.0,0.0,0.0,-1.3425,-1.3328,0.0,0.0,0.0,0.0,0.0,0.0,0.0,0.0,0.0,0.0,0.0,0.0,0.0,0.0,0.0,1.3154,0.0,0.0,0.0,0.0,0.0,0.0,0.0,0.0,0.0,0.0,0.0,0.0,1.2224,1.136,1.0223,0.9308,0.8176,0.6715,0.55,0.3756,0.1724,0.047,-0.094,0.0,0.0,0.0,0.0,0.0,0.0,0.0,0.0,0.0,0.0,0.0,0.0,0.0,0.0,0.0,0.0,0.0,0.0,0.0,0.0,0.0,0.0,0.0,0.0,0.0,0.0,0.0,0.0,0.0,0.0,0.0,0.0,0.0,0.0,0.0,0.0,0.0,0.0,0.0237,-0.0328,-0.0682,-0.1461,-0.2,0.0,0.0,0.0,0.0,0.0,0.0,-0.5678,-0.6412,-0.7042,-0.7641,-0.8117,-0.8767,-0.9425,-0.99,-1.0554,-1.1194,-1.178,-1.2273,-1.2861,-1.3249,-1.3636,-1.4016,-1.4389,-1.4671,-1.4833,-1.4747,-1.4608,-1.4388,-1.4723,-1.4699,-1.4462,-1.4624,-1.4574,-1.4488,0.0,0.0,0.0,0.0,0.0,0.0,0.0,0.0,0.0,0.0,0.0,0.0,0.0,0.0,1.3116,1.3531,1.3998,1.4505,0.0,0.0,0.0,0.0,0.0,0.0,0.0,0.0,0.0,1.4008,1.3099,1.2041,1.0966,0.9961,0.8743,0.7346,0.6227,0.448,0.2353,0.1097,-0.0313,-0.1724,0.0,0.0,0.0,0.0,0.0,0.0,0.0,0.0,0.0,0.0,0.0,0.0,0.0,0.0,0.0,0.0,0.0,0.0,0.0,0.0,0.0,0.0,0.0,0.0,0.0,0.0,0.0,0.0,0.0,0.0,0.0,0.0,0.0,0.0,0.0,0.0,0.0,0.0,0.0,-0.0713,-0.1456,0.0,0.0,0.0,0.0,-0.4176,-0.4843,-0.5509,-0.6075,-0.6555,-0.7089,-0.7894,-0.8383,-0.8949,-0.9612,-1.0105,-1.0694,-1.1194,-1.178,-1.2273,-1.2861,-1.3249,-1.3823,-1.4298,-1.4873,-1.5248,-1.5475,-1.5106,-1.5116,-1.5253,-1.5704,-1.5874,-1.5934,-1.647,-1.6436,-1.603,0.0,0.0,0.0,0.0,0.0,0.0,0.0,0.0,0.0,0.0,0.0,0.0,0.0,1.2739,1.3528,1.4284,1.4575,1.5014,1.5537,0.0,0.0,0.0,0.0,0.0,0.0,0.0,1.4971,1.4306,1.3406,1.2463,1.1485,1.0582,0.9442,0.7982,0.702,0.5586,0.3602,0.2115,0.0548,-0.1019,-0.1958,-0.3039,0.0,0.0,0.0,0.0,0.0,0.0,0.0,0.0,0.0,0.0,0.0,0.0,0.0,0.0,0.0,0.0,0.0,0.0,0.0,0.0,0.0,0.0,0.0,0.0,0.0,0.0,0.0,0.0,0.0,0.0,0.0,0.0,0.0,0.0,0.0,0.0,0.0,-0.0456,-0.1305,0.0,-0.2289,-0.3242,-0.3908,-0.4189,-0.5008,-0.5721,-0.6489,-0.6854,-0.7508,-0.8441,-0.8641,-0.9162,-1.0117,-1.0314,-1.0801,-1.1683,-1.1878,-1.2467,-1.3249,-1.3443,-1.3925,-1.4592,-1.4981,-1.5363,-1.5717,-1.5978,-1.5957,-1.5861,-1.6147,-1.6393,-1.6566,-1.6742,-1.6835,-1.6756,0.0,0.0,0.0,0.0,0.0,0.0,0.0,0.0,0.0,0.0,0.0,1.1741,1.2384,1.3255,1.4017,1.4736,1.5032,1.5416,1.6018,0.0,0.0,0.0,0.0,0.0,0.0,1.6238,1.5589,1.4832,1.3959,1.3048,1.2091,1.1215,1.0053,0.8668,0.7799,0.6485,0.4693,0.3366,0.1644,-0.0235,-0.1097,-0.2194,-0.3443,0.0,0.0,0.0,0.0,0.0,0.0,0.0,0.0,0.0,0.0,0.0,0.0,0.0,0.0,0.0,0.0,0.0,0.0,0.0,0.0,0.0,0.0,0.0,0.0,0.0,0.0,0.0,0.0,0.0,0.0,0.0,0.0,0.0,0.0,0.0966,0.0366,-0.0282,-0.1147,-0.1836,-0.2333,-0.3207,-0.3886,-0.4369,-0.5107,-0.593,-0.6813,-0.709,-0.7733,-0.8726,-0.8825,-0.932,-1.0413,-1.0511,-1.0998,-1.198,-1.2175,-1.2662,-1.3539,-1.3732,-1.4112,-1.4885,-1.5077,-1.5458,-1.5927,-1.64,-1.6556,-1.6551,-1.6842,-1.6992,-1.7169,-1.7348,-1.7354,-1.7267,0.0,0.0,0.0,0.0,0.0,0.0,0.0,0.0,0.0,0.0,1.1619,1.2314,1.2593,1.3723,1.455,1.4681,1.5261,1.5869,1.6437,1.6548,0.0,0.0,0.0,0.0,1.7458,1.7042,1.6405,1.5626,1.4802,1.379,1.2705,1.1864,1.0718,0.9276,0.8443,0.7218,0.5532,0.4761,0.2968,0.0626,-0.0235,-0.1332,-0.2588,0.0,0.0,0.0,0.0,0.0,0.0,0.0,0.0,0.0,0.0,0.0,0.0,0.0,0.0,0.0,0.0,0.0,0.0,0.0,0.0,0.0,0.0,0.0,0.0,0.0,0.0,0.0,0.0,0.0,0.0,0.0,0.0,0.0,0.1878,0.1371,0.0753,-0.0293,-0.0884,-0.1484,-0.2316,-0.3126,-0.3929,-0.4734,-0.5336,-0.6034,-0.7138,-0.7238,-0.7733,-0.8726,-0.8825,-0.932,-1.0413,-1.0703,-1.1194,-1.198,-1.2565,-1.3055,-1.3539,-1.401,-1.4592,-1.5083,-1.5356,-1.5737,-1.6218,-1.6494,-1.6864,-1.7333,-1.7628,-1.7729,-1.7822,-1.8295,-1.8247,-1.7835,0.0,0.0,0.0,0.0,0.0,0.0,0.0,0.0,0.0,0.0,1.2109,1.2786,1.3488,1.4052,1.4541,1.4973,1.5522,1.5998,1.6322,0.0,0.0,0.0,0.0,0.0,1.786,1.7226,1.6509,1.571,1.4919,1.4018,1.2906,1.2177,1.1002,0.9526,0.8821,0.7594,0.6068,0.5261,0.3894,0.2137,0.0778,-0.047,-0.1724,0.0,0.0,0.0,0.0,0.0,0.0,0.0,0.0,0.0,0.0,0.0,0.0,0.0,0.0,0.0,0.0,0.0,0.0,0.0,0.0,0.0,0.0,0.0,0.0,0.0,0.0,0.0,0.0,0.0,0.0,0.0,0.3663,0.3028,0.2152,0.15,0.0873,0.0,-0.0795,-0.1506,-0.2319,-0.3126,-0.383,-0.4437,-0.5238,-0.5937,-0.6842,-0.7138,-0.7733,-0.8726,-0.8825,-0.932,-1.0413,-1.0703,-1.1194,-1.198,-1.2565,-1.3055,-1.3539,-1.401,-1.4592,-1.5083,-1.5547,-1.6015,-1.6494,-1.6784,-1.716,-1.7628,-1.7628,-1.7916,-1.8295,-1.8481,-1.8182,-1.7802,0.0,0.0,0.0,0.0,0.0,0.0,0.0,0.0,0.0,0.0,1.2745,1.328,1.4021,1.4426,1.4857,1.5275,1.5872,1.6348,1.6727,0.0,0.0,0.0,0.0,1.8142,1.7936,1.7309,1.6654,1.5904,1.5155,1.4292,1.3271,1.2582,1.1507,1.0233,0.9405,0.8282,0.6861,0.594,0.4753,0.3274,0.206,0.0621,-0.0863,-0.1647,-0.251,-0.3292,-0.368,-0.4344,-0.498,-0.498,0.0,0.0,0.0,0.0,0.0,0.0,0.0,0.0,0.0,0.0,0.0,0.0,0.0,0.0,0.0,0.0,0.0,0.0,0.0,0.0,0.0,0.0,0.0,0.0,0.3967,0.3471,0.2604,0.1922,0.1182,0.0298,-0.0401,-0.1212,-0.2118,-0.2823,-0.363,-0.4338,-0.5037,-0.5839,-0.6745,-0.7042,-0.7733,-0.8726,-0.8825,-0.932,-1.0413,-1.0806,-1.1292,-1.198,-1.2759,-1.3249,-1.3539,-1.4304,-1.479,0.0,-1.5743,-1.6211,-1.6581,-1.6885,-1.7347,0.0,0.0,0.0,0.0,0.0,-1.839,-1.7953,0.0,0.0,0.0,0.0,0.0,0.0,0.0,0.0,0.0,0.0,0.0,1.3894,1.4419,1.4935,1.5333,1.562,1.6173,1.6788,0.0,0.0,0.0,1.8566,1.8629,1.844,1.7975,1.744,1.6888,1.6201,1.5477,1.4663,1.3769,1.3122,1.2162,1.1038,1.0143,0.9034,0.7706,0.6804,0.5538,0.4054,0.3335,0.1828,0.0,-0.0862,-0.1647,-0.2431,-0.282,-0.3522,-0.4226,-0.4304,0.0,0.0,0.0,0.0,0.0,0.0,0.0,0.0,0.0,0.0,0.0,0.0,0.0,0.0,0.0,0.0,0.0,0.0,0.0,0.0,0.0,0.0,0.0,0.0,0.43,0.3863,0.3222,0.246,0.1586,0.0605,-0.0101,-0.0808,-0.1816,-0.2422,-0.3229,-0.4237,-0.4839,-0.5641,-0.6645,0.0,0.0,0.0,0.0,-0.932,-1.0413,-1.09,-1.1487,-1.198,-1.2958,-1.3443,-1.3539,-1.4598,-1.5083,-1.5178,-1.5933,-1.6407,-1.6581,-1.6878,-1.7441,-1.8087,-1.8179,-1.8373,-1.8666,-1.9012,-1.8734,-1.8213,0.0,0.0,0.0,0.0,0.0,0.0,0.0,0.0,0.0,1.3515,1.4165,1.4628,1.4926,1.5404,1.5721,1.5766,1.6438,1.7243,0.0,0.0,1.9215,1.9436,1.909,1.8859,1.8753,1.8179,1.7585,1.6898,1.6201,1.5378,1.4351,1.3533,1.2542,1.1383,1.0367,0.9338,0.8291,0.7233,0.6105,0.4911,0.3961,0.2557,0.0841,0.0078,-0.0784,-0.1568,-0.2195,-0.2821,-0.3366,-0.3602,-0.3839,-0.407,-0.421,0.0,0.0,0.0,0.0,0.0,0.0,0.0,0.0,0.0,0.0,0.0,0.0,0.0,0.0,0.0,0.0,0.0,0.0,0.0,0.0,0.4999,0.4686,0.4279,0.3529,0.2984,0.2111,0.0908,0.0101,-0.0707,-0.1616,-0.2322,-0.3026,-0.3729,-0.4636,-0.5441,-0.6142,-0.6839,-0.7633,-0.8432,-0.8726,-0.932,-1.0413,-1.0703,-1.1296,-1.198,0.0,0.0,-1.3539,-1.4598,-1.5083,-1.5178,-1.6116,-1.6588,-1.6588,-1.7052,-1.7613,-1.8179,-1.855,-1.8827,-1.9104,-1.9188,-1.8832,-1.8473,0.0,0.0,0.0,0.0,0.0,0.0,0.0,0.0,0.0,0.0,1.4709,1.5209,1.5668,1.5976,1.6194,1.6337,1.691,0.0,0.0,1.9021,1.9379,1.9724,1.9534,1.9262,1.902,1.8509,1.7991,1.7408,1.6757,1.5928,1.4944,1.4206,1.3244,1.2143,1.1142,1.0135,0.9064,0.8032,0.6845,0.5595,0.4577,0.3337,0.1902,0.0836,-0.0078,-0.0863,-0.1491,-0.204,-0.2507,-0.2743,-0.3057,-0.3294,-0.3452,-0.353,-0.361,0.0,0.0,0.0,0.0,0.0,0.0,0.0,0.0,0.0,0.0,0.0,0.0,0.0,0.0,0.6713,0.6525,0.0,0.6056,0.5689,0.519,0.4722,0.4074,0.3412,0.2523,0.1111,0.0404,-0.0404,-0.1314,-0.2019,-0.2723,-0.3528,-0.4334,-0.514,-0.5942,-0.6639,-0.7341,-0.8134,-0.8627,-0.9221,-1.0216,-1.0609,-1.1194,-1.198,-1.2662,-1.3152,-1.3539,-1.4502,-1.4981,-1.5178,-1.6116,-1.6588,-1.6683,-1.7426,-1.7893,-1.8179,-1.8643,-1.892,-1.9196,-1.9379,-1.9109,-1.8654,0.0,0.0,0.0,0.0,0.0,0.0,0.0,0.0,0.0,0.0,0.0,1.5876,1.6398,1.6625,1.6863,0.0,0.0,0.0,0.0,1.917,1.9497,1.9711,1.9674,1.9434,1.8934,1.8598,1.8213,1.7793,1.7181,1.6501,1.569,1.505,1.4154,1.307,1.2135,1.1142,1.0021,0.8877,0.7647,0.6284,0.5203,0.4166,0.3024,0.1615,0.0608,-0.0156,-0.0863,-0.1335,-0.1647,-0.1961,-0.2276,-0.2591,-0.2589,-0.2747,-0.2904,-0.2904,-0.2826,0.0,0.0,0.0,0.0,0.0,0.0,0.0,0.0,0.5969,0.6569,0.7072,0.7206,0.7243,0.7139,0.6879,0.6575,0.6319,0.5796,0.5149,0.4528,0.3833,0.2928,0.1616,0.0909,0.0101,-0.0909,-0.1615,-0.232,-0.3327,-0.4034,-0.4738,-0.5741,-0.6442,-0.7042,-0.7935,-0.84,-0.9072,-0.9866,-1.0316,-1.0997,-1.1915,-1.2399,-1.3006,-1.3539,-1.425,-1.4709,-1.5095,-1.6028,-1.6532,-1.6777,-1.7714,-1.8087,-1.8179,-1.8643,-1.9012,-1.9288,-1.9487,-1.9296,-1.8921,0.0,0.0,0.0,0.0,0.0,0.0,0.0,0.0,0.0,0.0,0.0,0.0,0.0,0.0,0.0,0.0,0.0,0.0,1.8974,1.9402,1.962,1.9525,1.9311,1.9034,1.8648,1.8257,1.8069,1.8049,1.7456,1.7046,1.6775,1.6026,1.5157,1.4282,1.313,1.2081,1.1024,0.9709,0.8425,0.7125,0.5962,0.4778,0.357,0.2605,0.1602,0.0686,-0.0156,-0.055,-0.0785,-0.1257,-0.1571,-0.1728,-0.1961,-0.2117,-0.2275,-0.2275,-0.2275,-0.2196,-0.1806,-0.0637,0.0732,0.1749,0.3017,0.4277,0.0,0.6042,0.6724,0.7154,0.7639,0.7851,0.743,0.756,0.7372,0.6454,0.6254,0.5922,0.4933,0.4234,0.3632,0.2725,0.1515,0.0404,-0.0404,-0.1212,-0.202,-0.2825,-0.363,-0.4437,-0.524,-0.6039,-0.6836,-0.763,-0.8094,-0.8609,-0.9481,-0.9793,-1.0453,-1.1387,-1.1957,-1.2644,-1.3534,-1.3868,-1.4235,-1.4708,-1.5715,-1.6429,-1.6972,-1.7807,-1.8087,-1.8179,-1.8643,-1.9112,-1.9587,-1.9587,-1.9385,-1.917,0.0,0.0,0.0,0.0,0.0,0.0,0.0,0.0,0.0,0.0,0.0,0.0,0.0,0.0,0.0,0.0,0.0,0.0,1.9563,1.9765,1.9978,2.0202,2.0043,1.9768,1.9414,1.9041,1.8745,1.8468,1.8289,1.7958,1.7444,1.706,1.6337,1.5303,1.4236,1.3105,1.1888,1.0584,0.925,0.7902,0.6597,0.5382,0.43,0.3263,0.2482,0.1815,0.0596,0.0075,0.0,0.0,-0.0769,-0.108,-0.1094,-0.1413,-0.1727,-0.1805,-0.1885,-0.1733,-0.1279,-0.0244,0.1,0.1875,0.3283,0.4617,0.5575,0.6483,0.7306,0.7918,0.8201,0.8314,0.8317,0.8048,0.7647,0.7343,0.6804,0.6237,0.5539,0.4937,0.4131,0.3327,0.2321,0.1312,0.0202,-0.0707,-0.1515,-0.2321,-0.3127,-0.3934,-0.4738,-0.5536,-0.6234,-0.6833,-0.7593,-0.8293,-0.8975,-0.937,-1.0059,-1.0885,-1.1586,-1.2268,-1.3115,-1.3485,-1.4099,-1.4871,-1.559,-1.6218,-1.6793,-1.7338,-1.7819,-1.8179,-1.8465,-1.8928,-1.9387,-1.9579,-1.9474,-1.917,0.0,0.0,0.0,0.0,0.0,0.0,0.0,0.0,0.0,0.0,0.0,0.0,0.0,0.0,0.0,0.0,0.0,0.0,0.0,2.0076,2.0206,2.0502,2.0436,2.0234,1.9892,1.96,1.9369,1.9208,1.9196,1.8967,1.8592,1.8301,1.7599,1.6543,1.5448,1.4218,1.2931,1.1659,1.0315,0.8907,0.7584,0.6376,0.5215,0.4222,0.3546,0.2917,0.1438,0.0874,0.0,0.0,0.0075,-0.0228,-0.0309,-0.0547,-0.0943,-0.1178,-0.1257,-0.1266,-0.0734,0.0083,0.1099,0.2176,0.3541,0.5006,0.6077,0.6962,0.7845,0.8636,0.8787,0.8881,0.9153,0.8665,0.8247,0.8209,0.7437,0.6736,0.6242,0.5639,0.4834,0.4029,0.3226,0.2325,0.122,0.0101,-0.0909,-0.1716,-0.2522,-0.333,-0.4135,-0.4935,-0.5636,-0.6237,-0.707,-0.775,-0.8332,-0.8967,-0.9609,-1.0306,-1.1175,-1.1932,-1.2576,-1.3159,-1.3853,-1.4658,-1.5192,-1.5721,-1.628,-1.6816,-1.7371,-1.7949,-1.8241,-1.8609,-1.905,-1.9331,-1.9301,-1.9076,0.0,0.0,0.0,0.0,0.0,0.0,0.0,0.0,0.0,0.0,0.0,0.0,0.0,0.0,0.0,0.0,0.0,0.0,0.0,2.0204,2.015,2.0126,2.0126,1.997,1.9617,1.9406,1.9682,2.0457,2.0087,2.0143,2.0578,1.9953,1.9089,1.8089,1.6935,1.5688,1.4255,1.3105,1.1783,1.0242,0.9198,0.7914,0.6583,0.55,0.4736,0.4053,0.2426,0.0,0.0,0.0,0.1113,0.0833,0.053,0.0385,0.0157,-0.0236,-0.0471,-0.0555,-0.0166,0.0504,0.1358,0.2569,0.3757,0.5092,0.6422,0.7316,0.8113,0.9082,0.9415,0.9522,0.9705,0.9514,0.9119,0.8795,0.8333,0.764,0.6842,0.6342,0.5639,0.4834,0.4029,0.3351,0.2897,0.1122,-0.0404,-0.1212,-0.2019,-0.2823,-0.3627,-0.4431,-0.5238,-0.5942,-0.65,-0.7036,-0.751,-0.8294,-0.9004,-0.9637,-1.0577,-1.1415,-1.214,-1.2814,-1.3404,-1.3905,-1.4361,-1.5055,-1.5768,-1.6212,-1.6929,-1.7681,-1.7885,-1.8343,-1.8702,-1.8953,-1.8891,-1.8776,0.0,0.0,0.0,0.0,0.0,0.0,0.0,0.0,0.0,0.0,0.0,0.0,0.0,0.0,0.0,0.0,0.0,0.0,0.0,2.1039,2.1055,2.1039,2.0943,2.0782,2.0601,2.0335,2.0492,2.1099,2.1055,2.1209,2.1605,2.1354,2.0677,1.9698,1.8513,1.7434,1.6323,1.4839,1.3484,1.2166,1.0765,0.938,0.8017,0.6979,0.6179,0.544,0.0,0.0,0.0,0.0,0.2021,0.1849,0.173,0.1461,0.102,0.0471,0.0157,0.0079,0.0415,0.1009,0.1868,0.3101,0.438,0.5716,0.7129,0.8097,0.8978,0.9946,1.0205,1.0291,1.0448,1.0179,0.9748,0.9715,0.9045,0.8333,0.7935,0.7141,0.6369,0.5831,0.482,0.4032,0.3582,0.1973,0.062,0.0,-0.1034,-0.1849,-0.2464,-0.3449,-0.4332,-0.4939,-0.5627,-0.6269,-0.6935,-0.7559,-0.822,-0.8996,-1.0343,-1.1356,-1.2081,-1.2809,-1.3287,-1.3538,-1.4058,-1.4654,-1.5357,-1.5712,-1.6338,-1.7085,-1.7336,-1.7609,-1.7946,-1.8046,-1.814,-1.8279,0.0,0.0,0.0,0.0,0.0,0.0,0.0,0.0,0.0,0.0,0.0,0.0,0.0,0.0,0.0,0.0,0.0,0.0,0.0,0.0,2.179,2.182,2.174,2.1652,2.1519,2.1564,2.1827,2.2284,2.2541,2.2848,2.3178,2.292,2.2341,2.1411,2.0289,1.9287,1.8374,1.6866,1.5547,1.4338,1.2907,1.1451,0.9926,0.8867,0.7967,0.0,0.0,0.0,0.0,0.0,0.3291,0.3104,0.3006,0.2611,0.2037,0.1412,0.1099,0.1029,0.1315,0.1826,0.2595,0.3898,0.5063,0.6365,0.783,0.8854,0.9729,1.0756,1.0982,1.1056,1.1394,1.0933,1.0515,1.0663,0.9829,0.9147,0.8913,0.8079,0.7244,0.6708,0.5824,0.5051,0.4611,0.3295,0.1905,0.0851,-0.0209,-0.1037,-0.1659,-0.275,-0.3528,-0.4135,-0.4949,-0.57,-0.6269,-0.6927,-0.7782,-0.8996,-1.0112,-1.1071,-1.1871,-1.2399,-1.2787,-1.3222,-1.3652,-1.4182,-1.4871,-1.5127,-1.5741,-1.6468,-1.6817,-1.7077,-1.7314,-1.7504,-1.7595,-1.7655,0.0,0.0,0.0,0.0,0.0,0.0,0.0,0.0,0.0,0.0,0.0,0.0,0.0,0.0,0.0,0.0,0.0,0.0,0.0,0.0,0.0,2.2449,2.2449,2.2422,2.2341,2.296,2.3493,2.3994,2.4446,2.487,2.5179,2.4642,2.403,2.327,2.215,2.1229,2.0482,1.916,1.7955,1.674,1.5454,1.3971,1.2325,1.1119,0.0,0.0,0.0,0.0,0.7562,0.5627,0.4847,0.468,0.4458,0.384,0.3132,0.2743,0.2508,0.2364,0.2665,0.3003,0.3668,0.4992,0.6013,0.7091,0.8664,0.9476,1.0264,1.1404,1.1715,1.1792,1.2277,1.1854,1.1393,1.166,1.0777,1.0079,0.9682,0.9172,0.8473,0.766,0.6942,0.632,0.578,0.5027,0.3581,0.1601,0.0,-0.0208,-0.1038,-0.2141,-0.2925,-0.3528,-0.4369,-0.5038,-0.5606,-0.6388,-0.7749,-0.9521,-0.9781,-1.0582,-1.1671,-1.1695,-1.2015,-1.2705,-1.3137,-1.3652,-1.4173,-1.4489,-1.5163,-1.5862,-1.639,-1.6645,-1.6884,-1.7399,-1.7333,-1.7107,0.0,0.0,0.0,0.0,0.0,0.0,0.0,0.0,0.0,0.0,0.0,0.0,0.0,0.0,0.0,0.0,0.0,0.0,0.0,0.0,0.0,0.0,0.0,0.0,0.0,0.0,0.0,0.0,0.0,2.6068,2.6421,2.6062,2.5419,2.4658,2.3871,2.3053,2.224,2.0861,1.9838,1.897,0.0,1.6184,1.4862,0.0,0.0,0.0,0.0,0.0,0.9696,0.7482,0.6508,0.6037,0.5463,0.5129,0.4844,0.43,0.4066,0.4086,0.4185,0.4613,0.5359,0.6394,0.7577,0.8801,1.0191,1.1158,1.1982,1.2696,1.2962,1.2997,1.2989,1.2659,1.2405,1.2453,1.1723,1.1149,1.0867,1.0071,0.9324,0.8512,0.7918,0.7194,0.6548,0.5784,0.486,0.3583,0.2135,0.0952,0.0106,-0.1027,-0.1918,-0.2723,-0.3403,-0.4188,-0.5038,-0.6207,-0.7252,-0.8263,-0.9104,-0.9979,-1.0896,-1.1267,-1.1843,-1.2705,-1.279,-1.3313,-1.4088,-1.425,-1.4628,-1.5372,-1.5617,-1.5951,-1.6376,-1.6617,-1.6643,-1.6669,0.0,0.0,0.0,0.0,0.0,0.0,0.0,0.0,0.0,0.0,0.0,0.0,0.0,0.0,0.0,0.0,0.0,0.0,0.0,0.0,0.0,0.0,0.0,0.0,0.0,0.0,0.0,0.0,0.0,0.0,0.0,2.7209,2.6717,2.6098,2.5407,2.4782,2.4119,0.0,0.0,0.0,0.0,0.0,0.0,0.0,0.0,0.0,0.0,1.237,1.1644,1.0102,0.8768,0.771,0.7122,0.6846,0.6619,0.6076,0.5922,0.5938,0.594,0.6503,0.7223,0.8115,0.9247,1.0423,1.1593,1.2453,1.3112,1.3712,1.3882,1.3936,1.3892,1.3541,1.325,1.3501,1.2802,1.2178,1.193,1.1148,1.045,0.9615,0.9098,0.8372,0.7512,0.6858,0.6044,0.4861,0.3316,0.1909,0.1053,-0.0102,-0.1009,-0.1817,-0.2625,-0.3681,-0.491,-0.597,-0.6877,-0.7672,-0.8464,-0.9248,-1.0207,-1.0722,-1.1353,-1.1939,0.0,-1.281,-1.3207,-1.3523,-1.3933,-1.4342,-1.4815,-1.5139,-1.5468,-1.5797,-1.5992,-1.607,0.0,0.0,0.0,0.0,0.0,0.0,0.0,0.0,0.0,0.0,0.0,0.0,0.0,0.0,0.0,0.0,0.0,0.0,0.0,0.0,0.0,0.0,0.0,0.0,0.0,0.0,0.0,0.0,0.0,0.0,0.0,0.0,0.0,0.0,0.0,0.0,0.0,0.0,0.0,0.0,0.0,0.0,0.0,0.0,0.0,0.0,1.5466,1.4506,1.352,1.2924,1.1372,0.9593,0.913,0.8756,0.838,0.7995,0.7918,0.7918,0.799,0.8585,0.9331,1.0157,1.1063,1.2037,1.2917,1.3585,1.4111,1.4638,1.4739,1.4797,1.49,1.4444,1.4207,1.4513,1.3814,1.3216,1.2934,1.2309,1.1564,1.0737,1.0202,0.9472,0.8467,0.7816,0.7009,0.5831,0.4237,0.2843,0.1868,0.0815,-0.0201,-0.1204,-0.2134,-0.3267,-0.4832,-0.5547,-0.6435,-0.7401,-0.7933,-0.864,-0.9515,-1.0178,-1.066,-1.0982,-1.1781,0.0,-1.2012,-1.2711,-1.3101,-1.3259,-1.4045,-1.4435,-1.4591,-1.515,-1.5366,-1.5396,0.0,0.0,0.0,0.0,0.0,0.0,0.0,0.0,0.0,0.0,0.0,0.0,0.0,0.0,0.0,0.0,0.0,0.0,0.0,0.0,0.0,0.0,0.0,0.0,0.0,0.0,0.0,0.0,0.0,0.0,0.0,0.0,0.0,0.0,0.0,0.0,0.0,0.0,0.0,0.0,0.0,0.0,0.0,0.0,0.0,0.0,1.7088,1.6201,1.5508,1.5209,1.3548,1.1452,1.0858,1.0634,1.0484,1.011,1.011,1.0254,1.0404,1.1057,1.1777,1.2378,1.3331,1.4204,1.4791,1.5313,1.57,1.5902,1.5944,1.5839,1.5517,1.5327,1.505,1.4818,1.4528,1.4151,1.3637,1.3155,1.2355,1.1341,1.0737,1.0027,0.9159,0.8312,0.762,0.6757,0.5608,0.4361,0.2801,0.1833,0.0596,-0.1061,-0.2104,-0.2989,-0.3855,-0.4743,-0.563,-0.6605,-0.7492,-0.8292,-0.9082,-0.9519,-1.0095,-1.0721,-1.0865,0.0,-1.2012,-1.2166,-1.2638,-1.3259,-1.3574,-1.4045,-1.4513,-1.4995,-1.5057,-1.5044,0.0,0.0,0.0,0.0,0.0,0.0,0.0,0.0,0.0,0.0,0.0,0.0,0.0,0.0,0.0,0.0,0.0,0.0,0.0,0.0,0.0,0.0,0.0,0.0,0.0,2.647,2.7306,2.8144,0.0,2.9332,2.9251,2.9126,2.8948,2.8688,2.829,0.0,0.0,0.0,0.0,0.0,0.0,0.0,0.0,0.0,0.0,0.0,0.0,1.7658,1.7229,1.6964,1.5965,1.4617,1.3339,1.2691,1.2398,1.2245,1.2325,1.2538,1.2677,1.3317,1.403,1.4538,1.5325,1.6044,1.6627,1.6922,1.707,1.7129,1.6948,1.6661,1.643,1.617,1.5929,1.5808,1.5447,1.5034,1.4673,1.4034,1.3248,1.2379,1.168,1.1048,1.0022,0.9112,0.8285,0.7434,0.6468,0.5273,0.3726,0.2277,0.087,-0.047,-0.1501,-0.2404,-0.3227,-0.4028,-0.4919,-0.5902,-0.6627,-0.7375,-0.8233,-0.8822,-0.9339,-0.9801,-1.0258,0.0,-1.0967,-1.1349,-1.1729,-1.2184,-1.2643,-1.3106,-1.3561,-1.4096,-1.4266,-1.4194,0.0,0.0,0.0,0.0,0.0,0.0,0.0,0.0,1.8988,2.038,2.1669,2.304,2.4594,2.5062,0.0,0.0,0.0,0.0,0.0,0.0,0.0,0.0,0.0,0.0,0.0,0.0,0.0,2.8462,2.9155,0.0,0.0,0.0,0.0,0.0,2.8694,2.8201,2.766,0.0,0.0,0.0,0.0,2.3422,0.0,0.0,0.0,0.0,0.0,1.9041,1.8837,1.8461,1.8188,1.7726,1.6184,1.5122,1.4419,1.4411,1.4561,1.4775,1.4972,1.5536,1.6166,1.6729,1.722,1.7794,1.8297,1.8375,1.8307,1.8307,1.7833,1.7398,1.7232,1.6876,1.6606,1.6557,1.6186,1.5807,1.5388,1.4695,1.3999,1.3144,1.2542,1.1783,1.0915,0.9874,0.8956,0.8154,0.7051,0.5713,0.4281,0.2594,0.1228,0.0278,-0.0648,-0.1649,-0.2599,-0.3312,-0.4196,-0.5156,-0.5765,-0.6474,-0.7374,-0.8123,-0.8613,-0.8936,-0.9622,0.0,0.0,-1.045,-1.0795,-1.1016,-1.1747,-1.2118,-1.2408,-1.3071,-1.3338,-1.3323,0.0,0.0,0.0,0.0,0.0,0.0,0.0,0.0,1.7641,1.9221,2.0505,0.0,2.2906,2.4371,0.0,0.0,0.0,0.0,0.0,0.0,0.0,0.0,0.0,0.0,0.0,0.0,0.0,2.9301,2.9435,0.0,0.0,0.0,0.0,0.0,0.0,2.8404,2.7926,2.7378,0.0,0.0,0.0,0.0,0.0,0.0,0.0,0.0,0.0,2.0286,2.0227,1.9794,1.9703,1.9781,1.9444,1.817,1.6748,1.6591,1.6798,1.7151,1.7288,1.7765,1.8315,1.888,1.9222,1.9431,1.9573,1.9528,1.9396,1.9243,1.8767,1.825,1.7754,1.7337,1.6884,1.6327,1.6269,1.608,1.5591,1.511,1.4495,1.3519,1.2525,1.1791,1.1208,1.0259,0.9405,0.8913,0.7273,0.5593,0.3906,0.2954,0.2077,0.1018,0.0278,-0.055,-0.1525,-0.2509,-0.3459,-0.4348,-0.5201,-0.5905,-0.6542,-0.7204,-0.784,-0.844,-0.8543,0.0,0.0,-0.951,-0.9845,-1.0481,-1.0893,-1.1233,-1.1723,-1.2416,-1.2674,-1.2781,0.0,0.0,0.0,0.0,0.0,0.0,0.0,0.0,1.6043,1.7727,1.9221,2.0568,2.1649,2.2981,0.0,0.0,0.0,0.0,0.0,0.0,0.0,0.0,0.0,0.0,0.0,0.0,2.7555,2.9286,2.9291,0.0,0.0,0.0,0.0,0.0,0.0,2.844,2.8101,2.7582,0.0,0.0,0.0,0.0,0.0,0.0,0.0,0.0,0.0,0.0,2.1013,2.0581,2.0416,2.0352,2.0243,1.9672,1.9005,1.8664,1.8772,1.9104,1.9312,1.9372,1.9477,1.9965,1.9867,1.9705,1.9789,1.985,1.9819,1.9543,1.924,1.8834,1.8307,1.7913,1.7388,1.6746,1.6575,1.6369,1.5799,1.5447,1.4926,1.4199,1.332,1.2683,1.2129,1.1096,0.9917,0.8693,0.7383,0.611,0.477,0.3714,0.2746,0.1817,0.0908,0.0,-0.0968,-0.1935,-0.2872,-0.3742,-0.4527,-0.5301,-0.6066,-0.6641,-0.7223,-0.7728,-0.8096,0.0,0.0,-0.9108,-0.9491,-0.991,-1.0402,-1.0886,-1.1368,-1.1915,-1.2133,-1.2299,0.0,0.0,0.0,0.0,0.0,0.0,0.0,1.222,1.4289,1.6137,1.779,1.9273,2.0468,2.1588,2.2818,2.4246,0.0,0.0,0.0,0.0,0.0,0.0,0.0,0.0,0.0,0.0,2.7281,2.9026,2.9052,2.9075,0.0,0.0,2.8975,2.8767,0.0,0.0,0.0,0.0,0.0,0.0,0.0,0.0,0.0,0.0,0.0,0.0,0.0,0.0,0.0,0.0,0.0,2.1138,2.0981,2.0925,2.0831,2.0227,2.0183,2.037,2.0579,2.0511,2.0414,2.0688,2.0417,2.0076,2.0146,2.0273,2.0278,1.9947,1.9768,1.9441,1.8844,1.836,1.7845,1.7171,1.6848,1.6596,1.6184,1.5793,1.5383,1.4737,1.4065,1.3355,1.282,1.1618,1.0274,0.872,0.7685,0.6716,0.5705,0.4667,0.3606,0.2465,0.1584,0.0611,-0.0344,-0.1204,-0.2126,-0.2994,-0.3761,-0.4522,-0.5365,-0.6018,-0.6507,-0.7068,-0.7462,0.0,0.0,-0.8615,-0.9001,-0.9269,-0.9826,-1.0368,-1.084,-1.1303,-1.1563,-1.1768,0.0,0.0,0.0,0.0,0.0,0.0,0.0,0.0,1.2613,1.4501,1.6106,1.7718,1.9362,2.0356,2.1349,2.2452,0.0,0.0,0.0,0.0,0.0,0.0,0.0,0.0,0.0,0.0,0.0,2.8601,2.8669,2.8743,2.8797,2.8743,2.8619,2.8492,0.0,0.0,0.0,0.0,0.0,0.0,0.0,0.0,0.0,0.0,0.0,0.0,0.0,0.0,0.0,0.0,0.0,0.0,0.0,2.2159,2.1982,2.0925,2.0698,2.0799,2.0799,2.0937,2.1087,2.12,2.1087,2.0974,2.0974,2.1054,2.102,2.0633,2.0488,2.0129,1.9441,1.8731,1.8066,1.7484,1.6927,1.6544,1.6512,1.6063,1.5632,1.5144,1.4496,1.3815,1.3052,1.1545,1.0221,0.9255,0.8418,0.0,0.6615,0.5785,0.4615,0.3023,0.2354,0.1514,0.0588,-0.0252,-0.1081,-0.195,-0.276,-0.3607,-0.446,-0.5115,-0.5881,-0.6607,0.0,0.0,0.0,-0.7758,-0.7997,-0.8587,-0.9092,-0.9542,-0.9874,-1.0561,-1.094,-1.1192,0.0,0.0,0.0,0.0,0.0,0.0,0.0,0.0,1.0342,1.248,1.4373,1.6087,1.7684,1.904,2.0142,2.1059,0.0,0.0,0.0,0.0,0.0,0.0,0.0,0.0,0.0,0.0,0.0,2.8065,2.812,2.8246,2.8466,2.8388,2.8291,2.8165,2.8119,2.7911,0.0,0.0,0.0,0.0,0.0,0.0,0.0,0.0,0.0,0.0,0.0,0.0,0.0,0.0,0.0,0.0,0.0,0.0,0.0,2.1639,2.1721,2.1915,2.1941,2.1725,2.1454,2.1294,2.0947,2.0496,2.0232,2.0342,2.0439,2.0205,2.0091,1.9863,1.953,1.8998,1.8444,1.7741,1.7374,1.6916,1.6346,1.6149,1.581,1.5132,1.4177,1.3373,1.2738,1.1764,1.088,1.0,0.918,0.819,0.7092,0.6237,0.5108,0.3684,0.2853,0.2,0.1067,0.0246,-0.065,-0.1505,-0.2261,-0.3158,-0.4047,-0.454,-0.5171,0.0,0.0,0.0,0.0,-0.7278,-0.7638,-0.8122,-0.8388,-0.8812,-0.9294,-0.9721,-1.0139,-1.0481,0.0,0.0,0.0,0.0,0.0,0.0,0.0,0.0,0.8303,1.0372,1.2362,1.4298,1.5908,1.742,1.8737,1.9736,0.0,0.0,0.0,0.0,0.0,0.0,0.0,0.0,0.0,0.0,0.0,0.0,0.0,2.7853,2.8329,2.8346,2.8429,2.8604,2.831,2.8023,0.0,0.0,0.0,0.0,0.0,0.0,2.4918,0.0,0.0,0.0,0.0,0.0,0.0,0.0,0.0,0.0,0.0,0.0,0.0,0.0,2.2387,2.2481,2.2318,2.191,2.1528,2.1338,2.0847,2.0422,2.0105,2.0198,2.0324,2.0282,2.0213,2.0115,1.9976,1.9473,1.8875,1.8182,1.7789,1.7303,1.6729,1.6524,1.6137,1.5342,1.4421,1.3597,1.2876,1.223,1.145,1.0557,0.9687,0.8694,0.7556,0.6745,0.5764,0.4607,0.3502,0.2531,0.1638,0.0859,-0.0078,-0.0991,-0.1728,-0.2609,-0.3575,-0.3989,-0.4613,0.0,0.0,0.0,0.0,-0.6809,-0.722,-0.7639,-0.7974,-0.8445,-0.8915,-0.9337,-0.9737,-1.0128,0.0,0.0,0.0,0.0,0.0,0.0,0.0,0.0,0.0,0.0,0.0,1.2315,1.4017,1.5573,0.0,0.0,0.0,0.0,0.0,0.0,0.0,0.0,0.0,0.0,0.0,0.0,0.0,2.669,2.6906,2.7463,2.8349,0.0,2.8897,2.954,2.8848,2.8371,0.0,0.0,0.0,0.0,0.0,0.0,0.0,0.0,0.0,0.0,0.0,0.0,0.0,0.0,0.0,0.0,0.0,0.0,0.0,0.0,0.0,0.0,0.0,2.1664,2.1423,2.1229,2.0921,2.056,2.0472,2.0487,0.0,2.0714,2.0771,2.0749,2.0617,2.0042,1.9473,1.8942,1.8259,1.7703,1.7447,1.7081,1.656,1.5699,1.5042,1.43,1.3388,1.2748,1.1915,1.0803,1.0035,0.9206,0.8131,0.7349,0.6631,0.5823,0.4319,0.3108,0.2327,0.153,0.0656,-0.0291,-0.1091,-0.1962,-0.2975,-0.3525,-0.4237,0.0,0.0,0.0,0.0,-0.6419,-0.6763,-0.7121,-0.7752,-0.8276,-0.8679,-0.9221,-0.9677,-1.0065,0.0,0.0,0.0,0.0,0.0,0.0,0.0,0.0,0.0,0.0,0.0,0.0,0.0,0.0,0.0,0.0,0.0,0.0,0.0,0.0,0.0,0.0,0.0,0.0,0.0,0.0,0.0,2.564,2.6052,2.6788,2.7792,2.793,0.0,0.0,0.0,2.8403,2.7561,0.0,0.0,0.0,0.0,0.0,0.0,0.0,0.0,0.0,2.3041,2.2685,0.0,0.0,0.0,0.0,0.0,0.0,0.0,0.0,2.3083,2.2799,2.2558,0.0,2.1793,2.1423,2.1131,2.0835,0.0,2.0335,2.0188,2.0305,2.0382,2.0381,2.0234,2.0209,1.9998,1.9309,1.8798,1.8367,1.7703,1.6958,1.6289,1.5796,1.5227,1.4504,1.3521,1.2928,1.2203,1.1203,1.0481,0.9672,0.8874,0.8113,0.7355,0.6404,0.5411,0.436,0.3123,0.2328,0.1456,0.051,-0.0214,-0.1201,-0.2397,-0.2822,-0.3542,0.0,0.0,0.0,-0.5613,-0.5868,-0.6316,-0.6812,-0.721,-0.7576,-0.8015,-0.8457,-0.8843,-0.9113,0.0,0.0,0.0,0.0,0.0,0.0,0.0,0.0,0.0,0.0,0.0,0.0,0.0,0.0,0.0,0.0,0.0,0.0,0.0,0.0,0.0,0.0,0.0,0.0,0.0,0.0,0.0,0.0,0.0,2.6189,0.0,0.0,0.0,0.0,2.8798,2.8023,2.7123,2.6138,2.5642,2.5492,2.5301,0.0,0.0,0.0,0.0,0.0,2.2761,2.2437,0.0,2.311,2.3222,2.3168,0.0,0.0,0.0,0.0,2.3304,2.3038,2.2754,2.2342,2.1949,2.1664,2.1277,2.0934,2.0759,2.0372,2.0142,2.0337,2.0482,2.0556,2.0563,2.0574,2.0453,1.9922,1.9473,1.8931,1.8172,1.7203,1.6419,1.6058,1.5412,1.4687,1.3802,1.3309,1.2704,1.184,1.1081,1.0299,0.9379,0.8646,0.784,0.6889,0.6133,0.5131,0.3708,0.2905,0.2029,0.1083,0.0267,-0.0661,-0.1782,-0.2369,-0.3093,0.0,0.0,0.0,-0.5031,-0.5297,-0.5726,-0.6241,-0.6546,-0.6967,-0.7428,-0.7784,-0.8138,-0.8467,0.0,0.0,0.0,0.0,0.0,0.0,0.0,0.0,0.0,0.0,0.0,0.0,0.0,0.0,0.0,0.0,0.0,0.0,0.0,0.0,0.0,0.0,0.0,0.0,2.1372,2.2511,0.0,0.0,0.0,0.0,0.0,0.0,2.8517,0.0,2.8461,2.7461,2.6766,2.5731,2.5278,2.5178,2.5021,0.0,0.0,0.0,0.0,0.0,0.0,0.0,0.0,2.3141,2.3289,2.3286,2.4071,0.0,0.0,0.0,0.0,0.0,2.2799,2.2388,2.1996,2.1841,2.1423,2.101,2.0977,2.0653,2.0424,2.0731,2.0909,2.1025,2.1129,2.1063,2.0903,2.0529,1.9998,1.9375,1.8619,1.7644,1.6807,1.6458,1.5695,1.4941,1.4229,1.377,1.3202,1.236,1.1582,1.0744,0.9752,0.9053,0.827,0.7382,0.6716,0.5688,0.4351,0.3484,0.2523,0.1539,0.0677,-0.0246,-0.1231,-0.2013,-0.2736,-0.3392,0.0,0.0,-0.4483,-0.4782,-0.5153,-0.5585,-0.5985,-0.6476,-0.6966,-0.7242,-0.7576,-0.7956,0.0,0.0,0.0,0.0,0.0,0.0,0.0,0.0,0.0,0.0,0.0,0.0,0.0,0.0,0.0,0.0,0.0,0.0,0.0,0.0,0.0,0.0,0.0,2.0168,2.0713,2.1527,2.2225,2.2725,2.3435,0.0,2.5637,2.6576,2.7981,2.954,2.7998,2.7227,2.7035,2.5527,2.4831,2.471,2.4605,0.0,0.0,0.0,0.0,0.0,0.0,0.0,0.0,2.2143,2.2539,2.2671,2.3917,0.0,0.0,0.0,0.0,0.0,2.2799,2.2434,2.2137,2.1841,2.1423,2.1116,2.1608,2.1419,2.1236,2.1462,2.1794,2.1931,2.1439,2.1556,2.1577,2.0892,2.0129,1.9336,1.8676,1.8056,1.7496,1.6899,1.6294,1.5615,1.4764,1.4056,1.3285,1.2262,1.1417,1.0748,1.0198,0.9551,0.8847,0.813,0.7431,0.6539,0.5528,0.4299,0.3195,0.2213,0.123,0.0246,-0.0737,-0.1339,-0.2046,-0.2663,0.0,-0.3476,-0.3875,-0.4385,-0.4857,-0.5291,-0.5834,-0.6223,-0.6568,-0.705,-0.7248,-0.7429,0.0,0.0,0.0,0.0,0.0,0.0,0.0,0.0,0.0,0.0,0.0,0.0,0.0,0.0,0.0,0.0,0.0,0.0,0.0,0.0,0.0,0.0,1.6104,1.7606,1.9221,1.9941,2.0764,2.1704,2.2377,2.3332,2.4582,2.6108,2.7319,2.8124,2.7036,2.6541,2.6448,2.4998,2.4302,2.4177,0.0,0.0,0.0,0.0,0.0,0.0,0.0,0.0,0.0,0.0,2.1978,2.2378,2.3391,0.0,0.0,0.0,0.0,0.0,2.2754,2.2388,2.2044,2.1841,2.1703,2.168,2.1947,2.1957,2.194,2.2024,2.2273,2.2322,2.1972,2.2043,2.1901,2.1158,2.0518,1.9889,1.921,1.8491,1.7791,1.7134,1.6178,1.5399,1.4787,1.399,1.3283,1.2646,1.2026,1.14,1.0823,1.0261,0.9563,0.8721,0.8051,0.7231,0.6263,0.5155,0.3964,0.263,0.1695,0.0754,-0.0285,-0.0939,-0.1565,-0.2221,0.0,-0.2973,-0.3305,-0.3714,-0.4191,-0.465,-0.5066,-0.5484,-0.5855,-0.6361,-0.6768,-0.7139,0.0,0.0,0.0,0.0,0.0,0.0,0.0,0.0,0.0,0.0,0.0,0.0,0.0,0.0,0.0,0.0,0.0,0.0,0.0,0.0,1.2185,1.2932,1.3522,1.5018,1.7447,1.8178,1.9143,2.0374,2.1015,2.2099,2.3663,2.5254,2.6168,2.6447,2.5831,2.5545,2.547,2.4294,2.3754,2.361,0.0,0.0,0.0,0.0,0.0,0.0,0.0,0.0,0.0,0.0,0.0,0.0,0.0,0.0,0.0,2.3508,2.3201,2.2844,2.2663,2.2356,2.1996,2.1888,2.1956,2.2143,2.2291,2.2512,2.2719,2.2837,2.2907,2.2872,2.2627,2.2491,2.2223,2.1463,2.1083,2.0549,1.9683,1.8905,1.8147,1.7382,1.6192,1.531,1.4978,1.4071,1.339,1.3058,1.2564,1.2012,1.1328,1.0836,1.0144,0.9144,0.8553,0.7693,0.6649,0.5792,0.4577,0.309,0.2154,0.114,0.0158,-0.0521,-0.1177,-0.1689,-0.2053,-0.239,-0.2709,-0.3035,-0.348,-0.3917,-0.4312,-0.4753,-0.5285,-0.5674,-0.6226,-0.6753,0.0,0.0,0.0,0.0,0.0,0.0,0.0,0.0,0.0,0.0,0.0,0.0,0.0,0.0,0.0,0.0,0.0,0.0,0.0,0.0,1.0748,1.101,1.1629,1.3152,1.5628,1.6478,1.7431,1.8496,1.9215,2.0686,2.2804,2.332,2.4028,2.4869,2.4432,2.4246,2.4202,2.3466,2.3172,2.3127,2.3024,0.0,0.0,0.0,0.0,0.0,0.0,0.0,0.0,0.0,0.0,0.0,0.0,0.0,2.3451,2.3216,2.3024,2.2844,2.2509,2.2324,2.2137,2.2044,2.2054,2.225,2.2789,2.3258,2.3721,2.4068,2.4053,2.3872,2.3564,2.2992,2.2396,2.1951,2.1702,2.1113,1.9647,1.9239,1.8739,1.7634,1.6623,1.5932,1.5737,1.4582,1.3729,1.3372,1.2723,1.21,1.1663,1.1099,1.037,0.9486,0.887,0.7989,0.6818,0.5922,0.4863,0.3617,0.2503,0.1519,0.0708,-0.0098,-0.0623,-0.1001,-0.1329,-0.171,-0.2072,-0.242,-0.286,-0.3303,-0.3792,-0.4403,-0.5053,-0.528,-0.5593,-0.5978,0.0,0.0,0.0,0.0,0.0,0.0,0.0,0.0,0.0,0.0,0.0,0.0,0.0,0.0,0.0,0.0,0.0,0.0,0.0,0.0,0.8936,0.9425,0.9986,1.0861,1.2066,1.3902,1.5459,1.6706,1.8128,1.9453,2.0664,2.1758,2.261,2.3181,2.3154,2.3166,2.3263,2.2578,2.2296,2.231,2.2263,2.207,0.0,0.0,0.0,0.0,0.0,0.0,0.0,0.0,2.004,2.0684,0.0,2.2028,2.2498,2.2773,2.2663,2.2449,2.2324,2.2137,2.1949,2.1902,2.244,2.307,2.3303,2.4028,2.4678,2.4838,2.4664,2.439,2.3793,2.3437,2.3005,2.2445,2.2273,2.1777,2.037,1.9925,1.9368,1.8297,1.7036,1.6181,1.6118,1.4896,1.3966,1.3685,1.3232,1.2676,1.193,1.1481,1.0776,0.9698,0.9116,0.829,0.7331,0.6363,0.5309,0.4147,0.289,0.1766,0.0778,0.0239,-0.0235,-0.0688,-0.0947,-0.1164,-0.1344,-0.1657,-0.2057,-0.2544,-0.3296,-0.3957,-0.4439,-0.4622,-0.4927,-0.5387,0.0,0.0,0.0,0.0,0.0,0.0,0.0,0.0,0.0,0.0,0.0,0.0,0.0,0.0,0.0,0.0,0.0,0.0,0.0,0.0,0.7444,0.8037,0.86,0.9065,0.9436,1.1277,1.307,1.4768,1.6621,1.7929,1.871,1.9991,2.0861,2.1414,2.1666,2.1843,2.1957,2.1586,2.141,2.1396,2.1288,2.1021,0.0,0.0,0.0,0.0,0.0,0.0,0.0,0.0,1.908,0.0,0.0,0.0,0.0,2.201,2.2013,2.1885,2.2035,2.1996,2.1841,2.1841,2.2867,2.3821,2.3821,2.4583,2.53,2.53,2.5131,2.4721,2.4131,2.3956,2.3662,2.3005,2.2896,2.2452,2.1006,2.0574,2.0008,1.8947,1.7478,1.6573,1.6523,1.5132,1.4144,1.3868,1.3443,1.2894,1.2138,1.1765,1.1113,1.0002,0.9403,0.858,0.7661,0.6649,0.5594,0.4442,0.3343,0.2154,0.098,0.0514,0.0092,-0.027,-0.0538,-0.0627,-0.0626,-0.094,-0.1386,-0.1876,-0.2674,-0.3249,-0.3605,-0.3873,-0.4216,-0.4634,0.0,0.0,0.0,0.0,0.0,0.0,0.0,0.0,0.0,0.0,0.0,0.0,0.0,0.0,0.0,0.0,0.0,0.0,0.0,0.5651,0.6253,0.6853,0.7379,0.7853,0.8277,0.8622,1.0116,1.2796,1.4574,1.6082,1.7185,1.7788,1.8537,1.9411,1.9914,2.0169,2.0169,2.0434,2.0597,2.0544,2.0162,1.9972,1.984,0.0,0.0,0.0,0.0,0.0,0.0,0.0,1.8575,1.9293,0.0,0.0,0.0,2.0941,2.1077,2.1216,2.1675,2.1888,2.1996,2.1996,2.3174,2.4319,2.4319,2.4931,2.5494,2.5494,2.5369,2.5048,2.458,2.4509,2.4292,2.3734,2.3628,2.3056,2.1544,2.1212,2.0613,1.9361,1.8025,1.7205,1.7093,1.5394,1.4221,1.4003,1.3268,1.2658,1.234,1.1997,1.1357,1.0429,0.9734,0.8869,0.7724,0.6797,0.5733,0.4618,0.3778,0.2719,0.1389,0.0763,0.0405,0.018,0.0045,0.0,0.0,-0.0268,-0.0805,-0.1433,-0.1923,-0.2235,-0.2549,-0.2996,-0.3391,-0.3741,0.0,0.0,0.0,0.0,0.0,0.0,0.0,0.0,0.0,0.0,0.0,0.0,0.0,0.0,0.0,0.0,0.0,0.0,0.0,0.4725,0.5269,0.5597,0.6204,0.6637,0.6945,0.7704,0.9147,1.123,1.2849,1.4042,1.4809,1.5793,1.6588,1.7233,1.7685,1.7957,1.8179,1.8375,1.8411,1.8399,1.8394,1.8201,1.7857,0.0,0.0,0.0,0.0,0.0,0.0,0.0,0.0,0.0,0.0,0.0,0.0,1.9905,2.0429,2.0753,2.0931,2.1382,2.1841,2.1841,2.3077,2.4319,2.4319,2.5232,2.6016,2.5962,2.5839,2.5715,2.5245,2.5119,2.4964,2.4549,2.4305,2.3782,2.2408,2.2034,2.124,1.956,1.8496,1.7673,1.7095,1.5752,1.482,1.4522,1.3838,1.3118,1.241,1.2065,1.144,1.0429,0.9842,0.9142,0.8267,0.7294,0.6277,0.5303,0.4256,0.3028,0.1658,0.1256,0.0941,0.0672,0.0672,0.0672,0.076,0.0403,-0.0045,-0.0447,-0.0849,-0.1252,-0.1706,-0.2029,-0.2396,-0.2871,0.0,0.0,0.0,0.0,0.0,0.0,0.0,0.0,0.0,0.0,0.0,0.0,0.0,0.0,0.0,0.0,0.0,0.0,0.0,0.0,0.4233,0.4673,0.5117,0.5541,0.5901,0.6729,0.7802,0.8949,1.0754,1.2063,1.2934,1.3972,1.4892,1.5625,1.6042,1.6355,1.6577,1.6764,1.6863,1.684,1.6847,1.667,1.6407,0.0,0.0,0.0,0.0,0.0,0.0,0.0,0.0,0.0,0.0,0.0,1.81,1.89,1.9535,2.0092,2.0427,2.1103,2.1746,2.1793,2.3077,2.4547,2.5214,2.5888,2.6379,2.6326,2.6326,2.6204,2.5851,2.5728,2.5632,2.5216,2.4844,2.4176,2.3058,2.2525,2.1615,1.9956,1.9063,1.8265,1.7491,1.6061,1.5073,1.48,1.3927,1.31,1.2484,1.2157,1.1583,1.0764,1.0205,0.9588,0.8918,0.7957,0.6994,0.607,0.5029,0.3946,0.2763,0.1966,0.152,0.1341,0.1431,0.1475,0.1475,0.1206,0.0894,0.058,0.0223,-0.0224,-0.0629,-0.0889,-0.1295,-0.1767,0.0,0.0,0.0,0.0,0.0,0.0,0.0,0.0,0.0,0.0,0.0,0.0,0.0,0.0,0.0,0.0,0.0,0.0,0.0,0.0,0.3241,0.3855,0.4242,0.4645,0.5026,0.5774,0.6209,0.6373,0.863,1.023,1.1297,1.2241,1.3265,1.4248,1.4769,1.5079,1.5243,1.5549,1.564,1.5607,1.5404,1.5322,1.5314,1.5039,0.0,0.0,0.0,0.0,0.0,0.0,0.0,0.0,1.6748,1.6863,1.7109,1.7925,1.8534,1.9178,2.0053,2.0894,2.1595,2.1732,2.3132,2.4848,2.6484,2.6628,2.6457,2.6634,2.6591,2.6509,2.6232,2.6232,2.6073,2.5656,2.5101,2.441,2.3565,2.2793,2.1825,2.0455,1.96,1.8795,1.8,1.6295,1.5184,1.4878,1.3666,1.2826,1.2579,1.2294,1.1898,1.1328,1.073,1.0108,0.9449,0.8641,0.7747,0.6835,0.601,0.5206,0.4382,0.289,0.2188,0.2142,0.2322,0.2366,0.2233,0.2142,0.1964,0.1695,0.1251,0.0895,0.0629,0.0328,-0.0097,-0.0554,0.0,0.0,0.0,0.0,0.0,0.0,0.0,0.0,0.0,0.0,0.0,0.0,0.0,0.0,0.0,0.0,0.0,0.0,0.0,0.0,0.2293,0.28,0.3519,0.4155,0.4555,0.4859,0.5185,0.5462,0.738,0.876,0.9551,1.0278,1.1105,1.1915,1.2469,1.2819,1.3076,1.3479,1.3626,1.3626,1.3776,1.3888,1.3989,1.3697,1.3739,0.0,0.0,0.0,0.0,0.0,0.0,0.0,1.6076,1.6262,1.6473,1.6901,1.7583,1.8375,1.9237,2.0205,2.1101,2.1649,2.2842,2.4202,2.5457,2.5779,2.5927,2.6361,2.6066,2.5614,2.5453,2.5453,2.5354,2.5041,2.4776,2.4412,2.3735,2.2965,2.1917,2.055,1.9738,1.8769,1.7276,1.634,1.5512,1.4702,1.3842,1.3254,1.299,1.2709,1.2154,1.126,1.078,1.0067,0.9047,0.8699,0.8114,0.0,0.6763,0.6143,0.5417,0.3946,0.3205,0.3114,0.3252,0.3296,0.3252,0.3161,0.294,0.2674,0.2408,0.2097,0.1706,0.1449,0.1145,0.0873,0.0,0.0,0.0,0.0,0.0,0.0,0.0,0.0,0.0,0.0,0.0,0.0,0.0,0.0,0.0,0.0,0.0,0.0,0.0,0.0,0.0,0.0,0.2961,0.3517,0.3875,0.4264,0.4606,0.487,0.6038,0.7101,0.8058,0.8864,0.9604,1.0261,1.0694,1.1075,1.1415,1.164,1.1836,1.1948,1.2171,1.2309,1.2391,1.2388,1.2652,1.3017,1.3152,0.0,0.0,0.0,0.0,0.0,0.0,0.0,1.5957,1.6362,1.7024,1.7837,1.8767,1.9727,2.0819,2.2205,2.3146,2.4098,2.5153,2.5345,2.5424,2.5817,2.5785,2.5644,2.5458,2.5458,2.5364,2.5173,2.4813,2.4341,2.3652,2.2935,2.1932,2.0466,1.9941,1.9084,1.7473,1.6747,1.5962,1.505,1.4245,1.3682,1.345,1.2914,1.2271,1.1546,1.0844,1.0121,0.9335,0.898,0.8567,0.8106,0.763,0.7066,0.6482,0.4986,0.4299,0.4208,0.4347,0.4395,0.4312,0.4216,0.3997,0.3737,0.3554,0.3246,0.2951,0.2748,0.255,0.2332,0.0,0.0,0.0,0.0,0.0,0.0,0.0,0.0,0.0,0.0,0.0,0.0,0.0,0.0,0.0,0.0,0.0,0.0,0.0,0.0,0.0,0.0,0.2404,0.2868,0.3166,0.0,0.0,0.4353,0.479,0.558,0.6681,0.7682,0.845,0.9028,0.936,0.9727,1.0092,1.0211,1.0409,1.0597,1.0758,1.0938,1.1047,1.1249,1.1746,1.2355,1.2437,1.3047,1.381,1.4165,0.0,0.0,0.0,0.0,1.5591,1.5969,1.6608,1.7395,1.8384,1.945,2.0752,2.2662,2.3421,2.3941,2.4889,2.4957,2.4889,2.5106,2.5479,2.5697,2.5516,2.5516,2.5394,2.5152,2.4672,2.4088,2.3299,2.2614,2.1754,2.0489,2.005,1.9299,1.7906,1.7078,1.6281,1.5397,1.4643,1.4111,1.3908,1.3065,1.2386,1.1911,1.0943,1.0179,0.9712,0.927,0.9028,0.8976,0.8497,0.8055,0.7612,0.6343,0.5669,0.5417,0.5513,0.548,0.5399,0.5308,0.5135,0.487,0.4691,0.4426,0.4228,0.4146,0.3961,0.3791,0.0,0.0,0.0,0.0,0.0,0.0,0.0,0.0,0.0,0.0,0.0,0.0,0.0,0.0,0.0,0.0,0.0,0.0,-0.1119,0.0,0.0,0.1009,0.1623,0.2178,0.2615,0.0,0.0,0.3784,0.4182,0.4633,0.5271,0.6484,0.7419,0.8193,0.8576,0.895,0.9275,0.9506,0.9727,0.9864,1.0137,1.0473,1.0827,1.0677,1.1113,1.1752,1.1985,1.2385,1.2853,1.3486,1.3941,0.0,0.0,0.0,1.5232,1.5591,1.6017,1.6598,1.7626,1.9296,2.101,2.2235,2.2761,2.3184,2.3718,2.4064,2.43,2.4539,2.4673,2.4694,2.4678,2.4678,2.4451,2.3713,2.3544,2.3213,2.2485,2.1774,2.1271,2.1014,1.9889,1.8755,1.7711,1.6851,1.5973,1.5122,1.476,1.4543,1.4332,1.3422,1.2633,1.1929,1.099,1.0104,0.9304,0.9266,0.9256,0.9247,0.9281,0.9209,0.9036,0.8634,0.7852,0.6735,0.6658,0.6579,0.6579,0.6386,0.6215,0.6033,0.5862,0.5685,0.5551,0.5415,0.5338,0.5325,0.0,0.0,0.0,0.0,0.0,0.0,0.0,0.0,0.0,0.0,0.0,0.0,0.0,0.0,0.0,-0.3629,-0.3164,-0.2474,-0.1492,-0.0791,-0.0224,0.028,0.084,0.14,0.179,0.2316,0.2795,0.3262,0.3714,0.4111,0.4505,0.5317,0.6174,0.7097,0.7415,0.7732,0.8048,0.826,0.8497,0.8843,0.9104,0.9455,0.9864,1.0014,1.0507,1.1122,1.1471,1.1997,1.2598,1.311,1.3457,1.38,1.415,0.0,0.0,0.0,1.5501,1.6227,1.7894,1.9423,2.083,2.1983,2.2586,2.3024,2.3508,2.3909,2.4153,2.4027,2.4163,2.4241,2.4092,2.378,2.342,2.3086,2.3023,2.2789,2.2051,2.1728,2.1225,2.0361,1.9675,1.8759,1.7454,1.6938,1.6306,1.5343,1.5133,1.4918,1.4672,1.3542,1.2651,1.2124,1.0957,1.0065,0.9473,0.9359,0.9433,0.9699,0.995,1.0123,1.0263,1.0118,0.9315,0.799,0.7949,0.7826,0.7619,0.7543,0.7377,0.712,0.7036,0.6952,0.6868,0.679,0.679,0.6803,0.0,0.0,0.0,0.0,0.0,0.0,0.0,0.0,0.0,0.0,0.0,0.0,0.0,0.0,0.0,0.0,-0.3829,-0.3092,-0.1935,-0.1407,-0.0897,-0.0449,0.0168,0.0616,0.1007,0.1624,0.2146,0.2601,0.3182,0.3589,0.3934,0.4369,0.5056,0.5957,0.6288,0.6647,0.6999,0.7157,0.7492,0.7928,0.8223,0.8586,0.9031,0.9447,1.0041,1.0702,1.1252,1.1877,1.2591,1.3026,1.3353,1.3697,1.3886,1.4238,0.0,0.0,0.0,1.6106,1.8009,1.9304,2.04,2.1606,2.2366,2.2979,2.3465,2.3815,2.3902,2.367,2.3579,2.3528,2.3333,2.3049,2.2801,2.2627,2.2631,2.2429,2.1732,2.1478,2.0954,1.9846,1.9327,1.8578,1.736,1.6981,1.65,1.5698,1.5477,1.5284,1.5074,1.3826,1.2941,1.251,1.1282,1.0379,0.9918,0.97,0.9736,1.0053,1.0531,1.0862,1.1099,1.1153,1.0619,0.9552,0.9293,0.9013,0.8763,0.8683,0.848,0.8228,0.8061,0.7989,0.7908,0.7784,0.7754,0.7754,0.0,0.0,0.0,0.0,0.0,0.0,0.0,0.0,0.0,0.0,0.0,0.0,-0.6354,-0.5885,-0.5425,-0.496,-0.4553,-0.3815,-0.2651,-0.205,-0.1568,-0.1066,-0.0449,0.0,0.0224,0.0841,0.1378,0.1858,0.2387,0.296,0.3547,0.3808,0.4206,0.4738,0.5419,0.597,0.6349,0.6621,0.6968,0.7367,0.7689,0.8214,0.8771,0.9173,0.9772,1.0514,1.1462,1.2088,1.2586,1.3352,1.3859,1.4215,1.3901,1.4163,1.4584,0.0,0.0,0.0,1.7384,1.8474,1.9674,2.0876,2.1948,2.2889,2.3465,2.3368,2.3237,2.3538,2.2807,2.2136,2.2189,2.2665,2.2872,2.2237,2.2192,2.2003,2.1328,2.062,2.0138,2.0074,1.8786,1.7804,1.7584,1.6834,1.6237,1.5996,1.5726,1.5551,1.5477,1.4573,1.3728,1.3075,1.2191,1.1302,1.0474,1.0381,1.0302,1.0213,1.0967,1.1353,1.1399,1.1848,1.192,1.1678,1.0591,1.0089,1.0001,0.9649,0.95,0.9354,0.8788,0.8573,0.8492,0.8057,0.7884,0.792,0.0,0.0,0.0,0.0,0.0,0.0,0.0,0.0,0.0,0.0,0.0,0.0,0.0,-0.6284,-0.5994,-0.5607,-0.4996,-0.4233,-0.3399,-0.2996,-0.2561,-0.2089,-0.1462,-0.104,-0.0751,-0.0113,0.0502,0.088,0.1482,0.2048,0.2547,0.2956,0.33,0.3685,0.4572,0.5183,0.5539,0.5871,0.629,0.6783,0.7297,0.7816,0.843,0.8896,0.9553,1.0318,1.1022,1.1647,1.2218,1.2841,1.3322,1.3629,1.3637,1.3866,1.4111,1.4327,1.496,1.5787,1.6917,1.8106,1.9271,2.0562,2.1721,2.2563,2.273,2.29,2.2842,2.2254,2.1972,2.1763,2.1404,2.1664,2.1891,2.1682,2.1681,2.147,2.0833,2.0521,1.9988,1.9005,1.8356,1.7738,1.7087,1.6712,1.6382,1.6151,0.0,1.587,1.577,1.4903,1.4076,1.333,1.249,1.1557,1.0498,1.0341,1.0384,1.0581,1.0819,1.132,1.2033,1.2116,1.236,1.265,1.209,1.1483,1.0847,1.0705,1.0524,1.033,0.9785,0.9546,0.9488,0.9002,0.8804,0.8804,0.0,0.0,0.0,0.0,0.0,0.0,0.0,0.0,0.0,0.0,0.0,0.0,0.0,0.0,-0.6666,-0.6188,-0.5522,-0.4845,-0.4247,-0.3853,-0.3447,-0.2899,-0.2416,-0.2029,-0.1672,-0.0984,-0.0398,0.0057,0.0619,0.1216,0.1728,0.2058,0.243,0.28,0.3465,0.4128,0.4718,0.5172,0.5653,0.6147,0.6764,0.7314,0.7901,0.847,0.9106,0.9742,1.0569,1.1246,1.1873,1.2552,1.3051,1.3429,1.3525,1.3584,1.3741,1.4222,1.4669,1.5245,1.6221,1.7347,1.852,1.9687,2.0789,2.1589,2.1728,2.1925,2.1883,2.1255,2.1213,2.118,2.0906,2.1023,2.1198,2.1324,2.1222,2.0972,2.0557,2.0094,1.9394,1.8365,1.7987,1.7517,1.6811,1.6701,1.6543,1.6289,0.0,0.0,1.597,1.5351,1.4517,1.3423,1.2417,1.1507,1.0645,1.0398,1.0418,1.0634,1.0744,1.1197,1.1944,1.2291,1.2637,1.3036,1.3076,1.2555,1.1689,1.1616,1.1344,1.0929,1.0435,1.009,0.9822,0.9297,0.9098,0.9098,0.0,0.0,0.0,0.0,0.0,0.0,0.0,0.0,0.0,-0.9351,0.0,0.0,0.0,0.0,0.0,-0.6797,-0.6291,-0.5771,-0.51,-0.458,-0.4133,-0.3586,-0.3272,-0.2897,-0.2345,-0.1795,-0.1234,0.0,0.0,0.0,0.106,0.1201,0.1564,0.2057,0.2089,0.2721,0.3884,0.4506,0.5046,0.552,0.6101,0.6657,0.7117,0.7789,0.8397,0.8933,1.0137,1.095,1.16,1.2469,1.3208,1.37,1.3441,1.3396,1.3516,1.4053,1.4323,1.4627,0.0,0.0,0.0,1.8105,1.9068,1.9984,2.0542,2.0385,2.0274,2.0678,2.0457,2.0292,2.061,2.0794,2.0958,2.1214,2.0831,2.0475,2.0426,1.9252,1.8358,1.828,1.7631,1.7124,1.6905,1.6779,1.6633,0.0,1.6262,1.6194,1.6095,1.5868,1.5028,1.3435,1.2024,1.1192,1.0897,1.0632,1.0449,1.0312,1.0755,1.0986,1.1051,1.2303,1.2881,1.2933,1.3415,1.3195,1.2544,1.2437,1.1908,1.1081,1.066,1.0097,0.9441,0.8934,0.8717,0.869,0.0,0.0,0.0,0.0,0.0,0.0,0.0,0.0,0.0,0.0,0.0,0.0,-0.8584,-0.8226,-0.7797,-0.7367,-0.7065,-0.6728,-0.6102,-0.5837,-0.5389,-0.4657,-0.4282,-0.3872,-0.3303,-0.2714,-0.2224,0.0,0.0,0.0,0.0,0.0,0.0,0.1156,0.1484,0.184,0.229,0.3405,0.4118,0.4542,0.5198,0.5806,0.6389,0.7059,0.7866,0.8735,0.9611,1.0356,1.1057,1.1633,1.2228,1.2793,1.3083,1.3331,1.3599,1.3811,1.4306,1.4877,1.5438,0.0,0.0,0.0,0.0,0.0,1.9235,1.9432,1.9609,1.9587,1.9722,1.9945,2.0258,2.0478,2.0522,2.032,2.0312,2.0033,1.904,1.8585,1.8117,1.7566,1.7313,1.7124,1.6905,1.6879,1.6717,0.0,1.6371,1.6289,1.6194,1.5057,1.3944,1.2863,1.1887,1.1285,1.1038,1.0825,1.0632,1.0449,1.0582,1.0847,1.1241,1.2133,1.2777,1.3231,1.3837,1.3914,1.3555,1.316,1.2497,1.1709,1.1184,1.0569,0.9863,0.9325,0.9069,0.8999,0.0,0.0,0.0,0.0,0.0,0.0,0.0,0.0,0.0,0.0,0.0,0.0,-0.929,-0.906,-0.8755,-0.852,-0.8143,-0.7755,-0.7241,-0.6789,-0.6301,-0.5741,-0.5238,-0.4722,-0.4326,-0.3582,-0.3107,0.0,0.0,0.0,0.0,0.0,0.0,0.0,0.0744,0.106,0.1373,0.2361,0.3163,0.3846,0.4449,0.511,0.5674,0.6383,0.721,0.8083,0.8867,0.9574,1.0231,1.08,1.1428,1.2074,1.2666,1.2965,1.3142,1.3468,1.3924,1.443,1.506,1.576,1.647,1.6907,0.0,0.0,1.7804,1.8178,1.8562,1.8609,1.9011,1.9457,1.9788,1.9806,1.9659,1.9296,1.9194,1.892,1.8296,1.799,1.7664,1.7223,1.7149,1.7074,1.6879,1.6811,1.6665,1.6425,1.6355,1.6165,1.5725,1.4531,1.3466,1.2594,1.1786,1.1285,1.1062,1.0897,1.0705,1.0548,1.0548,1.0696,1.103,1.2047,1.2686,1.3066,1.3969,1.4305,1.4117,1.352,1.2756,1.1852,1.1228,1.0558,0.992,0.9539,0.9324,0.9255,0.0,0.0,0.0,0.0,0.0,0.0,0.0,0.0,0.0,0.0,-1.109,-1.0681,-1.0192,-1.0111,-1.0024,-0.9851,-0.9321,-0.8774,-0.8381,-0.7647,-0.7081,-0.6721,-0.6113,-0.5599,-0.5253,-0.4466,0.0,0.0,0.0,0.0,0.0,0.0,0.0,0.0,0.0,0.0456,0.0859,0.1361,0.2195,0.3176,0.3881,0.4459,0.5078,0.5843,0.6516,0.7147,0.803,0.8683,0.9274,0.9977,1.073,1.1421,1.2104,1.2321,1.2421,1.3014,1.3343,1.3725,1.4399,1.4944,1.5369,1.5552,1.5961,0.0,1.6337,1.6756,1.7258,1.7693,1.8193,1.8679,1.9068,1.8852,1.851,1.8207,1.7756,1.7565,1.7883,1.7471,1.7124,1.7057,1.7057,1.6965,1.6785,1.6649,1.6543,1.6398,1.6251,1.5776,1.4905,1.4121,1.3297,1.2414,1.1757,1.1285,1.0991,1.0873,1.0729,1.0597,1.0621,1.0621,1.0661,1.202,1.2622,1.2719,1.3976,1.4529,1.4406,1.3642,1.2734,1.177,1.1048,1.0368,0.9776,0.9617,0.9538,0.9497,-1.8181,0.0,0.0,0.0,0.0,0.0,0.0,0.0,-1.2447,-1.1982,-1.1677,-1.1498,-1.1415,-1.1089,-1.084,-1.0835,-1.0177,-0.9697,-0.9441,-0.8817,-0.8285,-0.7899,-0.7138,-0.647,-0.5965,-0.5375,-0.4827,0.0,0.0,0.0,0.0,0.0,0.0,0.0,0.0,-0.0104,0.0303,0.0839,0.1453,0.2201,0.3206,0.3912,0.4463,0.5223,0.5954,0.6628,0.7251,0.7847,0.8554,0.9396,0.9964,1.0401,1.0961,1.1363,1.1759,1.2356,1.292,1.3466,1.4087,1.4535,1.4775,1.4987,1.5135,0.0,1.5358,1.582,1.6286,1.637,1.6809,1.7249,1.7355,1.7495,1.7471,1.7135,1.7091,1.7036,1.6891,1.6797,1.6701,1.6701,1.6701,1.6675,1.6554,1.6528,1.6474,1.6328,1.5725,1.4954,1.4091,1.338,1.2603,1.1715,1.1502,1.1285,1.0991,1.092,1.0777,1.0597,1.0632,1.0681,1.0735,1.2128,1.2816,1.2996,1.426,1.4794,1.4617,1.3427,1.2604,1.2045,1.1368,1.061,0.988,0.9828,0.971,0.9564,-1.8643,0.0,0.0,0.0,0.0,0.0,0.0,0.0,-1.3453,-1.3117,-1.2838,-1.2569,-1.2482,-1.2133,-1.1958,-1.1958,-1.1305,-1.0778,-1.0569,-0.9836,-0.9288,-0.8779,-0.8009,-0.736,-0.6916,-0.6162,-0.5544,0.0,0.0,0.0,0.0,0.0,0.0,0.0,0.0,-0.0667,-0.0328,0.0278,0.0849,0.1437,0.257,0.3385,0.3969,0.4662,0.5226,0.5818,0.6408,0.7195,0.7907,0.842,0.8871,0.932,0.9894,1.0345,1.0787,1.1399,1.195,1.2573,1.3174,1.3696,1.405,1.4042,1.424,0.0,0.0,1.488,1.5369,1.5355,1.5833,1.6256,1.6291,1.6285,1.6327,1.6381,1.6276,1.6143,1.6055,1.6285,1.6463,1.6463,1.6463,1.6436,1.6355,1.6328,1.6274,1.6163,1.5457,1.4641,1.3845,1.3064,1.227,1.1473,1.1353,1.1215,1.0991,1.0968,1.0873,1.0753,1.0777,1.0965,1.128,1.2399,1.3109,1.3502,1.4507,1.4935,1.4833,1.3768,1.301,1.2386,1.1203,1.047,1.0085,0.9982,0.988,0.9776,-1.8777,-1.8037,0.0,0.0,0.0,0.0,0.0,0.0,-1.4441,-1.4368,-1.4091,-1.3786,-1.365,-1.3466,-1.3257,-1.3118,-1.2518,-1.2004,-1.1663,-1.0872,-1.0218,-0.9785,-0.8885,-0.8185,-0.7769,-0.6916,-0.6241,-0.5661,0.0,0.0,0.0,0.0,0.0,0.0,-0.1627,-0.1189,-0.0773,-0.0178,0.0358,0.09,0.1918,0.2774,0.3471,0.407,0.4531,0.4954,0.5683,0.6474,0.7129,0.7381,0.7772,0.8296,0.8818,0.9204,0.964,1.0199,1.0766,1.1329,1.195,1.2573,1.3075,1.2879,1.3286,1.3614,0.0,0.0,0.0,1.4258,1.4742,1.5114,1.5125,1.5034,1.5086,1.5525,1.5356,1.5195,0.0,1.5754,0.0,1.6148,1.6191,1.6163,1.6139,1.6067,1.6011,1.5911,1.5146,1.439,1.3769,1.2834,1.2021,1.139,1.1262,1.1132,1.0991,1.0991,1.0968,1.0897,1.1045,1.1363,1.1887,1.2772,1.3474,1.3997,1.4726,1.5043,1.497,1.4238,1.3557,1.2858,1.1201,1.0454,1.0299,1.0135,1.0072,1.0021,-1.9365,-1.8499,-1.7753,0.0,0.0,0.0,0.0,0.0,-1.5241,-1.5228,-1.5071,-1.4987,-1.5337,-1.5064,-1.4764,-1.4238,-1.369,-1.3147,-1.2711,-1.1805,-1.1198,-1.1171,-0.9975,-0.893,-0.8352,-0.7756,-0.6961,-0.6053,0.0,0.0,0.0,0.0,0.0,0.0,-0.2112,-0.1596,-0.0983,-0.0553,-0.0125,0.0447,0.1149,0.1983,0.2774,0.357,0.3949,0.4228,0.516,0.5557,0.5752,0.0,0.6793,0.7186,0.7587,0.8166,0.8678,0.8865,0.9442,1.0085,1.0577,1.1197,1.173,1.1638,1.2031,1.2438,1.2254,0.0,1.2644,1.2669,0.0,1.3042,1.3141,0.0,0.0,1.4159,1.4415,1.4672,1.4856,1.4982,1.521,1.5624,1.5784,1.5856,1.5856,1.5827,1.5799,1.5668,1.4522,1.3742,1.3524,1.2308,1.1516,1.1307,1.1239,1.1132,1.0991,1.0991,1.0968,1.091,1.1576,1.1934,1.2122,1.3332,1.3984,1.4199,1.489,1.5178,1.5134,1.4312,1.3912,1.3627,1.2047,1.1027,1.0399,1.0374,1.0324,1.0249,-2.0119,-1.9254,-1.8566,-1.8134,0.0,0.0,0.0,0.0,-1.6397,-1.6158,-1.6059,-1.6104,-1.6328,-1.5937,-1.5594,-1.5375,-1.4961,-1.4516,-1.3814,-1.32,-1.258,-1.1847,-1.1031,-1.0149,-0.9308,-0.8475,-0.7704,-0.6995,-0.6092,0.0,0.0,0.0,0.0,0.0,-0.2496,-0.2086,-0.1583,-0.1014,-0.0575,-0.0129,0.0459,0.1122,0.1849,0.2806,0.3422,0.3756,0.4292,0.4625,0.4821,0.0,0.5683,0.0,0.0,0.6793,0.7312,0.7572,0.8091,0.8672,0.9186,0.9762,1.0215,1.0321,1.0699,1.1042,1.1039,0.0,1.1537,1.1514,0.0,0.0,0.0,0.0,0.0,0.0,1.3609,1.3875,1.4149,1.431,1.4627,1.5195,0.0,0.0,1.5448,0.0,0.0,0.0,1.4286,1.3565,1.3498,1.2187,1.1399,1.1307,1.1215,1.1108,1.1062,1.1426,1.1594,1.1609,1.2305,1.2878,1.3273,1.3926,1.4458,1.4848,1.5227,1.5344,1.5299,1.4905,1.4456,1.3927,1.3207,1.2197,1.1104,1.0717,1.0572,1.051,-2.1275,-2.0177,-1.9322,-1.8944,0.0,0.0,0.0,0.0,-1.7428,-1.722,-1.7329,-1.7394,-1.7374,-1.7074,-1.6741,-1.6458,-1.617,-1.5682,-1.474,-1.4346,-1.3619,-1.2623,-1.1865,-1.1142,-1.0299,-0.9285,-0.8422,-0.7716,0.0,0.0,0.0,0.0,0.0,0.0,-0.2967,-0.254,-0.2151,-0.1437,-0.098,-0.0589,0.0,0.0538,0.1142,0.2083,0.2753,0.3155,0.3355,0.3623,0.3887,0.4156,0.4558,0.0,0.5153,0.5543,0.6001,0.6334,0.6789,0.7302,0.7698,0.0,0.0,0.0,0.0,0.0,0.0,0.0,0.0,0.0,1.0569,0.0,0.0,0.0,1.1925,1.227,0.0,1.291,1.3211,1.3441,1.391,1.4707,0.0,0.0,0.0,0.0,0.0,1.5269,1.4268,1.367,1.367,1.251,1.1823,1.1775,1.1678,1.1629,1.1629,1.2066,1.2317,1.2382,1.3074,1.3656,1.4141,1.4529,1.4921,1.5328,1.5463,1.5477,1.5418,1.5328,1.4963,1.4385,1.4083,1.3319,1.2276,1.1552,1.1294,1.1319,-2.2756,-2.1357,-1.9998,-1.9392,-1.887,0.0,0.0,-1.8334,-1.8248,-1.8721,-1.8817,-1.8821,-1.8814,-1.8842,-1.851,-1.7694,-1.7301,-1.6685,-1.5515,-1.4836,-1.4183,-1.3906,-1.2485,-1.1492,-1.1084,-1.0164,-0.9179,-0.8062,-0.7557,0.0,0.0,0.0,0.0,0.0,-0.3463,-0.2885,-0.2347,-0.1812,-0.1411,-0.1007,-0.0269,0.0337,0.0874,0.0,0.2085,0.2288,0.2418,0.0,0.0,0.3157,0.3493,0.0,0.0,0.0,0.0,0.0,0.0,0.0,0.0,0.0,0.0,0.7087,0.0,0.0,0.0,0.0,0.8514,0.0,0.0,0.0,0.9836,1.0427,1.0861,1.088,1.1251,0.0,0.0,1.2274,1.2865,1.4154,1.4556,0.0,0.0,1.4839,1.4902,1.4932,1.4397,1.407,1.407,1.3373,1.295,1.295,1.2952,1.2939,1.2939,1.3021,1.3075,1.3089,1.3826,1.4184,1.4213,1.5009,1.5374,1.5389,1.5477,1.5507,1.5492,1.5358,1.5268,1.5181,1.4414,1.4056,1.3913,1.3122,1.287,1.2924,-2.3875,-2.2886,-2.1838,-2.1065,-2.0334,-1.974,-1.9554,-1.9319,-1.9423,-1.9905,-1.9688,-1.9498,-1.9823,-1.9233,-1.8742,-1.8531,-1.824,-1.7578,-1.6678,-1.6182,-1.5496,-1.4437,-1.3637,-1.2694,-1.1811,-1.0983,-1.0065,-0.8981,-0.822,0.0,0.0,0.0,0.0,0.0,0.0,-0.3357,-0.2889,-0.2287,-0.1749,-0.1345,-0.0539,-0.0067,0.0135,0.0,0.1412,0.148,0.1613,0.1747,0.0,0.2084,0.2323,0.2548,0.2808,0.3089,0.3355,0.361,0.3985,0.0,0.0,0.0,0.5443,0.5735,0.0,0.0,0.0,0.0,0.0,0.0,0.0,0.0,0.8755,0.9101,0.945,0.981,1.0019,1.0322,0.0,1.12,1.1863,1.2787,1.3709,1.4241,0.0,0.0,1.4606,1.461,1.4128,1.3895,1.4041,1.3333,1.2953,1.3007,1.3008,1.2995,1.2995,1.3459,1.3714,1.3756,1.4515,1.4876,1.495,1.5301,1.5477,1.5477,1.5639,1.5639,1.5551,1.5463,1.5403,1.5329,1.4963,1.4862,1.4819,1.3596,1.3182,1.3195,-2.5142,-2.4371,-2.3428,-2.224,-2.1433,-2.082,-2.0615,-2.055,-2.0611,-2.0798,-2.0672,-2.0587,-2.0706,-2.0113,-1.9593,-1.9384,-1.8992,-1.84,-1.7579,-1.7083,-1.6381,-1.5293,-1.4374,-1.3501,-1.2603,-1.1755,-1.0761,-0.9735,-0.8953,-0.8134,0.0,0.0,0.0,0.0,-0.43,-0.3761,-0.336,-0.2757,-0.222,-0.1748,-0.0942,-0.0606,0.0,0.0,0.047,0.0738,0.0,0.0861,0.0992,0.1114,0.1289,0.1459,0.1649,0.1813,0.203,0.2277,0.2644,0.2942,0.3148,0.3446,0.0,0.4263,0.4646,0.0,0.5366,0.0,0.6023,0.0,0.0,0.0,0.0,0.7945,0.8207,0.8567,0.8765,0.9081,0.0,1.0353,1.1109,1.185,1.2877,1.3579,1.3789,1.4059,1.4254,1.431,1.4046,1.3976,0.0,0.0,1.3471,1.3586,1.3614,1.3628,1.3657,1.4125,1.4368,1.4442,1.4976,1.5253,1.5313,1.5433,1.5507,1.5507,1.5712,1.5712,1.558,1.5551,1.5448,1.5389,1.5268,1.5298,1.5286,1.4355,1.405,1.4133,-2.6557,-2.5684,-2.462,-2.3012,-2.2208,-2.178,-2.1786,-2.1942,-2.187,-2.1595,-2.1767,-2.1891,-2.1677,-2.1299,-2.0876,-2.0332,-1.9751,-1.8926,-1.8091,-1.7285,-1.6686,-1.6286,-1.4867,-1.3896,-1.3622,-1.2372,-1.1359,-1.0379,-0.9735,0.0,0.0,0.0,0.0,0.0,-0.4745,-0.4164,-0.3758,-0.3224,-0.269,-0.2154,-0.1547,-0.1277,-0.1143,-0.1141,-0.0738,-0.0067,-0.0065,0.0064,0.0256,0.0311,0.0431,0.0553,0.0737,0.0798,0.0858,0.1226,0.1472,0.1645,0.1774,0.205,0.238,0.2753,0.0,0.0,0.0,0.0,0.4571,0.0,0.0,0.0,0.0,0.0,0.7084,0.7129,0.7433,0.7957,0.89,0.9677,1.0483,1.1327,1.2038,1.2742,1.3429,1.3695,1.3894,1.3967,1.4092,1.4222,0.0,0.0,1.4493,1.4683,1.4683,1.4746,1.4808,1.4935,1.5013,1.5013,1.5208,1.5313,1.5313,1.5433,1.5507,1.5507,1.5712,1.5712,1.558,1.5522,1.5448,1.5389,1.5328,1.5344,1.5418,1.5358,1.5448,1.561,-2.7468,-2.6748,-2.6062,-2.5392,-2.4116,-2.3168,-2.3012,-2.2416,-2.2272,-2.298,-2.2544,-2.2309,-2.223,-2.1736,-2.1217,-2.0536,-2.0129,-1.9538,-1.86,-1.8182,-1.7471,-1.6384,-1.5625,-1.4733,-1.3628,-1.3272,-1.2319,-1.0638,-1.0141,-0.9428,-0.8461,0.0,0.0,0.0,-0.5154,-0.4498,-0.4097,-0.3426,-0.2825,-0.2356,-0.2087,-0.1951,-0.1879,0.0,-0.1629,-0.1432,-0.1033,-0.0826,-0.0746,-0.0865,-0.0849,-0.0773,-0.0654,-0.0527,-0.0402,-0.023,0.0115,0.0459,0.0455,0.0851,0.135,0.1523,0.1978,0.2401,0.0,0.0,0.0,0.0,0.0,0.0,0.0,0.0,0.5424,0.5923,0.6472,0.702,0.7663,0.8159,0.8889,1.0157,1.0692,1.1509,1.2914,1.3229,1.3446,1.3615,1.3715,1.3848,0.0,0.0,0.0,1.4461,1.462,1.4714,1.4746,1.4856,1.4935,1.5013,1.5163,1.5253,1.5313,1.5433,1.5507,1.5507,1.561,1.5639,1.558,1.5477,1.5418,1.5389,1.5374,1.5522,1.5712,1.5683,1.5741,1.5827,-2.8741,-2.8052,-2.7393,-2.696,-2.5879,-2.4801,-2.4,-2.3295,-2.302,-2.3331,-2.3005,-2.2724,-2.2662,-2.2164,-2.1655,-2.1036,-2.056,-1.989,-1.9209,-1.8449,-1.7714,-1.6953,-1.6177,-1.5278,-1.4256,-1.3798,-1.2826,-1.1289,-1.0632,-0.9915,-0.8927,0.0,0.0,0.0,-0.5562,-0.4831,-0.4431,-0.356,-0.3025,-0.2758,-0.2488,-0.2488,0.0,-0.241,-0.2364,-0.2397,-0.2177,-0.1837,-0.1566,-0.1663,-0.1694,-0.1668,-0.1611,-0.1535,-0.1457,-0.1232,-0.1008,-0.0726,-0.044,-0.011,0.0217,0.0525,0.0924,0.1253,0.1344,0.1732,0.2191,0.0,0.0,0.0,0.0,0.0,0.0,0.5165,0.5716,0.6275,0.688,0.7246,0.7987,0.9375,0.9786,1.0554,1.2058,1.2626,1.2953,1.3091,1.3242,0.0,0.0,0.0,0.0,1.4208,1.4415,1.4543,1.4624,1.4763,1.4904,1.5013,1.5133,1.5253,1.5313,1.5403,1.5448,1.5448,1.5551,1.5551,1.5507,1.5418,1.5389,1.5418,1.5448,1.561,1.5799,1.5885,1.5942,1.5998,-3.0078,-2.9406,-2.8679,-2.8032,-2.7452,-2.6526,-2.4899,-2.4384,-2.3981,-2.3366,-2.3324,-2.3142,-2.2838,-2.259,-2.2149,-2.1426,-2.0852,-2.0261,-1.9583,-1.8619,-1.789,-1.7757,-1.6592,-1.5611,-1.4977,-1.4115,-1.3138,-1.2012,-1.1203,-1.0316,0.0,0.0,0.0,-0.7007,-0.5966,-0.5226,-0.4697,-0.3761,-0.3293,-0.3226,-0.2956,-0.2948,-0.3064,-0.2976,-0.2951,-0.3108,-0.3247,-0.2803,-0.2267,-0.2306,-0.2336,-0.2334,-0.2323,-0.232,-0.2265,-0.1988,-0.1877,-0.1756,-0.1119,-0.0952,-0.0786,-0.0303,-0.0049,0.0095,0.0236,0.0595,0.1009,0.1349,0.1741,0.2192,0.0,0.0,0.0,0.4599,0.5106,0.5609,0.6275,0.6648,0.7395,0.8776,0.9144,0.0,1.1036,1.1872,1.2425,1.2532,0.0,0.0,0.0,0.0,0.0,1.3934,1.4144,0.0,1.447,0.0,1.4811,1.4982,1.5102,1.5208,1.5283,1.5374,1.5389,1.5389,1.5448,1.5448,1.5418,1.5389,1.5418,1.5448,1.558,1.5697,1.5856,1.5983,1.6052,1.6123,-3.0642,-3.0155,-2.9739,-2.9284,-2.8402,-2.7484,-2.6557,-2.546,-2.4687,-2.4499,-2.4248,-2.3856,-2.3099,-2.3048,-2.2459,-2.1352,-2.1088,-2.0556,-1.939,-1.9137,-1.8555,-1.7421,-1.6921,-1.6127,-1.506,-1.4546,-1.3547,-1.2012,-1.1513,-1.0774,0.0,0.0,0.0,-0.7425,-0.6431,-0.5484,-0.4628,-0.4231,0.0,-0.3692,-0.3625,-0.3577,-0.3496,-0.3511,-0.3467,-0.3424,-0.3651,-0.3383,-0.2974,-0.3148,-0.3164,-0.3149,-0.3002,-0.2871,-0.2766,-0.2566,-0.2362,-0.2152,-0.1934,-0.1628,-0.1364,-0.1263,-0.0957,-0.066,-0.0547,-0.0263,0.0042,0.0377,0.075,0.1192,0.1695,0.0,0.0,0.0,0.0,0.0,0.5578,0.5959,0.665,0.7948,0.8417,0.9095,1.0186,1.1132,1.1811,1.2138,0.0,0.0,0.0,0.0,0.0,0.0,1.3934,0.0,0.0,0.0,1.4641,1.4825,1.4966,1.5102,1.5222,1.5344,1.5389,1.5389,1.5418,1.5448,1.5477,1.5418,1.5551,1.5741,1.577,1.5885,1.6039,1.6067,1.6179,1.6274,-3.0947,-3.0784,-3.0543,-3.017,-2.9209,-2.8279,0.0,-2.6465,-2.5527,-2.488,-2.4436,-2.4025,-2.3419,-2.3143,-2.2581,-2.1734,-2.1256,-2.0687,-1.9755,-1.9271,-1.8644,-1.7827,-1.7212,-1.6443,-1.5521,-1.4851,-1.3913,-1.2632,-1.2,-1.1172,-1.0207,0.0,0.0,-0.7774,-0.6634,-0.5683,-0.5027,0.0,0.0,-0.4225,-0.409,-0.4022,-0.3974,-0.3982,-0.3982,-0.3964,-0.399,-0.3971,-0.3851,-0.3738,-0.3672,-0.3655,-0.3536,-0.3465,-0.3415,-0.3268,-0.3068,-0.2856,-0.2651,-0.2394,-0.2134,-0.205,-0.1752,-0.1503,-0.1401,-0.1107,-0.0745,-0.0434,-0.0038,0.0434,0.1159,0.1875,0.0,0.0,0.0,0.0,0.0,0.5257,0.5902,0.7001,0.7441,0.8009,0.8922,0.9554,1.0257,1.1157,1.1393,0.0,0.0,0.0,0.0,0.0,0.0,0.0,0.0,0.0,0.0,1.4655,1.4811,1.4949,1.5056,1.5238,1.5298,1.5284,1.5359,1.5418,1.5448,1.5551,1.5668,1.5799,1.5913,1.6055,1.6166,1.6207,1.6274,1.6355,-3.1198,-3.1077,-3.0961,-3.043,-2.9534,-2.8727,-2.7979,-2.7104,-2.6113,-2.5034,-2.4519,-2.4073,-2.3681,-2.3116,-2.2514,-2.2047,-2.1406,-2.0704,-2.0062,-1.9328,-1.8739,-1.8208,-1.7407,-1.6676,-1.5891,-1.5133,-1.4183,-1.318,-1.2479,0.0,0.0,0.0,0.0,0.0,0.0,0.0,0.0,0.0,-0.4894,-0.4688,-0.4527,-0.4372,-0.4373,-0.4311,-0.4358,-0.4431,-0.4338,-0.4483,-0.4603,-0.4257,-0.4117,-0.4014,-0.3979,-0.3969,-0.3969,-0.382,-0.3678,-0.3514,-0.3213,-0.3047,-0.2892,-0.275,-0.2502,-0.2253,-0.2162,-0.1793,-0.1415,-0.1114,-0.0686,-0.0106,0.0746,0.1343,0.0,0.0,0.0,0.0,0.0,0.4584,0.5138,0.607,0.6484,0.6995,0.7737,0.0,0.8608,0.0,0.0,0.0,1.1206,0.0,0.0,0.0,0.0,1.3527,1.3808,0.0,1.4222,0.0,1.4624,1.4763,1.4871,1.5086,1.5178,1.5222,1.5344,1.5418,1.5507,1.5726,1.5856,1.5913,1.6067,1.6299,1.6493,1.6561,1.6643,1.6698,-3.124,-3.0867,-3.047,-2.9624,0.0,-2.8152,-2.7446,-2.6689,-2.592,-2.5163,-2.4691,-2.4076,-2.3448,-2.3033,-2.2577,-2.2003,-2.145,-2.075,-1.9766,-1.9521,-1.8902,-1.7763,-1.7454,-1.6815,-1.5884,-1.5507,-1.4618,-1.318,0.0,-1.202,0.0,0.0,0.0,0.0,0.0,0.0,0.0,-0.5683,-0.5352,-0.5011,-0.489,-0.4753,-0.4549,-0.4588,-0.4619,-0.4688,-0.4718,-0.4762,-0.4755,-0.4689,-0.4534,-0.44,-0.4284,-0.428,-0.4232,-0.4095,-0.3965,-0.3835,-0.3681,-0.3503,-0.3325,-0.3312,-0.3126,-0.2868,-0.2584,-0.2318,-0.2023,-0.1693,-0.1015,-0.0338,0.0101,0.0739,0.1311,0.0,0.0,0.0,0.0,0.0,0.4433,0.5364,0.5848,0.638,0.7126,0.7194,0.0,0.0,0.9239,0.0,0.0,0.0,0.0,1.2544,0.0,1.3138,1.3527,1.3741,1.3894,1.4052,1.4374,1.4592,1.4746,1.4935,1.5102,1.5222,1.5344,1.5551,1.577,1.5926,1.6039,1.6166,1.6246,1.6772,1.7462,1.749,1.7559,1.767,0.0,0.0,0.0,0.0,0.0,0.0,0.0,-2.7053,-2.6144,-2.5439,-2.4814,-2.4331,-2.3961,-2.3372,-2.2778,-2.2153,-2.1518,-2.0838,-2.0175,-1.9591,-1.8955,-1.8244,-1.7596,-1.7007,-1.6362,-1.5531,-1.4735,0.0,0.0,0.0,0.0,0.0,0.0,0.0,0.0,-0.6941,-0.6544,-0.6214,-0.5951,-0.5734,-0.5449,-0.5234,-0.5079,-0.5042,-0.499,-0.4896,-0.4927,-0.4992,-0.5043,-0.4897,-0.479,-0.4687,-0.4604,-0.467,-0.4675,-0.4578,-0.4447,-0.4316,-0.4188,-0.4056,-0.3924,-0.3924,-0.3673,-0.3353,-0.3169,-0.2793,-0.2362,-0.2098,-0.1496,-0.0838,-0.0336,0.0134,0.0639,0.0,0.0,0.0,0.0,0.0,0.3761,0.4405,0.4886,0.5353,0.5865,0.6166,0.0,0.0,0.0,0.0,0.0,0.0,0.0,1.2138,0.0,1.2756,1.3138,1.3344,1.3547,1.3769,1.4144,1.4369,1.4525,1.4825,1.5102,1.5374,1.5492,1.5653,1.5926,1.6067,1.6453,1.6993,1.7129,1.7694,1.8457,1.8527,1.8611,1.8707,-3.1514,0.0,-3.0909,0.0,-2.9446,-2.8704,-2.7962,-2.6931,-2.595,-2.5275,-2.461,-2.4197,-2.4195,-2.3384,-2.2688,-2.2419,-2.1512,-2.0716,-2.0264,-1.9563,-1.8903,-1.8442,-1.7755,0.0,-1.6587,-1.5606,-1.487,-1.4381,-1.346,0.0,0.0,0.0,0.0,0.0,-0.8019,-0.7518,-0.7143,-0.6745,-0.6515,-0.6314,-0.5884,-0.5655,-0.5489,-0.5435,-0.5293,-0.5159,-0.5177,-0.5175,-0.5204,-0.5095,-0.5072,-0.5062,-0.4975,-0.5024,-0.5072,-0.498,-0.4884,-0.4753,-0.4718,-0.4587,-0.4482,-0.4423,-0.4143,-0.3825,-0.3605,-0.3162,-0.2679,-0.2402,-0.1907,-0.134,-0.0839,-0.0403,0.0067,0.0706,0.0,0.0,0.0,0.2639,0.3138,0.363,0.4081,0.45,0.4909,0.544,0.0,0.0,0.0,0.0,0.0,0.0,0.0,0.0,0.0,0.0,0.0,1.2988,1.3263,1.356,1.3927,1.4203,1.4397,1.4808,1.5208,1.5551,1.5639,1.5841,1.6123,1.6478,1.7046,1.7697,1.8095,1.8764,1.9508,1.9593,1.9705,1.9816,-2.999,-2.9817,-2.9535,-2.8787,-2.8255,-2.7729,-2.6971,-2.5959,-2.5083,-2.4476,-2.3988,-2.369,-2.3846,-2.3041,-2.2529,-2.2529,-2.1278,-2.0365,-1.9971,-1.9433,-1.8836,0.0,0.0,-1.7083,-1.6214,-1.5802,-1.5073,-1.3989,0.0,0.0,-1.2298,0.0,-0.9885,-0.8867,-0.8446,-0.8051,-0.7666,-0.7335,-0.6957,-0.6572,-0.6258,-0.5956,-0.5776,-0.5643,-0.5561,-0.5522,-0.558,-0.5419,-0.5204,-0.5267,-0.5463,-0.5636,-0.5371,-0.5285,-0.5285,-0.5285,-0.5241,-0.5193,-0.5193,-0.5111,-0.4933,-0.4674,-0.4459,-0.4195,-0.378,-0.344,-0.3032,-0.2502,-0.2178,-0.1845,-0.1373,-0.0839,-0.037,0.0034,0.0,0.0,0.0,0.2006,0.0,0.3142,0.3495,0.3941,0.4532,0.5198,0.0,0.0,0.0,0.0,0.0,0.0,0.0,1.1282,1.1689,0.0,1.2508,1.2756,1.3069,1.3425,1.3741,1.404,1.4332,1.4932,1.5358,1.561,1.5799,1.6055,1.6375,1.7282,1.7848,1.8189,1.8963,1.986,2.0671,2.0671,2.08,2.0982,-3.0692,-3.0167,-2.951,-2.8775,-2.8114,-2.7616,-2.6947,-2.6182,-2.5527,-2.506,-2.4522,-2.4164,-2.3987,-2.3227,-2.2476,0.0,-2.1414,-2.0699,0.0,-1.9569,-1.8922,-1.8136,-1.7692,-1.7191,-1.6475,-1.5751,-1.5142,-1.4808,0.0,0.0,0.0,-1.0811,-1.003,-0.9528,-0.8953,-0.842,-0.8012,-0.7633,-0.726,-0.6862,-0.6533,-0.636,-0.6269,-0.604,-0.5831,-0.572,-0.5605,-0.5575,-0.5551,-0.5571,-0.5723,-0.5895,-0.5804,-0.5761,-0.5761,-0.5669,-0.562,-0.562,-0.5545,-0.5507,-0.5406,-0.5163,-0.4833,-0.45,-0.4173,-0.369,-0.3176,-0.2812,-0.254,-0.2211,-0.1776,-0.134,-0.0871,-0.0336,0.0101,0.0,0.1041,0.0,0.2006,0.254,0.3035,0.356,0.4081,0.4756,0.0,0.0,0.0,0.0,0.0,0.0,0.0,0.0,1.1815,0.0,1.3122,1.3435,1.3627,1.37,1.4057,1.4413,1.4714,1.5133,1.5522,1.5827,1.6026,1.6524,1.7294,1.772,1.8653,1.9843,2.0285,2.0994,2.1826,2.1942,2.2095,2.2228,-3.048,-3.0078,-2.9547,-2.8755,-2.8117,-2.7553,-2.6993,-2.622,-2.5483,-2.5043,-2.4599,-2.4139,-2.3753,-2.3197,0.0,-2.2089,-2.1371,-2.0798,-2.041,-1.9618,-1.8962,-1.8339,-1.7652,-1.7003,-1.6471,-1.5667,0.0,-1.4982,-1.3833,-1.2728,-1.1668,-1.0901,-1.0284,-0.9843,-0.9186,-0.8731,-0.8449,-0.7931,-0.7521,-0.7125,-0.687,-0.6604,-0.6435,-0.6225,-0.5982,-0.5748,-0.5749,-0.5739,-0.5723,-0.5847,-0.6019,-0.6153,-0.619,-0.6233,-0.6233,-0.6013,-0.5964,-0.6013,-0.5976,-0.5871,-0.5694,-0.5397,-0.5045,-0.4661,-0.4281,-0.3789,-0.3377,-0.3105,-0.2838,-0.254,-0.2109,-0.1707,-0.1273,-0.0739,-0.0336,0.0101,0.0605,0.0,0.1509,0.0,0.0,0.0,0.0,0.4429,0.5257,0.0,0.0,0.0,0.0,0.0,0.0,1.1185,1.1692,0.0,1.3192,1.3633,1.3911,1.4075,1.4559,1.4965,1.5367,1.5461,1.5711,1.6067,1.6289,1.6991,1.7985,1.8512,1.9595,2.0992,2.1475,2.2089,2.2678,2.2833,2.2935,2.3067,-2.9656,-2.9614,-2.9413,0.0,-2.817,0.0,-2.7051,-2.6052,-2.517,-2.4634,-2.4345,-2.3897,-2.315,-2.2968,-2.2832,-2.2512,0.0,0.0,0.0,-1.9602,-1.8907,-1.8632,-1.753,-1.6756,-1.6293,-1.5593,-1.5054,-1.4609,-1.3527,-1.2423,-1.1324,-1.1107,-1.0549,-0.9824,-0.937,-0.9052,-0.8821,-0.8278,-0.7808,-0.7367,-0.7244,-0.6867,-0.637,-0.6355,-0.6026,-0.5692,-0.5911,-0.5907,-0.5809,-0.6099,-0.6319,-0.6453,-0.6526,-0.6617,-0.6666,-0.6313,-0.6319,-0.6416,-0.6416,-0.6174,-0.5863,-0.5523,-0.5173,-0.4734,-0.417,-0.3863,-0.3639,-0.3377,-0.3105,-0.2801,-0.2405,-0.2009,-0.1611,-0.1211,-0.0739,-0.0269,0.0202,0.0,0.1075,0.0,0.0,0.0,0.0,0.4163,0.506,0.0,0.0,0.0,0.0,0.0,0.991,1.0896,1.1368,1.2057,1.2945,1.3519,1.4068,1.4629,1.5172,1.5688,1.6131,1.5847,1.5966,1.6355,1.6617,1.7397,1.8508,1.9521,2.0577,2.1616,2.2513,2.306,2.3348,2.3353,2.3427,2.3566,0.0,0.0,-2.8642,-2.8421,-2.804,-2.7585,-2.6917,-2.6308,-2.5804,-2.517,-2.4694,-2.4273,-2.397,-2.3039,-2.2415,-2.2388,-2.1803,-2.112,-2.0164,-1.982,-1.9098,-1.7807,-1.7524,-1.6991,-1.6201,-1.584,-1.5159,-1.4236,-1.323,-1.2394,-1.1833,-1.1148,-1.0564,-1.0036,-0.9659,-0.9094,-0.8414,-0.8297,-0.7952,-0.7503,-0.7443,-0.7211,-0.6872,-0.6729,-0.6468,-0.618,-0.6041,-0.6113,-0.6239,-0.6325,-0.6453,-0.6666,-0.6787,-0.6865,-0.6859,-0.666,-0.6623,-0.6623,-0.6623,-0.6416,-0.6127,-0.5857,-0.5285,-0.4722,-0.4399,-0.4123,-0.3863,-0.3639,-0.334,-0.3043,-0.2746,-0.2408,-0.2009,-0.1542,-0.1176,-0.0739,-0.0235,0.0202,0.0,0.0,0.1744,0.2242,0.2863,0.3841,0.4716,0.0,0.0,0.0,0.0,0.8561,0.9556,1.0997,1.1406,1.2263,1.3567,1.4193,1.4931,1.5892,1.5679,1.5876,1.6465,1.6271,1.6378,1.6773,1.7035,1.7781,1.8863,1.9921,2.0947,2.1972,2.3016,2.3522,2.3699,2.3842,2.3961,2.404,-2.9159,-2.8653,-2.8232,-2.8016,-2.7786,-2.7352,-2.6518,-2.6168,-2.5772,-2.5037,-2.4465,-2.3979,-2.3629,-2.2886,-2.2295,-2.1942,-2.1459,-2.0841,-2.0146,-1.958,-1.8904,-1.7943,-1.7463,-1.6908,-1.6211,-1.5756,-1.4915,-1.3648,-1.3006,-1.2421,-1.1816,-1.1389,-1.0829,-1.0235,-0.98,-0.9259,-0.8621,-0.8435,-0.8082,-0.767,-0.7547,-0.7298,-0.6944,-0.6687,-0.6481,-0.629,-0.62,-0.6282,-0.6489,-0.6611,-0.6745,-0.6872,-0.7083,-0.7154,-0.7168,-0.6922,-0.6799,-0.6799,-0.6799,-0.6481,-0.6082,-0.572,-0.5246,-0.4768,-0.4543,-0.4318,-0.4053,-0.3831,-0.3536,-0.327,-0.2977,-0.2643,-0.2275,-0.1878,-0.1543,-0.1151,-0.0628,-0.0143,0.0,0.0906,0.1483,0.2073,0.2606,0.3529,0.4446,0.5205,0.6132,0.0,0.769,0.8144,0.9056,1.0554,1.116,1.2064,1.3356,1.4373,1.5387,1.6402,1.5979,1.6152,1.6804,1.6635,1.6809,1.7239,1.7551,1.829,1.9395,2.047,2.1485,2.252,2.3517,2.4023,2.4192,2.4282,2.4388,2.4489,-2.9045,-2.8507,-2.804,-2.7631,-2.7448,-2.7055,-2.6202,-2.5974,-2.5585,-2.4663,-2.4132,-2.3604,-2.3056,-2.2717,-2.2264,-2.1589,-2.0818,-2.0315,-2.0317,-1.9334,-1.8603,-1.8325,-1.7445,-1.6678,-1.6323,-1.547,-1.4405,-1.3148,-1.29,-1.2403,-1.1685,-1.1571,-1.1135,-1.04,-0.9863,-0.9396,-0.8945,-0.8584,-0.8268,-0.7925,-0.7647,-0.7282,-0.6877,-0.6626,-0.6408,-0.627,-0.641,-0.6489,-0.6605,-0.6894,-0.7021,-0.7112,-0.737,-0.7496,-0.7466,-0.7165,-0.6998,-0.6916,-0.6877,-0.6462,-0.5914,-0.5415,-0.5151,-0.4922,-0.4698,-0.4473,-0.4248,-0.4021,-0.3728,-0.3467,-0.3204,-0.2841,-0.2483,-0.2206,-0.187,-0.1495,-0.103,0.0,0.0079,0.0628,0.1294,0.192,0.2405,0.3291,0.4134,0.4931,0.5704,0.6546,0.0,0.7784,0.8567,0.9765,1.064,1.167,1.2834,1.4275,1.5505,1.6451,1.6199,1.6483,1.7217,1.7087,1.7271,1.7737,1.8083,1.879,1.9808,2.1007,2.2024,2.2916,2.3998,2.4522,2.4682,2.4689,2.4771,2.4866,-2.8411,-2.8179,-2.7888,-2.7882,-2.751,-2.7059,-2.6492,-2.6077,-2.56,-2.5013,-2.4601,-2.4132,-2.3592,-2.2827,-2.2174,-2.1843,-2.0765,-2.01,-1.99,-1.9592,-1.8973,-1.8125,-1.7302,-1.6682,-1.6337,-1.4959,-1.4013,-1.3515,-1.2907,-1.2484,-1.2174,-1.1518,-1.0975,-1.0538,-0.9771,-0.92,-0.8818,-0.8652,-0.8474,-0.8296,-0.7961,-0.7684,-0.7361,-0.7092,-0.6818,-0.6623,-0.663,-0.6787,-0.6937,-0.6979,-0.7154,-0.737,-0.7587,-0.767,-0.7646,-0.7489,-0.7228,-0.6929,-0.6782,-0.6407,-0.5962,-0.5492,-0.5316,-0.5182,-0.4922,-0.466,-0.443,-0.428,-0.3928,-0.3635,-0.3467,-0.3101,-0.278,-0.2563,-0.2205,-0.1772,-0.1308,0.0,-0.0275,0.0511,0.1019,0.1534,0.2185,0.2988,0.3738,0.4378,0.54,0.6289,0.6885,0.7617,0.8299,0.8979,0.9831,1.1191,1.3061,1.4068,1.5146,1.625,1.6377,1.6893,1.7775,1.7632,1.7868,1.8378,1.8645,1.8996,1.9507,2.128,2.2164,2.255,2.4246,2.4949,2.5037,2.5094,2.5109,2.5159,-2.8167,-2.7869,-2.7554,-2.7374,-2.7188,-2.6815,-2.6021,-2.5794,-2.5419,-2.4632,-2.4164,-2.3717,-2.334,-2.2375,-2.1628,-2.1227,-2.0381,-1.9629,-1.9222,-1.901,-1.8588,-1.7989,-1.7191,-1.641,-1.5661,-1.4655,-1.3928,-1.3529,-1.3001,-1.2517,-1.2137,-1.1682,-1.1098,-1.0316,-0.995,-0.9498,-0.9008,-0.8844,-0.8738,-0.8547,-0.7998,-0.7698,-0.7443,-0.7103,-0.6946,-0.6865,-0.6956,-0.7083,-0.7238,-0.7273,-0.7405,-0.7587,-0.7753,-0.7878,-0.7941,-0.7678,-0.7174,-0.6654,-0.6405,-0.615,-0.5945,-0.5666,-0.5498,-0.5271,-0.5017,-0.4794,-0.4608,-0.4344,-0.4091,-0.3868,-0.3635,-0.3416,-0.3197,-0.2961,-0.2662,0.0,0.0,-0.1247,-0.0633,0.0169,0.0784,0.1395,0.2045,0.2778,0.3517,0.4247,0.5094,0.5914,0.6756,0.7432,0.8111,0.8788,1.0095,1.1593,1.3313,1.4004,1.4922,1.6042,1.6383,1.7019,1.7845,1.8082,1.8462,1.8957,1.9225,1.9447,1.9774,2.1662,2.2486,2.2738,2.4524,2.5235,2.5262,2.5348,2.5355,2.5376,-2.8174,-2.7825,-2.7386,-2.6989,-2.6888,-2.6594,-2.5647,-2.5543,-2.519,-2.4155,-2.3612,-2.3137,-2.2655,-2.1856,-2.114,-2.0639,-1.9991,-1.9417,-1.8928,-1.8548,-1.8176,-1.7843,-1.705,-1.6057,-1.4964,-1.4453,-1.3961,-1.3382,-1.3039,-1.2557,-1.1958,-1.1705,-1.1156,-1.0322,-1.0132,-0.9749,-0.9263,-0.9166,-0.8967,-0.8703,-0.8074,-0.7727,-0.7523,-0.7148,-0.7034,-0.7112,-0.7245,-0.7377,-0.7503,-0.7572,-0.7655,-0.7787,-0.7919,-0.8085,-0.8187,-0.7874,-0.7258,-0.6646,-0.6267,-0.6059,-0.5912,-0.5811,-0.5617,-0.5358,-0.5119,-0.4934,-0.4742,-0.4479,-0.4285,-0.4074,-0.3865,-0.3759,-0.3604,-0.3361,0.0,0.0,0.0,-0.158,-0.094,-0.0179,0.0517,0.1194,0.1843,0.2575,0.331,0.4068,0.4779,0.5617,0.6646,0.7294,0.8101,0.9156,1.0596,1.1991,1.3309,1.3948,1.4822,1.5977,1.6548,1.7256,1.8035,1.8556,1.9029,1.946,1.9684,1.9868,2.0139,2.2003,2.2803,2.3024,2.4762,2.544,2.5457,2.5508,2.5524,2.5534,-2.8403,-2.8189,-2.7775,-2.7269,-2.6832,-2.6408,-2.5948,-2.5494,-2.4856,-2.3886,-2.3401,-2.2799,-2.1725,-2.14,-2.1023,-2.0577,-2.0065,-1.9701,-1.9536,-1.8589,-1.7916,-1.7698,-1.6717,-1.5667,-1.4584,-1.4515,-1.3969,-1.3014,-1.3014,-1.2596,-1.1889,-1.1335,-1.0988,-1.0871,-1.0128,-0.9703,-0.9562,-0.9413,-0.9088,-0.8706,-0.8372,-0.8073,-0.7736,-0.7461,-0.737,-0.737,-0.7447,-0.7572,-0.7712,-0.7836,-0.7904,-0.7979,-0.8126,-0.825,-0.8342,-0.8053,-0.7727,-0.7319,-0.6788,-0.6322,-0.5959,-0.5842,-0.5655,-0.546,-0.5309,-0.5087,-0.4858,-0.4774,-0.4511,-0.4285,-0.4251,-0.4056,-0.3866,-0.3754,0.0,0.0,-0.2524,-0.1966,-0.1254,-0.0447,0.0129,0.0782,0.1534,0.2281,0.2983,0.3601,0.4547,0.5493,0.6387,0.7251,0.8519,1.0311,1.0867,1.1649,1.2733,1.39,1.5065,1.6188,1.7089,1.7928,1.8645,1.9121,1.9526,1.9867,2.0022,2.0147,2.0404,2.2231,2.298,2.3153,2.4904,2.5598,2.5586,2.5599,2.5586,2.5579,-2.8153,-2.8248,-2.814,-2.7675,-2.7218,-2.6788,-2.6351,-2.561,-2.4858,-2.4177,-2.3405,-2.2732,-2.206,-2.1331,-2.0747,-2.0471,-1.9713,-1.9203,-1.8992,-1.8418,-1.772,-1.694,-1.6246,-1.5596,-1.5059,-1.4464,-1.3914,-1.3548,-1.3016,-1.2479,-1.1947,-1.1535,-1.1194,-1.0921,-1.0526,-1.0081,-0.9672,-0.9522,-0.9195,-0.8728,-0.8318,-0.8117,-0.7974,-0.7786,-0.7712,-0.7704,-0.7773,-0.7855,-0.7904,-0.8044,-0.8167,-0.8283,-0.8365,-0.8488,-0.8578,-0.847,-0.8144,-0.7759,-0.7541,-0.7084,-0.6567,-0.6337,-0.6047,-0.5728,-0.5438,-0.5207,-0.5017,-0.4838,-0.4841,-0.4774,-0.4517,-0.4544,-0.4514,-0.4265,0.0,-0.346,-0.2987,-0.2415,-0.1744,-0.094,-0.0337,0.036,0.1216,0.1997,0.2734,0.3368,0.4224,0.5265,0.6448,0.813,0.9667,1.0956,1.189,1.2761,1.3506,1.4617,1.579,1.6945,1.7817,1.8554,1.9212,1.9601,1.992,2.016,2.0259,2.0653,2.1331,2.2552,2.3358,2.3925,2.5136,2.5602,2.5597,2.5544,2.5519,2.5454,-2.8107,-2.8357,-2.8479,-2.8039,-2.746,-2.6908,-2.6431,-2.5483,-2.4653,-2.3961,-2.3187,-2.251,-2.1944,-2.1145,-2.0547,-2.0282,-1.9617,-1.8967,-1.8495,-1.7961,-1.7254,-1.6437,-1.5787,-1.5369,-1.5123,-1.4335,-1.3849,-1.3663,-1.3005,-1.2449,-1.2025,-1.1645,-1.1251,-1.0947,-1.0631,-1.0189,-0.9715,-0.962,-0.9243,-0.8731,-0.8416,-0.8216,-0.8105,-0.8051,-0.8002,-0.8085,-0.8152,-0.8144,-0.8185,-0.8324,-0.8455,-0.8578,-0.861,-0.8732,-0.8846,-0.8846,-0.8581,-0.8304,-0.8226,-0.7825,-0.7324,-0.6842,-0.6412,-0.6003,-0.5679,-0.5401,-0.5202,-0.5079,-0.5147,-0.5151,-0.499,-0.5054,-0.5004,-0.4744,-0.432,-0.388,-0.3435,-0.286,-0.2192,-0.1433,-0.0756,-0.004,0.0839,0.1704,0.2527,0.3255,0.4146,0.5393,0.7062,0.8996,1.056,1.1597,1.2817,1.3891,1.4724,1.5596,1.6588,1.7717,1.8501,1.9175,1.9694,1.9988,2.0201,2.0344,2.0675,2.1172,2.1867,2.2988,2.3773,2.4342,2.5212,2.555,2.5522,2.5432,2.5356,2.5266,-2.8302,-2.8661,-2.8748,-2.8253,-2.7428,-2.6587,-2.6094,-2.5191,-2.4197,-2.307,-2.2641,-2.2124,-2.1099,-2.0772,-2.0422,-2.0042,-1.9772,-1.9226,-1.828,-1.7202,-1.6485,-1.6299,-1.5447,-1.484,-1.4523,-1.4237,-1.3768,-1.3086,-1.2974,-1.2614,-1.2067,-1.1423,-1.1101,-1.1084,-1.0401,-0.9956,-0.9681,-0.9681,-0.9297,-0.8687,-0.8687,-0.852,-0.8216,-0.8216,-0.8299,-0.8414,-0.848,-0.8521,-0.8521,-0.8675,-0.8773,-0.892,-0.892,-0.9033,-0.9217,-0.9217,-0.9096,-0.8975,-0.8765,-0.857,-0.8166,-0.7249,-0.6652,-0.627,-0.6059,-0.5662,-0.5371,-0.5569,-0.5387,-0.5335,-0.5748,-0.5515,-0.5261,-0.511,-0.4714,-0.4232,-0.3788,-0.3262,-0.2642,-0.1884,-0.1207,-0.0461,0.0419,0.1485,0.2415,0.3225,0.4366,0.5977,0.8165,0.9639,1.0966,1.2259,1.348,1.4814,1.6292,1.6759,1.747,1.8431,1.9156,1.9705,2.0118,2.0324,2.0414,2.0468,2.1329,2.1705,2.1854,2.3503,2.4193,2.4297,2.5091,2.5391,2.5379,2.5254,2.5107,2.4984,-2.7291,-2.756,-2.7664,-2.7281,-2.6719,-2.6181,-2.5821,-2.4908,-2.4061,-2.3512,-2.267,-2.1952,-2.1485,-2.1082,-2.0772,-2.0472,-1.9811,-1.9007,-1.791,-1.6991,-1.6394,-1.6264,-1.5644,-1.5237,-1.5049,-1.4357,-1.387,-1.3639,-1.2842,-1.2349,-1.2167,-1.1426,-1.1094,-1.1085,-1.0651,-1.0223,-0.9839,-0.9752,-0.9367,-0.8832,-0.8832,-0.8766,-0.8708,-0.8708,-0.8749,-0.8822,-0.8854,-0.8854,-0.8854,-0.9016,-0.9096,-0.9217,-0.9395,-0.9426,-0.9408,-0.9408,-0.9208,-0.8975,-0.8935,-0.8765,-0.8415,-0.7694,-0.7243,-0.6929,-0.6622,-0.6357,-0.6138,-0.6048,-0.6118,-0.6156,-0.6052,-0.5985,-0.5879,-0.5604,-0.514,-0.4666,-0.4228,-0.3744,-0.3126,-0.2373,-0.168,-0.0922,0.0,0.0964,0.1874,0.2692,0.4616,0.6428,0.7954,0.9525,1.1004,1.2319,1.371,1.5155,1.6582,1.7236,1.8021,1.8977,1.9515,1.998,2.0322,2.1004,2.1305,2.1355,2.2178,2.2849,2.3338,2.3805,2.4322,2.485,2.51,2.5133,2.503,2.4898,2.4747,2.4606,-2.6962,-2.7219,-2.7358,-2.7036,-2.6411,-2.5874,-2.5561,-2.4657,-2.3865,-2.3591,-2.2815,-2.217,-2.1935,-2.1349,-2.0818,-2.0501,-1.9409,-1.8439,-1.7772,-1.6812,-1.6305,-1.6214,-1.5747,-1.5372,-1.5049,-1.4317,-1.3844,-1.3659,-1.2882,-1.2357,-1.2098,-1.147,-1.1137,-1.1085,-1.0624,-1.0209,-0.9949,-0.9783,-0.9477,-0.9065,-0.9065,-0.9065,-0.9065,-0.9065,-0.9145,-0.9266,-0.9266,-0.9306,-0.9346,-0.9426,-0.9527,-0.9646,-0.9862,-0.9853,-0.9725,-0.9725,-0.9496,-0.9266,-0.9136,-0.9007,-0.8795,-0.8309,-0.7843,-0.7456,-0.7093,-0.6804,-0.6599,-0.657,-0.6628,-0.6633,-0.6497,-0.6408,-0.6307,-0.6007,-0.5577,-0.5145,-0.4709,-0.4136,-0.3565,-0.286,-0.214,-0.1333,-0.043,0.0504,0.161,0.2964,0.4805,0.6437,0.7717,0.928,1.0867,1.2553,1.4093,1.5757,1.7513,1.8484,1.9093,1.9369,2.0164,2.0679,2.0972,2.1833,2.2202,2.2221,2.2975,2.3533,2.3899,2.4118,2.4461,2.4858,2.4799,2.4718,2.4598,2.4414,2.4262,2.41,-2.709,-2.731,-2.7445,-2.7089,-2.6325,-2.5634,-2.5198,-2.4405,-2.3754,-2.3407,-2.2935,-2.2591,-2.2377,-2.1447,-2.0708,-2.0327,-1.8734,-1.774,-1.7689,-1.6767,-1.6262,-1.617,-1.5708,-1.5241,-1.471,-1.425,-1.379,-1.3352,-1.3034,-1.2552,-1.1979,-1.147,-1.1176,-1.1085,-1.0449,-1.0127,-1.0059,-0.9902,-0.9655,-0.9359,-0.9359,-0.9359,-0.9359,-0.9359,-0.9536,-0.9753,-0.9762,-0.9793,-0.9853,-0.9853,-1.001,-1.0196,-1.0322,-1.0273,-1.0118,-1.0049,-0.9911,-0.9713,-0.9448,-0.9288,-0.9217,-0.8992,-0.8492,-0.7927,-0.7578,-0.7198,-0.6996,-0.7161,-0.7036,-0.6928,-0.7016,-0.6894,-0.6647,-0.6307,-0.5976,-0.5588,-0.514,-0.453,-0.3961,-0.3347,-0.2544,-0.1741,-0.085,0.0134,0.156,0.3598,0.4803,0.6047,0.7419,0.8835,1.0586,1.272,1.4454,1.6413,1.8692,2.0004,2.039,1.9858,2.1046,2.1717,2.1933,2.272,2.3067,2.3021,2.3679,2.3893,2.3796,2.4388,2.4532,2.4381,2.4264,2.4174,2.4062,2.3808,2.3642,2.3494,-2.6582,-2.6429,-2.6265,-2.5992,-2.5654,-2.5306,-2.493,-2.4477,-2.4094,-2.3882,-2.3005,-2.2308,-2.2105,-2.1255,-2.0469,-2.0014,-1.8909,-1.8051,-1.7576,-1.7024,-1.6545,-1.6046,-1.5608,-1.5078,-1.4545,-1.425,-1.4016,-1.3828,-1.2888,-1.2289,-1.198,-1.1436,-1.1138,-1.1072,-1.0661,-1.0467,-1.0467,-1.0283,-1.0088,-0.9922,-0.9922,-0.9922,-0.9922,-0.9922,-1.0049,-1.0166,-1.0235,-1.0273,-1.0302,-1.0457,-1.0534,-1.0611,-1.0725,-1.0687,-1.0572,-1.0505,-1.0322,-1.0127,-0.9892,-0.9774,-0.9616,-0.9408,-0.9187,-0.8879,-0.8359,-0.815,-0.8006,-0.7817,-0.7751,-0.765,-0.7426,-0.7321,-0.7118,-0.6787,-0.6477,-0.6093,-0.5631,-0.5019,-0.4403,-0.3836,-0.3123,-0.2366,-0.1478,-0.0134,0.125,0.2534,0.3578,0.4854,0.6496,0.8018,0.9774,1.183,1.3859,1.5902,1.7911,1.9621,2.0843,2.163,2.2245,2.2591,2.277,2.3523,2.3763,2.364,2.4208,2.4309,2.4087,2.4008,2.3832,2.3629,2.3545,2.3432,2.3333,2.3218,2.31,2.293,-2.659,-2.6349,-2.6118,-2.5844,-2.5659,-2.547,-2.5068,-2.4508,-2.4027,-2.3825,-2.2823,-2.2051,-2.1845,-2.1012,-2.022,-1.9432,-1.8728,-1.8166,-1.7842,-1.7142,-1.6609,-1.6297,-1.5616,-1.5114,-1.4787,-1.4356,-1.3929,-1.3556,-1.293,-1.239,-1.1954,-1.1625,-1.1442,-1.133,-1.1067,-1.0916,-1.0888,-1.0725,-1.0534,-1.038,-1.038,-1.038,-1.038,-1.0457,-1.0534,-1.0649,-1.0764,-1.0829,-1.0954,-1.1169,-1.1207,-1.1207,-1.1244,-1.1169,-1.1057,-1.0943,-1.0764,-1.0544,-1.0467,-1.0273,-1.004,-0.9922,-0.9804,-0.9518,-0.8967,-0.8692,-0.8529,-0.8398,-0.8308,-0.8144,-0.7889,-0.7773,-0.7572,-0.7209,-0.6901,-0.6513,-0.6093,-0.5491,-0.4927,-0.4408,-0.3697,-0.2898,-0.1878,-0.0759,0.0357,0.1334,0.2258,0.3439,0.4988,0.6493,0.8339,1.0642,1.2949,1.5397,1.8047,2.0127,2.1844,2.3198,2.3314,2.3412,2.3501,2.413,2.4268,2.3996,2.4085,2.3933,2.3637,2.333,2.3029,2.281,2.2667,2.26,2.2504,2.2415,2.2351,2.222,-2.6825,-2.659,-2.6383,-2.6118,-2.599,-2.5775,-2.5287,-2.4531,-2.3875,-2.3559,-2.2517,-2.1758,-2.1588,-2.0786,-1.9912,-1.8979,-1.8567,-1.8305,-1.8129,-1.7283,-1.6634,-1.6395,-1.5603,-1.5116,-1.4951,-1.4366,-1.3801,-1.3229,-1.3021,-1.2628,-1.2018,-1.1945,-1.1884,-1.1726,-1.1531,-1.1431,-1.1367,-1.1207,-1.1057,-1.0905,-1.0905,-1.0905,-1.0905,-1.1029,-1.1105,-1.1169,-1.133,-1.1479,-1.17,-1.1847,-1.192,-1.192,-1.1799,-1.1726,-1.1627,-1.1468,-1.1282,-1.1105,-1.1029,-1.0802,-1.0572,-1.0505,-1.0351,-1.0118,-0.9607,-0.9217,-0.8975,-0.8926,-0.8765,-0.8553,-0.8382,-0.8226,-0.7979,-0.7614,-0.7321,-0.6979,-0.6556,-0.6002,-0.5448,-0.4975,-0.4224,-0.3341,-0.2364,-0.1649,-0.0889,-0.0089,0.0784,0.1841,0.3122,0.4482,0.6379,0.8892,1.1521,1.4552,1.8014,2.0556,2.2593,2.4149,2.3996,2.3968,2.4075,2.4415,2.4324,2.3897,2.3467,2.3064,2.2723,2.2304,2.2012,2.1819,2.1645,2.1602,2.1606,2.1535,2.1507,2.1495,-2.7053,-2.6825,-2.659,-2.6383,-2.6241,-2.5881,-2.501,-2.456,-2.4067,-2.3283,-2.2227,-2.1538,-2.145,-2.0455,-1.9685,-1.9339,-1.9101,-1.8682,-1.7902,-1.7567,-1.6817,-1.5641,-1.527,-1.4862,-1.4346,-1.4126,-1.393,-1.3803,-1.3299,-1.2876,-1.2496,-1.2496,-1.2425,-1.2294,-1.2138,-1.2029,-1.1968,-1.1836,-1.1726,-1.1664,-1.1664,-1.1664,-1.1664,-1.1664,-1.1726,-1.1799,-1.192,-1.2138,-1.2354,-1.2389,-1.2401,-1.2389,-1.2389,-1.233,-1.2222,-1.2029,-1.1968,-1.1884,-1.1579,-1.1431,-1.1319,-1.1207,-1.0981,-1.0764,-1.0687,-1.0157,-0.9616,-0.9509,-0.931,-0.9119,-0.8935,-0.8724,-0.8513,-0.8136,-0.7821,-0.7454,-0.6979,-0.6435,-0.5922,-0.5448,-0.4482,-0.3734,-0.3429,-0.2804,-0.2224,-0.1733,-0.1199,-0.0334,0.0932,0.2074,0.3688,0.5915,0.9215,1.2668,1.6118,1.9356,2.1828,2.3519,2.3542,2.3837,2.4335,2.3824,2.3272,2.2712,2.2185,2.1692,2.1256,2.0845,2.0557,2.0374,2.034,2.0371,2.0452,2.0665,2.0747,2.0763,-2.7213,-2.7053,-2.694,-2.6725,-2.6219,-2.5698,-2.5162,-2.418,-2.3321,-2.2879,-2.1917,-2.1252,-2.1119,-2.0443,-1.9945,-1.9839,-1.9603,-1.9118,-1.835,-1.7725,-1.6947,-1.59,-1.5374,-1.4938,-1.4592,-1.4578,-1.4511,-1.4399,-1.3846,-1.3412,-1.316,-1.3126,-1.3022,-1.2918,-1.2801,-1.2661,-1.2544,-1.2496,-1.2389,-1.2246,-1.2246,-1.2246,-1.2246,-1.2318,-1.2401,-1.2425,-1.2626,-1.2801,-1.2941,-1.3091,-1.3091,-1.3069,-1.3069,-1.2988,-1.2871,-1.2731,-1.2638,-1.2496,-1.2389,-1.2174,-1.1993,-1.192,-1.1689,-1.1468,-1.1468,-1.1132,-1.0677,-1.0137,-0.9952,-0.9765,-0.9496,-0.9319,-0.907,-0.8716,-0.8439,-0.8111,-0.7648,-0.7154,-0.6647,-0.5964,-0.5351,-0.487,-0.4565,-0.4212,-0.3891,-0.3653,-0.3222,-0.2698,-0.2073,-0.1198,-0.0053,0.1308,0.4527,0.8641,1.3691,1.6238,1.9239,2.2614,2.1734,2.1904,2.2977,2.2142,2.136,2.061,2.0193,1.9777,1.9361,1.9182,1.9038,1.8935,1.909,1.9353,1.9651,1.9894,2.007,2.0139]}]]